<?xml version="1.0" encoding="UTF-8" standalone="no" ?>
<gpx xmlns="http://www.topografix.com/GPX/1/1" xmlns:xsi="http://www.w3.org/2001/XMLSchema-instance" xsi:schemaLocation="http://www.topografix.com/GPX/1/1 http://www.topografix.com/GPX/1/1/gpx.xsd" version="1.1" creator="VisuGPX - https://www.visugpx.com">
  <metadata>
    <name>CASCADES  ARIFAT</name>
    <desc><![CDATA[25 kms  dur dur]]></desc>
  </metadata>
  <trk>
    <name><![CDATA[ARIFAT]]></name>
    <trkseg>
      <trkpt lat="43.80591" lon="2.35117">
        <ele>365.92</ele>
        <time>2011-12-04T07:51:35Z</time>
      </trkpt>
      <trkpt lat="43.80584" lon="2.35119">
        <ele>366.4</ele>
        <time>2011-12-04T07:52:32Z</time>
      </trkpt>
      <trkpt lat="43.80581" lon="2.3512">
        <ele>367.36</ele>
        <time>2011-12-04T07:52:45Z</time>
      </trkpt>
      <trkpt lat="43.80568" lon="2.35124">
        <ele>366.88</ele>
        <time>2011-12-04T07:52:57Z</time>
      </trkpt>
      <trkpt lat="43.80553" lon="2.35133">
        <ele>368.32</ele>
        <time>2011-12-04T07:53:13Z</time>
      </trkpt>
      <trkpt lat="43.80548" lon="2.35134">
        <ele>368.8</ele>
        <time>2011-12-04T07:53:18Z</time>
      </trkpt>
      <trkpt lat="43.80534" lon="2.35136">
        <ele>370.73</ele>
        <time>2011-12-04T07:53:34Z</time>
      </trkpt>
      <trkpt lat="43.8053" lon="2.35138">
        <ele>371.69</ele>
        <time>2011-12-04T07:53:46Z</time>
      </trkpt>
      <trkpt lat="43.80516" lon="2.35135">
        <ele>371.21</ele>
        <time>2011-12-04T07:54:00Z</time>
      </trkpt>
      <trkpt lat="43.805" lon="2.35125">
        <ele>370.73</ele>
        <time>2011-12-04T07:54:14Z</time>
      </trkpt>
      <trkpt lat="43.80484" lon="2.35113">
        <ele>371.21</ele>
        <time>2011-12-04T07:54:29Z</time>
      </trkpt>
      <trkpt lat="43.80476" lon="2.35105">
        <ele>371.21</ele>
        <time>2011-12-04T07:54:37Z</time>
      </trkpt>
      <trkpt lat="43.80459" lon="2.35099">
        <ele>372.17</ele>
        <time>2011-12-04T07:54:52Z</time>
      </trkpt>
      <trkpt lat="43.80455" lon="2.35098">
        <ele>371.21</ele>
        <time>2011-12-04T07:54:57Z</time>
      </trkpt>
      <trkpt lat="43.80445" lon="2.35087">
        <ele>371.21</ele>
        <time>2011-12-04T07:55:10Z</time>
      </trkpt>
      <trkpt lat="43.80437" lon="2.35077">
        <ele>370.24</ele>
        <time>2011-12-04T07:55:19Z</time>
      </trkpt>
      <trkpt lat="43.80423" lon="2.35057">
        <ele>370.73</ele>
        <time>2011-12-04T07:55:34Z</time>
      </trkpt>
      <trkpt lat="43.80413" lon="2.35042">
        <ele>369.76</ele>
        <time>2011-12-04T07:55:47Z</time>
      </trkpt>
      <trkpt lat="43.80404" lon="2.35028">
        <ele>366.88</ele>
        <time>2011-12-04T07:55:59Z</time>
      </trkpt>
      <trkpt lat="43.80398" lon="2.35017">
        <ele>365.44</ele>
        <time>2011-12-04T07:56:07Z</time>
      </trkpt>
      <trkpt lat="43.80393" lon="2.35007">
        <ele>365.92</ele>
        <time>2011-12-04T07:56:15Z</time>
      </trkpt>
      <trkpt lat="43.80391" lon="2.35005">
        <ele>365.92</ele>
        <time>2011-12-04T07:56:17Z</time>
      </trkpt>
      <trkpt lat="43.80388" lon="2.35">
        <ele>365.92</ele>
        <time>2011-12-04T07:56:21Z</time>
      </trkpt>
      <trkpt lat="43.80378" lon="2.34976">
        <ele>365.92</ele>
        <time>2011-12-04T07:56:36Z</time>
      </trkpt>
      <trkpt lat="43.80374" lon="2.34971">
        <ele>365.44</ele>
        <time>2011-12-04T07:56:41Z</time>
      </trkpt>
      <trkpt lat="43.80362" lon="2.34964">
        <ele>365.44</ele>
        <time>2011-12-04T07:56:53Z</time>
      </trkpt>
      <trkpt lat="43.80357" lon="2.34954">
        <ele>364.48</ele>
        <time>2011-12-04T07:57:07Z</time>
      </trkpt>
      <trkpt lat="43.80353" lon="2.34948">
        <ele>364.48</ele>
        <time>2011-12-04T07:57:19Z</time>
      </trkpt>
      <trkpt lat="43.80354" lon="2.34947">
        <ele>364</ele>
        <time>2011-12-04T07:57:33Z</time>
      </trkpt>
      <trkpt lat="43.80354" lon="2.34948">
        <ele>363.52</ele>
        <time>2011-12-04T07:57:57Z</time>
      </trkpt>
      <trkpt lat="43.80349" lon="2.34947">
        <ele>364</ele>
        <time>2011-12-04T07:58:06Z</time>
      </trkpt>
      <trkpt lat="43.80339" lon="2.3495">
        <ele>364.96</ele>
        <time>2011-12-04T07:58:20Z</time>
      </trkpt>
      <trkpt lat="43.80328" lon="2.34953">
        <ele>364.96</ele>
        <time>2011-12-04T07:58:33Z</time>
      </trkpt>
      <trkpt lat="43.80321" lon="2.34948">
        <ele>364</ele>
        <time>2011-12-04T07:58:39Z</time>
      </trkpt>
      <trkpt lat="43.80311" lon="2.34949">
        <ele>363.52</ele>
        <time>2011-12-04T07:58:51Z</time>
      </trkpt>
      <trkpt lat="43.80309" lon="2.34947">
        <ele>364</ele>
        <time>2011-12-04T07:58:58Z</time>
      </trkpt>
      <trkpt lat="43.80298" lon="2.34935">
        <ele>363.04</ele>
        <time>2011-12-04T07:59:11Z</time>
      </trkpt>
      <trkpt lat="43.80287" lon="2.3493">
        <ele>362.55</ele>
        <time>2011-12-04T07:59:26Z</time>
      </trkpt>
      <trkpt lat="43.80285" lon="2.3493">
        <ele>363.04</ele>
        <time>2011-12-04T07:59:28Z</time>
      </trkpt>
      <trkpt lat="43.8028" lon="2.34925">
        <ele>362.55</ele>
        <time>2011-12-04T07:59:35Z</time>
      </trkpt>
      <trkpt lat="43.80271" lon="2.34918">
        <ele>361.11</ele>
        <time>2011-12-04T07:59:44Z</time>
      </trkpt>
      <trkpt lat="43.80255" lon="2.34911">
        <ele>357.75</ele>
        <time>2011-12-04T08:00:00Z</time>
      </trkpt>
      <trkpt lat="43.80241" lon="2.34899">
        <ele>353.9</ele>
        <time>2011-12-04T08:00:15Z</time>
      </trkpt>
      <trkpt lat="43.80241" lon="2.34898">
        <ele>353.9</ele>
        <time>2011-12-04T08:00:16Z</time>
      </trkpt>
      <trkpt lat="43.80233" lon="2.34882">
        <ele>351.5</ele>
        <time>2011-12-04T08:00:32Z</time>
      </trkpt>
      <trkpt lat="43.80231" lon="2.34879">
        <ele>351.02</ele>
        <time>2011-12-04T08:00:34Z</time>
      </trkpt>
      <trkpt lat="43.80227" lon="2.34865">
        <ele>347.17</ele>
        <time>2011-12-04T08:00:48Z</time>
      </trkpt>
      <trkpt lat="43.80222" lon="2.34847">
        <ele>342.37</ele>
        <time>2011-12-04T08:01:03Z</time>
      </trkpt>
      <trkpt lat="43.80224" lon="2.34841">
        <ele>341.41</ele>
        <time>2011-12-04T08:01:08Z</time>
      </trkpt>
      <trkpt lat="43.80226" lon="2.34827">
        <ele>341.41</ele>
        <time>2011-12-04T08:01:21Z</time>
      </trkpt>
      <trkpt lat="43.80228" lon="2.34808">
        <ele>343.81</ele>
        <time>2011-12-04T08:01:35Z</time>
      </trkpt>
      <trkpt lat="43.8023" lon="2.34807">
        <ele>344.29</ele>
        <time>2011-12-04T08:01:37Z</time>
      </trkpt>
      <trkpt lat="43.80232" lon="2.34802">
        <ele>344.29</ele>
        <time>2011-12-04T08:01:42Z</time>
      </trkpt>
      <trkpt lat="43.80225" lon="2.34792">
        <ele>345.25</ele>
        <time>2011-12-04T08:01:54Z</time>
      </trkpt>
      <trkpt lat="43.80225" lon="2.34787">
        <ele>346.21</ele>
        <time>2011-12-04T08:01:57Z</time>
      </trkpt>
      <trkpt lat="43.80232" lon="2.34769">
        <ele>347.65</ele>
        <time>2011-12-04T08:02:12Z</time>
      </trkpt>
      <trkpt lat="43.8023" lon="2.34749">
        <ele>348.13</ele>
        <time>2011-12-04T08:02:24Z</time>
      </trkpt>
      <trkpt lat="43.80226" lon="2.34743">
        <ele>347.65</ele>
        <time>2011-12-04T08:02:30Z</time>
      </trkpt>
      <trkpt lat="43.80212" lon="2.34728">
        <ele>348.13</ele>
        <time>2011-12-04T08:02:46Z</time>
      </trkpt>
      <trkpt lat="43.80212" lon="2.34727">
        <ele>348.62</ele>
        <time>2011-12-04T08:02:47Z</time>
      </trkpt>
      <trkpt lat="43.80221" lon="2.34703">
        <ele>350.54</ele>
        <time>2011-12-04T08:03:03Z</time>
      </trkpt>
      <trkpt lat="43.80223" lon="2.34685">
        <ele>350.54</ele>
        <time>2011-12-04T08:03:13Z</time>
      </trkpt>
      <trkpt lat="43.80221" lon="2.34652">
        <ele>349.58</ele>
        <time>2011-12-04T08:03:30Z</time>
      </trkpt>
      <trkpt lat="43.80218" lon="2.34634">
        <ele>348.13</ele>
        <time>2011-12-04T08:03:43Z</time>
      </trkpt>
      <trkpt lat="43.80218" lon="2.3462">
        <ele>342.85</ele>
        <time>2011-12-04T08:03:53Z</time>
      </trkpt>
      <trkpt lat="43.80217" lon="2.34612">
        <ele>339.96</ele>
        <time>2011-12-04T08:04:02Z</time>
      </trkpt>
      <trkpt lat="43.80214" lon="2.34605">
        <ele>337.08</ele>
        <time>2011-12-04T08:04:08Z</time>
      </trkpt>
      <trkpt lat="43.80203" lon="2.34581">
        <ele>333.71</ele>
        <time>2011-12-04T08:04:24Z</time>
      </trkpt>
      <trkpt lat="43.80191" lon="2.3457">
        <ele>327.47</ele>
        <time>2011-12-04T08:04:39Z</time>
      </trkpt>
      <trkpt lat="43.80178" lon="2.34562">
        <ele>321.22</ele>
        <time>2011-12-04T08:04:53Z</time>
      </trkpt>
      <trkpt lat="43.80165" lon="2.34555">
        <ele>315.93</ele>
        <time>2011-12-04T08:05:07Z</time>
      </trkpt>
      <trkpt lat="43.80156" lon="2.34549">
        <ele>319.3</ele>
        <time>2011-12-04T08:05:14Z</time>
      </trkpt>
      <trkpt lat="43.80141" lon="2.34557">
        <ele>322.66</ele>
        <time>2011-12-04T08:05:30Z</time>
      </trkpt>
      <trkpt lat="43.80126" lon="2.3457">
        <ele>321.22</ele>
        <time>2011-12-04T08:05:43Z</time>
      </trkpt>
      <trkpt lat="43.80121" lon="2.34575">
        <ele>320.74</ele>
        <time>2011-12-04T08:05:49Z</time>
      </trkpt>
      <trkpt lat="43.80117" lon="2.34579">
        <ele>320.26</ele>
        <time>2011-12-04T08:05:54Z</time>
      </trkpt>
      <trkpt lat="43.80106" lon="2.3459">
        <ele>320.74</ele>
        <time>2011-12-04T08:06:09Z</time>
      </trkpt>
      <trkpt lat="43.80094" lon="2.34599">
        <ele>323.62</ele>
        <time>2011-12-04T08:06:22Z</time>
      </trkpt>
      <trkpt lat="43.8008" lon="2.34606">
        <ele>330.35</ele>
        <time>2011-12-04T08:06:38Z</time>
      </trkpt>
      <trkpt lat="43.80068" lon="2.34621">
        <ele>331.31</ele>
        <time>2011-12-04T08:06:52Z</time>
      </trkpt>
      <trkpt lat="43.80058" lon="2.34647">
        <ele>330.83</ele>
        <time>2011-12-04T08:07:08Z</time>
      </trkpt>
      <trkpt lat="43.80056" lon="2.34651">
        <ele>330.83</ele>
        <time>2011-12-04T08:07:11Z</time>
      </trkpt>
      <trkpt lat="43.80048" lon="2.3467">
        <ele>327.47</ele>
        <time>2011-12-04T08:07:25Z</time>
      </trkpt>
      <trkpt lat="43.80048" lon="2.3467">
        <ele>327.47</ele>
        <time>2011-12-04T08:07:26Z</time>
      </trkpt>
      <trkpt lat="43.80045" lon="2.34685">
        <ele>324.1</ele>
        <time>2011-12-04T08:07:36Z</time>
      </trkpt>
      <trkpt lat="43.80039" lon="2.34705">
        <ele>323.14</ele>
        <time>2011-12-04T08:07:49Z</time>
      </trkpt>
      <trkpt lat="43.8004" lon="2.34722">
        <ele>323.62</ele>
        <time>2011-12-04T08:08:00Z</time>
      </trkpt>
      <trkpt lat="43.80039" lon="2.34742">
        <ele>329.87</ele>
        <time>2011-12-04T08:08:15Z</time>
      </trkpt>
      <trkpt lat="43.8004" lon="2.34752">
        <ele>332.75</ele>
        <time>2011-12-04T08:08:22Z</time>
      </trkpt>
      <trkpt lat="43.80039" lon="2.34773">
        <ele>334.68</ele>
        <time>2011-12-04T08:08:36Z</time>
      </trkpt>
      <trkpt lat="43.80037" lon="2.3478">
        <ele>336.6</ele>
        <time>2011-12-04T08:08:44Z</time>
      </trkpt>
      <trkpt lat="43.8003" lon="2.34799">
        <ele>336.12</ele>
        <time>2011-12-04T08:09:00Z</time>
      </trkpt>
      <trkpt lat="43.80027" lon="2.34813">
        <ele>330.35</ele>
        <time>2011-12-04T08:09:14Z</time>
      </trkpt>
      <trkpt lat="43.80024" lon="2.34831">
        <ele>327.95</ele>
        <time>2011-12-04T08:09:27Z</time>
      </trkpt>
      <trkpt lat="43.80015" lon="2.34847">
        <ele>326.5</ele>
        <time>2011-12-04T08:09:42Z</time>
      </trkpt>
      <trkpt lat="43.80005" lon="2.34869">
        <ele>323.62</ele>
        <time>2011-12-04T08:09:57Z</time>
      </trkpt>
      <trkpt lat="43.80004" lon="2.34871">
        <ele>323.14</ele>
        <time>2011-12-04T08:09:58Z</time>
      </trkpt>
      <trkpt lat="43.80001" lon="2.34879">
        <ele>322.66</ele>
        <time>2011-12-04T08:10:03Z</time>
      </trkpt>
      <trkpt lat="43.79994" lon="2.34902">
        <ele>319.78</ele>
        <time>2011-12-04T08:10:18Z</time>
      </trkpt>
      <trkpt lat="43.79992" lon="2.34929">
        <ele>321.7</ele>
        <time>2011-12-04T08:10:36Z</time>
      </trkpt>
      <trkpt lat="43.79991" lon="2.34935">
        <ele>322.18</ele>
        <time>2011-12-04T08:10:40Z</time>
      </trkpt>
      <trkpt lat="43.79978" lon="2.34955">
        <ele>327.47</ele>
        <time>2011-12-04T08:10:54Z</time>
      </trkpt>
      <trkpt lat="43.79977" lon="2.34963">
        <ele>327.47</ele>
        <time>2011-12-04T08:10:58Z</time>
      </trkpt>
      <trkpt lat="43.7998" lon="2.34982">
        <ele>327.95</ele>
        <time>2011-12-04T08:11:13Z</time>
      </trkpt>
      <trkpt lat="43.79976" lon="2.34998">
        <ele>330.35</ele>
        <time>2011-12-04T08:11:24Z</time>
      </trkpt>
      <trkpt lat="43.79972" lon="2.35014">
        <ele>333.71</ele>
        <time>2011-12-04T08:11:39Z</time>
      </trkpt>
      <trkpt lat="43.79966" lon="2.35032">
        <ele>339</ele>
        <time>2011-12-04T08:11:51Z</time>
      </trkpt>
      <trkpt lat="43.79962" lon="2.3505">
        <ele>343.33</ele>
        <time>2011-12-04T08:12:07Z</time>
      </trkpt>
      <trkpt lat="43.79957" lon="2.35065">
        <ele>343.81</ele>
        <time>2011-12-04T08:12:19Z</time>
      </trkpt>
      <trkpt lat="43.79948" lon="2.35076">
        <ele>346.69</ele>
        <time>2011-12-04T08:12:34Z</time>
      </trkpt>
      <trkpt lat="43.79946" lon="2.35077">
        <ele>346.69</ele>
        <time>2011-12-04T08:12:53Z</time>
      </trkpt>
      <trkpt lat="43.79947" lon="2.35077">
        <ele>347.65</ele>
        <time>2011-12-04T08:14:34Z</time>
      </trkpt>
      <trkpt lat="43.79937" lon="2.35082">
        <ele>349.1</ele>
        <time>2011-12-04T08:15:30Z</time>
      </trkpt>
      <trkpt lat="43.79934" lon="2.35083">
        <ele>349.58</ele>
        <time>2011-12-04T08:15:34Z</time>
      </trkpt>
      <trkpt lat="43.79932" lon="2.35083">
        <ele>349.58</ele>
        <time>2011-12-04T08:15:38Z</time>
      </trkpt>
      <trkpt lat="43.79914" lon="2.35089">
        <ele>344.77</ele>
        <time>2011-12-04T08:15:53Z</time>
      </trkpt>
      <trkpt lat="43.79901" lon="2.35095">
        <ele>340.44</ele>
        <time>2011-12-04T08:16:05Z</time>
      </trkpt>
      <trkpt lat="43.79887" lon="2.35102">
        <ele>332.27</ele>
        <time>2011-12-04T08:16:19Z</time>
      </trkpt>
      <trkpt lat="43.7987" lon="2.35106">
        <ele>326.02</ele>
        <time>2011-12-04T08:16:33Z</time>
      </trkpt>
      <trkpt lat="43.79867" lon="2.35106">
        <ele>325.06</ele>
        <time>2011-12-04T08:16:36Z</time>
      </trkpt>
      <trkpt lat="43.79865" lon="2.35105">
        <ele>324.58</ele>
        <time>2011-12-04T08:16:38Z</time>
      </trkpt>
      <trkpt lat="43.79857" lon="2.35103">
        <ele>322.18</ele>
        <time>2011-12-04T08:16:44Z</time>
      </trkpt>
      <trkpt lat="43.79847" lon="2.351">
        <ele>316.89</ele>
        <time>2011-12-04T08:16:54Z</time>
      </trkpt>
      <trkpt lat="43.79844" lon="2.35099">
        <ele>315.45</ele>
        <time>2011-12-04T08:16:57Z</time>
      </trkpt>
      <trkpt lat="43.79836" lon="2.35096">
        <ele>312.57</ele>
        <time>2011-12-04T08:17:04Z</time>
      </trkpt>
      <trkpt lat="43.79829" lon="2.35088">
        <ele>313.53</ele>
        <time>2011-12-04T08:17:11Z</time>
      </trkpt>
      <trkpt lat="43.79823" lon="2.35085">
        <ele>314.97</ele>
        <time>2011-12-04T08:17:19Z</time>
      </trkpt>
      <trkpt lat="43.79813" lon="2.35095">
        <ele>319.3</ele>
        <time>2011-12-04T08:17:34Z</time>
      </trkpt>
      <trkpt lat="43.79811" lon="2.35098">
        <ele>319.78</ele>
        <time>2011-12-04T08:17:58Z</time>
      </trkpt>
      <trkpt lat="43.79809" lon="2.35099">
        <ele>320.26</ele>
        <time>2011-12-04T08:18:00Z</time>
      </trkpt>
      <trkpt lat="43.79801" lon="2.3512">
        <ele>321.22</ele>
        <time>2011-12-04T08:18:16Z</time>
      </trkpt>
      <trkpt lat="43.79792" lon="2.35134">
        <ele>319.78</ele>
        <time>2011-12-04T08:18:31Z</time>
      </trkpt>
      <trkpt lat="43.79792" lon="2.35142">
        <ele>317.85</ele>
        <time>2011-12-04T08:18:36Z</time>
      </trkpt>
      <trkpt lat="43.79793" lon="2.35157">
        <ele>316.41</ele>
        <time>2011-12-04T08:18:43Z</time>
      </trkpt>
      <trkpt lat="43.79789" lon="2.35165">
        <ele>315.45</ele>
        <time>2011-12-04T08:18:48Z</time>
      </trkpt>
      <trkpt lat="43.79779" lon="2.35166">
        <ele>314.49</ele>
        <time>2011-12-04T08:19:01Z</time>
      </trkpt>
      <trkpt lat="43.79766" lon="2.35152">
        <ele>311.6</ele>
        <time>2011-12-04T08:19:14Z</time>
      </trkpt>
      <trkpt lat="43.79765" lon="2.3515">
        <ele>311.12</ele>
        <time>2011-12-04T08:19:16Z</time>
      </trkpt>
      <trkpt lat="43.79746" lon="2.35138">
        <ele>307.28</ele>
        <time>2011-12-04T08:19:33Z</time>
      </trkpt>
      <trkpt lat="43.79744" lon="2.35137">
        <ele>306.8</ele>
        <time>2011-12-04T08:19:35Z</time>
      </trkpt>
      <trkpt lat="43.7973" lon="2.35135">
        <ele>309.2</ele>
        <time>2011-12-04T08:19:49Z</time>
      </trkpt>
      <trkpt lat="43.79726" lon="2.35138">
        <ele>310.64</ele>
        <time>2011-12-04T08:19:55Z</time>
      </trkpt>
      <trkpt lat="43.7971" lon="2.35143">
        <ele>317.85</ele>
        <time>2011-12-04T08:20:13Z</time>
      </trkpt>
      <trkpt lat="43.797" lon="2.35142">
        <ele>324.58</ele>
        <time>2011-12-04T08:20:27Z</time>
      </trkpt>
      <trkpt lat="43.79678" lon="2.35125">
        <ele>334.2</ele>
        <time>2011-12-04T08:20:41Z</time>
      </trkpt>
      <trkpt lat="43.79665" lon="2.35116">
        <ele>340.92</ele>
        <time>2011-12-04T08:20:57Z</time>
      </trkpt>
      <trkpt lat="43.79658" lon="2.35112">
        <ele>340.92</ele>
        <time>2011-12-04T08:21:03Z</time>
      </trkpt>
      <trkpt lat="43.79643" lon="2.35106">
        <ele>336.6</ele>
        <time>2011-12-04T08:21:20Z</time>
      </trkpt>
      <trkpt lat="43.79637" lon="2.35088">
        <ele>336.12</ele>
        <time>2011-12-04T08:21:34Z</time>
      </trkpt>
      <trkpt lat="43.79629" lon="2.35057">
        <ele>344.29</ele>
        <time>2011-12-04T08:21:49Z</time>
      </trkpt>
      <trkpt lat="43.79615" lon="2.35046">
        <ele>345.25</ele>
        <time>2011-12-04T08:21:59Z</time>
      </trkpt>
      <trkpt lat="43.796" lon="2.35038">
        <ele>343.33</ele>
        <time>2011-12-04T08:22:12Z</time>
      </trkpt>
      <trkpt lat="43.79586" lon="2.35024">
        <ele>340.92</ele>
        <time>2011-12-04T08:22:27Z</time>
      </trkpt>
      <trkpt lat="43.79571" lon="2.35019">
        <ele>340.44</ele>
        <time>2011-12-04T08:22:41Z</time>
      </trkpt>
      <trkpt lat="43.79559" lon="2.35006">
        <ele>340.92</ele>
        <time>2011-12-04T08:22:55Z</time>
      </trkpt>
      <trkpt lat="43.79549" lon="2.34996">
        <ele>340.44</ele>
        <time>2011-12-04T08:23:10Z</time>
      </trkpt>
      <trkpt lat="43.79546" lon="2.34989">
        <ele>339.48</ele>
        <time>2011-12-04T08:23:15Z</time>
      </trkpt>
      <trkpt lat="43.79544" lon="2.34971">
        <ele>338.04</ele>
        <time>2011-12-04T08:23:31Z</time>
      </trkpt>
      <trkpt lat="43.79535" lon="2.3496">
        <ele>336.12</ele>
        <time>2011-12-04T08:23:41Z</time>
      </trkpt>
      <trkpt lat="43.79516" lon="2.34937">
        <ele>339.48</ele>
        <time>2011-12-04T08:23:56Z</time>
      </trkpt>
      <trkpt lat="43.7951" lon="2.34924">
        <ele>341.89</ele>
        <time>2011-12-04T08:24:06Z</time>
      </trkpt>
      <trkpt lat="43.79507" lon="2.34912">
        <ele>342.85</ele>
        <time>2011-12-04T08:24:13Z</time>
      </trkpt>
      <trkpt lat="43.79504" lon="2.34887">
        <ele>340.92</ele>
        <time>2011-12-04T08:24:28Z</time>
      </trkpt>
      <trkpt lat="43.79501" lon="2.34868">
        <ele>339</ele>
        <time>2011-12-04T08:24:42Z</time>
      </trkpt>
      <trkpt lat="43.79497" lon="2.3486">
        <ele>338.52</ele>
        <time>2011-12-04T08:24:49Z</time>
      </trkpt>
      <trkpt lat="43.79495" lon="2.34858">
        <ele>338.04</ele>
        <time>2011-12-04T08:24:51Z</time>
      </trkpt>
      <trkpt lat="43.79484" lon="2.34832">
        <ele>337.08</ele>
        <time>2011-12-04T08:25:06Z</time>
      </trkpt>
      <trkpt lat="43.79483" lon="2.34814">
        <ele>337.56</ele>
        <time>2011-12-04T08:25:17Z</time>
      </trkpt>
      <trkpt lat="43.79484" lon="2.34794">
        <ele>335.64</ele>
        <time>2011-12-04T08:25:31Z</time>
      </trkpt>
      <trkpt lat="43.79482" lon="2.34784">
        <ele>335.64</ele>
        <time>2011-12-04T08:25:38Z</time>
      </trkpt>
      <trkpt lat="43.79477" lon="2.34766">
        <ele>334.68</ele>
        <time>2011-12-04T08:25:48Z</time>
      </trkpt>
      <trkpt lat="43.79475" lon="2.34755">
        <ele>334.2</ele>
        <time>2011-12-04T08:25:56Z</time>
      </trkpt>
      <trkpt lat="43.79473" lon="2.3473">
        <ele>337.56</ele>
        <time>2011-12-04T08:26:10Z</time>
      </trkpt>
      <trkpt lat="43.79469" lon="2.34717">
        <ele>337.08</ele>
        <time>2011-12-04T08:26:17Z</time>
      </trkpt>
      <trkpt lat="43.7946" lon="2.34694">
        <ele>332.75</ele>
        <time>2011-12-04T08:26:32Z</time>
      </trkpt>
      <trkpt lat="43.79445" lon="2.34673">
        <ele>329.39</ele>
        <time>2011-12-04T08:26:48Z</time>
      </trkpt>
      <trkpt lat="43.79442" lon="2.34656">
        <ele>331.79</ele>
        <time>2011-12-04T08:27:00Z</time>
      </trkpt>
      <trkpt lat="43.79439" lon="2.34636">
        <ele>334.2</ele>
        <time>2011-12-04T08:27:15Z</time>
      </trkpt>
      <trkpt lat="43.79436" lon="2.34619">
        <ele>334.68</ele>
        <time>2011-12-04T08:27:26Z</time>
      </trkpt>
      <trkpt lat="43.79432" lon="2.34607">
        <ele>333.71</ele>
        <time>2011-12-04T08:27:34Z</time>
      </trkpt>
      <trkpt lat="43.79432" lon="2.34588">
        <ele>330.83</ele>
        <time>2011-12-04T08:27:50Z</time>
      </trkpt>
      <trkpt lat="43.79431" lon="2.34569">
        <ele>328.43</ele>
        <time>2011-12-04T08:28:05Z</time>
      </trkpt>
      <trkpt lat="43.79427" lon="2.3455">
        <ele>327.95</ele>
        <time>2011-12-04T08:28:18Z</time>
      </trkpt>
      <trkpt lat="43.79426" lon="2.34536">
        <ele>326.02</ele>
        <time>2011-12-04T08:28:28Z</time>
      </trkpt>
      <trkpt lat="43.79424" lon="2.34527">
        <ele>325.54</ele>
        <time>2011-12-04T08:28:36Z</time>
      </trkpt>
      <trkpt lat="43.79415" lon="2.34497">
        <ele>327.95</ele>
        <time>2011-12-04T08:28:50Z</time>
      </trkpt>
      <trkpt lat="43.79419" lon="2.34475">
        <ele>325.54</ele>
        <time>2011-12-04T08:29:06Z</time>
      </trkpt>
      <trkpt lat="43.79423" lon="2.34469">
        <ele>324.58</ele>
        <time>2011-12-04T08:29:12Z</time>
      </trkpt>
      <trkpt lat="43.79438" lon="2.34458">
        <ele>323.14</ele>
        <time>2011-12-04T08:29:26Z</time>
      </trkpt>
      <trkpt lat="43.79444" lon="2.34439">
        <ele>320.74</ele>
        <time>2011-12-04T08:29:41Z</time>
      </trkpt>
      <trkpt lat="43.79447" lon="2.34433">
        <ele>319.78</ele>
        <time>2011-12-04T08:29:46Z</time>
      </trkpt>
      <trkpt lat="43.7946" lon="2.34412">
        <ele>316.89</ele>
        <time>2011-12-04T08:30:02Z</time>
      </trkpt>
      <trkpt lat="43.79465" lon="2.34394">
        <ele>313.05</ele>
        <time>2011-12-04T08:30:16Z</time>
      </trkpt>
      <trkpt lat="43.7947" lon="2.34378">
        <ele>309.2</ele>
        <time>2011-12-04T08:30:30Z</time>
      </trkpt>
      <trkpt lat="43.79469" lon="2.34363">
        <ele>307.76</ele>
        <time>2011-12-04T08:30:43Z</time>
      </trkpt>
      <trkpt lat="43.79466" lon="2.34357">
        <ele>309.2</ele>
        <time>2011-12-04T08:30:48Z</time>
      </trkpt>
      <trkpt lat="43.79467" lon="2.3434">
        <ele>309.68</ele>
        <time>2011-12-04T08:31:01Z</time>
      </trkpt>
      <trkpt lat="43.79467" lon="2.34331">
        <ele>309.68</ele>
        <time>2011-12-04T08:31:12Z</time>
      </trkpt>
      <trkpt lat="43.79464" lon="2.34323">
        <ele>310.16</ele>
        <time>2011-12-04T08:31:28Z</time>
      </trkpt>
      <trkpt lat="43.79464" lon="2.34323">
        <ele>310.16</ele>
        <time>2011-12-04T08:31:40Z</time>
      </trkpt>
      <trkpt lat="43.79465" lon="2.34322">
        <ele>309.68</ele>
        <time>2011-12-04T08:31:44Z</time>
      </trkpt>
      <trkpt lat="43.79463" lon="2.34308">
        <ele>308.72</ele>
        <time>2011-12-04T08:32:45Z</time>
      </trkpt>
      <trkpt lat="43.79457" lon="2.34295">
        <ele>306.32</ele>
        <time>2011-12-04T08:33:00Z</time>
      </trkpt>
      <trkpt lat="43.79464" lon="2.34273">
        <ele>308.72</ele>
        <time>2011-12-04T08:33:15Z</time>
      </trkpt>
      <trkpt lat="43.79469" lon="2.34247">
        <ele>308.24</ele>
        <time>2011-12-04T08:33:31Z</time>
      </trkpt>
      <trkpt lat="43.79462" lon="2.34235">
        <ele>307.28</ele>
        <time>2011-12-04T08:33:43Z</time>
      </trkpt>
      <trkpt lat="43.79452" lon="2.34227">
        <ele>306.32</ele>
        <time>2011-12-04T08:33:51Z</time>
      </trkpt>
      <trkpt lat="43.79448" lon="2.34226">
        <ele>306.32</ele>
        <time>2011-12-04T08:33:54Z</time>
      </trkpt>
      <trkpt lat="43.79433" lon="2.3422">
        <ele>308.72</ele>
        <time>2011-12-04T08:34:10Z</time>
      </trkpt>
      <trkpt lat="43.79427" lon="2.34215">
        <ele>309.2</ele>
        <time>2011-12-04T08:34:22Z</time>
      </trkpt>
      <trkpt lat="43.79423" lon="2.34205">
        <ele>310.64</ele>
        <time>2011-12-04T08:34:35Z</time>
      </trkpt>
      <trkpt lat="43.79418" lon="2.34197">
        <ele>313.53</ele>
        <time>2011-12-04T08:34:41Z</time>
      </trkpt>
      <trkpt lat="43.79407" lon="2.34179">
        <ele>318.33</ele>
        <time>2011-12-04T08:34:56Z</time>
      </trkpt>
      <trkpt lat="43.79405" lon="2.34174">
        <ele>318.81</ele>
        <time>2011-12-04T08:35:01Z</time>
      </trkpt>
      <trkpt lat="43.79404" lon="2.34169">
        <ele>318.81</ele>
        <time>2011-12-04T08:35:04Z</time>
      </trkpt>
      <trkpt lat="43.79408" lon="2.34154">
        <ele>319.3</ele>
        <time>2011-12-04T08:35:18Z</time>
      </trkpt>
      <trkpt lat="43.79406" lon="2.34144">
        <ele>320.26</ele>
        <time>2011-12-04T08:35:30Z</time>
      </trkpt>
      <trkpt lat="43.79406" lon="2.34143">
        <ele>319.3</ele>
        <time>2011-12-04T08:35:50Z</time>
      </trkpt>
      <trkpt lat="43.79407" lon="2.34143">
        <ele>319.3</ele>
        <time>2011-12-04T08:37:13Z</time>
      </trkpt>
      <trkpt lat="43.79407" lon="2.34144">
        <ele>318.81</ele>
        <time>2011-12-04T08:39:36Z</time>
      </trkpt>
      <trkpt lat="43.79403" lon="2.34142">
        <ele>318.33</ele>
        <time>2011-12-04T08:41:15Z</time>
      </trkpt>
      <trkpt lat="43.79402" lon="2.34142">
        <ele>318.81</ele>
        <time>2011-12-04T08:41:17Z</time>
      </trkpt>
      <trkpt lat="43.79394" lon="2.34149">
        <ele>321.7</ele>
        <time>2011-12-04T08:41:32Z</time>
      </trkpt>
      <trkpt lat="43.7939" lon="2.34152">
        <ele>322.66</ele>
        <time>2011-12-04T08:41:47Z</time>
      </trkpt>
      <trkpt lat="43.79384" lon="2.34152">
        <ele>325.06</ele>
        <time>2011-12-04T08:41:59Z</time>
      </trkpt>
      <trkpt lat="43.79378" lon="2.34153">
        <ele>328.43</ele>
        <time>2011-12-04T08:42:12Z</time>
      </trkpt>
      <trkpt lat="43.7937" lon="2.34153">
        <ele>330.83</ele>
        <time>2011-12-04T08:42:26Z</time>
      </trkpt>
      <trkpt lat="43.79365" lon="2.34153">
        <ele>333.71</ele>
        <time>2011-12-04T08:42:39Z</time>
      </trkpt>
      <trkpt lat="43.79357" lon="2.34152">
        <ele>335.64</ele>
        <time>2011-12-04T08:42:52Z</time>
      </trkpt>
      <trkpt lat="43.79353" lon="2.34152">
        <ele>336.12</ele>
        <time>2011-12-04T08:42:56Z</time>
      </trkpt>
      <trkpt lat="43.79343" lon="2.34149">
        <ele>337.08</ele>
        <time>2011-12-04T08:43:11Z</time>
      </trkpt>
      <trkpt lat="43.79335" lon="2.34144">
        <ele>339.96</ele>
        <time>2011-12-04T08:43:24Z</time>
      </trkpt>
      <trkpt lat="43.79325" lon="2.34138">
        <ele>343.33</ele>
        <time>2011-12-04T08:43:37Z</time>
      </trkpt>
      <trkpt lat="43.79313" lon="2.34131">
        <ele>346.21</ele>
        <time>2011-12-04T08:43:51Z</time>
      </trkpt>
      <trkpt lat="43.79308" lon="2.34128">
        <ele>346.69</ele>
        <time>2011-12-04T08:43:57Z</time>
      </trkpt>
      <trkpt lat="43.79301" lon="2.34122">
        <ele>348.13</ele>
        <time>2011-12-04T08:44:07Z</time>
      </trkpt>
      <trkpt lat="43.79291" lon="2.34115">
        <ele>350.06</ele>
        <time>2011-12-04T08:44:21Z</time>
      </trkpt>
      <trkpt lat="43.79282" lon="2.34106">
        <ele>352.94</ele>
        <time>2011-12-04T08:44:36Z</time>
      </trkpt>
      <trkpt lat="43.79272" lon="2.34098">
        <ele>356.31</ele>
        <time>2011-12-04T08:44:50Z</time>
      </trkpt>
      <trkpt lat="43.79267" lon="2.34091">
        <ele>358.71</ele>
        <time>2011-12-04T08:45:02Z</time>
      </trkpt>
      <trkpt lat="43.79263" lon="2.34086">
        <ele>358.71</ele>
        <time>2011-12-04T08:45:14Z</time>
      </trkpt>
      <trkpt lat="43.79259" lon="2.34079">
        <ele>357.75</ele>
        <time>2011-12-04T08:45:27Z</time>
      </trkpt>
      <trkpt lat="43.79251" lon="2.34072">
        <ele>357.27</ele>
        <time>2011-12-04T08:45:41Z</time>
      </trkpt>
      <trkpt lat="43.79241" lon="2.34065">
        <ele>359.19</ele>
        <time>2011-12-04T08:45:55Z</time>
      </trkpt>
      <trkpt lat="43.79233" lon="2.3406">
        <ele>360.63</ele>
        <time>2011-12-04T08:46:08Z</time>
      </trkpt>
      <trkpt lat="43.79222" lon="2.34065">
        <ele>364</ele>
        <time>2011-12-04T08:46:22Z</time>
      </trkpt>
      <trkpt lat="43.79217" lon="2.34074">
        <ele>365.92</ele>
        <time>2011-12-04T08:46:32Z</time>
      </trkpt>
      <trkpt lat="43.79222" lon="2.34086">
        <ele>365.44</ele>
        <time>2011-12-04T08:46:42Z</time>
      </trkpt>
      <trkpt lat="43.79232" lon="2.34106">
        <ele>365.92</ele>
        <time>2011-12-04T08:46:58Z</time>
      </trkpt>
      <trkpt lat="43.79232" lon="2.34108">
        <ele>365.92</ele>
        <time>2011-12-04T08:47:00Z</time>
      </trkpt>
      <trkpt lat="43.79231" lon="2.34132">
        <ele>367.36</ele>
        <time>2011-12-04T08:47:16Z</time>
      </trkpt>
      <trkpt lat="43.79229" lon="2.34151">
        <ele>368.8</ele>
        <time>2011-12-04T08:47:30Z</time>
      </trkpt>
      <trkpt lat="43.79226" lon="2.34156">
        <ele>369.76</ele>
        <time>2011-12-04T08:47:34Z</time>
      </trkpt>
      <trkpt lat="43.79211" lon="2.34163">
        <ele>372.17</ele>
        <time>2011-12-04T08:47:47Z</time>
      </trkpt>
      <trkpt lat="43.79193" lon="2.34171">
        <ele>374.09</ele>
        <time>2011-12-04T08:48:00Z</time>
      </trkpt>
      <trkpt lat="43.79173" lon="2.34181">
        <ele>374.57</ele>
        <time>2011-12-04T08:48:17Z</time>
      </trkpt>
      <trkpt lat="43.79162" lon="2.34187">
        <ele>376.97</ele>
        <time>2011-12-04T08:48:30Z</time>
      </trkpt>
      <trkpt lat="43.79147" lon="2.34192">
        <ele>375.53</ele>
        <time>2011-12-04T08:48:46Z</time>
      </trkpt>
      <trkpt lat="43.79144" lon="2.34193">
        <ele>375.53</ele>
        <time>2011-12-04T08:48:49Z</time>
      </trkpt>
      <trkpt lat="43.7914" lon="2.34193">
        <ele>376.49</ele>
        <time>2011-12-04T08:48:53Z</time>
      </trkpt>
      <trkpt lat="43.79126" lon="2.34196">
        <ele>376.97</ele>
        <time>2011-12-04T08:49:06Z</time>
      </trkpt>
      <trkpt lat="43.79118" lon="2.34196">
        <ele>377.94</ele>
        <time>2011-12-04T08:49:12Z</time>
      </trkpt>
      <trkpt lat="43.79115" lon="2.34196">
        <ele>377.94</ele>
        <time>2011-12-04T08:49:15Z</time>
      </trkpt>
      <trkpt lat="43.791" lon="2.34196">
        <ele>380.34</ele>
        <time>2011-12-04T08:49:30Z</time>
      </trkpt>
      <trkpt lat="43.79087" lon="2.342">
        <ele>381.78</ele>
        <time>2011-12-04T08:49:42Z</time>
      </trkpt>
      <trkpt lat="43.79079" lon="2.34199">
        <ele>383.22</ele>
        <time>2011-12-04T08:49:49Z</time>
      </trkpt>
      <trkpt lat="43.79068" lon="2.342">
        <ele>383.7</ele>
        <time>2011-12-04T08:49:59Z</time>
      </trkpt>
      <trkpt lat="43.79055" lon="2.34204">
        <ele>383.22</ele>
        <time>2011-12-04T08:50:13Z</time>
      </trkpt>
      <trkpt lat="43.79053" lon="2.34205">
        <ele>382.74</ele>
        <time>2011-12-04T08:50:15Z</time>
      </trkpt>
      <trkpt lat="43.79036" lon="2.34209">
        <ele>384.18</ele>
        <time>2011-12-04T08:50:32Z</time>
      </trkpt>
      <trkpt lat="43.79023" lon="2.34216">
        <ele>387.55</ele>
        <time>2011-12-04T08:50:46Z</time>
      </trkpt>
      <trkpt lat="43.7902" lon="2.34217">
        <ele>387.55</ele>
        <time>2011-12-04T08:51:05Z</time>
      </trkpt>
      <trkpt lat="43.79018" lon="2.34216">
        <ele>388.99</ele>
        <time>2011-12-04T08:52:50Z</time>
      </trkpt>
      <trkpt lat="43.79018" lon="2.34214">
        <ele>388.99</ele>
        <time>2011-12-04T08:54:23Z</time>
      </trkpt>
      <trkpt lat="43.79015" lon="2.34214">
        <ele>389.47</ele>
        <time>2011-12-04T08:56:09Z</time>
      </trkpt>
      <trkpt lat="43.78991" lon="2.3421">
        <ele>391.87</ele>
        <time>2011-12-04T08:56:26Z</time>
      </trkpt>
      <trkpt lat="43.78978" lon="2.34198">
        <ele>390.91</ele>
        <time>2011-12-04T08:56:41Z</time>
      </trkpt>
      <trkpt lat="43.78975" lon="2.34188">
        <ele>386.59</ele>
        <time>2011-12-04T08:56:55Z</time>
      </trkpt>
      <trkpt lat="43.78971" lon="2.34177">
        <ele>384.66</ele>
        <time>2011-12-04T08:57:07Z</time>
      </trkpt>
      <trkpt lat="43.7896" lon="2.34162">
        <ele>383.22</ele>
        <time>2011-12-04T08:57:20Z</time>
      </trkpt>
      <trkpt lat="43.78958" lon="2.34155">
        <ele>384.66</ele>
        <time>2011-12-04T08:57:23Z</time>
      </trkpt>
      <trkpt lat="43.78951" lon="2.34138">
        <ele>387.07</ele>
        <time>2011-12-04T08:57:36Z</time>
      </trkpt>
      <trkpt lat="43.78951" lon="2.34136">
        <ele>387.07</ele>
        <time>2011-12-04T08:57:38Z</time>
      </trkpt>
      <trkpt lat="43.78954" lon="2.3412">
        <ele>386.11</ele>
        <time>2011-12-04T08:57:50Z</time>
      </trkpt>
      <trkpt lat="43.78952" lon="2.34114">
        <ele>385.15</ele>
        <time>2011-12-04T08:57:54Z</time>
      </trkpt>
      <trkpt lat="43.78947" lon="2.34092">
        <ele>385.63</ele>
        <time>2011-12-04T08:58:08Z</time>
      </trkpt>
      <trkpt lat="43.78946" lon="2.34074">
        <ele>384.18</ele>
        <time>2011-12-04T08:58:21Z</time>
      </trkpt>
      <trkpt lat="43.78943" lon="2.34057">
        <ele>383.22</ele>
        <time>2011-12-04T08:58:34Z</time>
      </trkpt>
      <trkpt lat="43.78943" lon="2.34053">
        <ele>382.74</ele>
        <time>2011-12-04T08:58:37Z</time>
      </trkpt>
      <trkpt lat="43.78943" lon="2.34041">
        <ele>382.26</ele>
        <time>2011-12-04T08:58:45Z</time>
      </trkpt>
      <trkpt lat="43.78942" lon="2.34035">
        <ele>381.78</ele>
        <time>2011-12-04T08:58:50Z</time>
      </trkpt>
      <trkpt lat="43.78944" lon="2.34019">
        <ele>384.18</ele>
        <time>2011-12-04T08:59:00Z</time>
      </trkpt>
      <trkpt lat="43.78945" lon="2.34016">
        <ele>384.18</ele>
        <time>2011-12-04T08:59:02Z</time>
      </trkpt>
      <trkpt lat="43.78946" lon="2.34014">
        <ele>384.66</ele>
        <time>2011-12-04T08:59:04Z</time>
      </trkpt>
      <trkpt lat="43.78945" lon="2.34009">
        <ele>385.15</ele>
        <time>2011-12-04T08:59:07Z</time>
      </trkpt>
      <trkpt lat="43.78951" lon="2.33997">
        <ele>387.55</ele>
        <time>2011-12-04T08:59:16Z</time>
      </trkpt>
      <trkpt lat="43.78949" lon="2.3398">
        <ele>388.99</ele>
        <time>2011-12-04T08:59:29Z</time>
      </trkpt>
      <trkpt lat="43.78947" lon="2.33969">
        <ele>388.51</ele>
        <time>2011-12-04T08:59:38Z</time>
      </trkpt>
      <trkpt lat="43.78945" lon="2.33958">
        <ele>388.99</ele>
        <time>2011-12-04T08:59:45Z</time>
      </trkpt>
      <trkpt lat="43.78948" lon="2.33945">
        <ele>391.87</ele>
        <time>2011-12-04T08:59:55Z</time>
      </trkpt>
      <trkpt lat="43.78948" lon="2.33942">
        <ele>392.36</ele>
        <time>2011-12-04T08:59:57Z</time>
      </trkpt>
      <trkpt lat="43.78948" lon="2.33937">
        <ele>393.32</ele>
        <time>2011-12-04T09:00:00Z</time>
      </trkpt>
      <trkpt lat="43.78946" lon="2.33929">
        <ele>393.32</ele>
        <time>2011-12-04T09:00:06Z</time>
      </trkpt>
      <trkpt lat="43.78946" lon="2.33925">
        <ele>393.8</ele>
        <time>2011-12-04T09:00:09Z</time>
      </trkpt>
      <trkpt lat="43.78946" lon="2.33911">
        <ele>396.2</ele>
        <time>2011-12-04T09:00:20Z</time>
      </trkpt>
      <trkpt lat="43.78948" lon="2.33904">
        <ele>397.64</ele>
        <time>2011-12-04T09:00:24Z</time>
      </trkpt>
      <trkpt lat="43.78947" lon="2.33899">
        <ele>398.12</ele>
        <time>2011-12-04T09:00:27Z</time>
      </trkpt>
      <trkpt lat="43.78941" lon="2.33885">
        <ele>399.57</ele>
        <time>2011-12-04T09:00:37Z</time>
      </trkpt>
      <trkpt lat="43.7894" lon="2.33877">
        <ele>399.57</ele>
        <time>2011-12-04T09:00:44Z</time>
      </trkpt>
      <trkpt lat="43.78931" lon="2.33861">
        <ele>400.53</ele>
        <time>2011-12-04T09:00:58Z</time>
      </trkpt>
      <trkpt lat="43.78929" lon="2.33854">
        <ele>401.01</ele>
        <time>2011-12-04T09:01:02Z</time>
      </trkpt>
      <trkpt lat="43.78922" lon="2.33829">
        <ele>402.93</ele>
        <time>2011-12-04T09:01:18Z</time>
      </trkpt>
      <trkpt lat="43.78915" lon="2.33813">
        <ele>403.89</ele>
        <time>2011-12-04T09:01:31Z</time>
      </trkpt>
      <trkpt lat="43.78904" lon="2.33799">
        <ele>405.33</ele>
        <time>2011-12-04T09:01:44Z</time>
      </trkpt>
      <trkpt lat="43.78891" lon="2.33789">
        <ele>407.26</ele>
        <time>2011-12-04T09:01:57Z</time>
      </trkpt>
      <trkpt lat="43.78881" lon="2.33779">
        <ele>408.22</ele>
        <time>2011-12-04T09:02:09Z</time>
      </trkpt>
      <trkpt lat="43.78865" lon="2.33769">
        <ele>408.22</ele>
        <time>2011-12-04T09:02:24Z</time>
      </trkpt>
      <trkpt lat="43.78847" lon="2.33756">
        <ele>409.66</ele>
        <time>2011-12-04T09:02:40Z</time>
      </trkpt>
      <trkpt lat="43.78846" lon="2.33756">
        <ele>409.66</ele>
        <time>2011-12-04T09:02:41Z</time>
      </trkpt>
      <trkpt lat="43.78832" lon="2.33744">
        <ele>411.58</ele>
        <time>2011-12-04T09:02:55Z</time>
      </trkpt>
      <trkpt lat="43.78826" lon="2.33739">
        <ele>412.06</ele>
        <time>2011-12-04T09:03:01Z</time>
      </trkpt>
      <trkpt lat="43.78814" lon="2.33722">
        <ele>410.14</ele>
        <time>2011-12-04T09:03:17Z</time>
      </trkpt>
      <trkpt lat="43.78803" lon="2.33702">
        <ele>411.1</ele>
        <time>2011-12-04T09:03:33Z</time>
      </trkpt>
      <trkpt lat="43.78797" lon="2.33693">
        <ele>412.54</ele>
        <time>2011-12-04T09:03:41Z</time>
      </trkpt>
      <trkpt lat="43.78785" lon="2.33679">
        <ele>413.98</ele>
        <time>2011-12-04T09:03:54Z</time>
      </trkpt>
      <trkpt lat="43.78773" lon="2.33671">
        <ele>414.47</ele>
        <time>2011-12-04T09:04:10Z</time>
      </trkpt>
      <trkpt lat="43.78771" lon="2.33671">
        <ele>413.5</ele>
        <time>2011-12-04T09:04:15Z</time>
      </trkpt>
      <trkpt lat="43.78748" lon="2.33667">
        <ele>413.5</ele>
        <time>2011-12-04T09:04:31Z</time>
      </trkpt>
      <trkpt lat="43.78729" lon="2.33667">
        <ele>415.91</ele>
        <time>2011-12-04T09:04:45Z</time>
      </trkpt>
      <trkpt lat="43.78708" lon="2.33669">
        <ele>418.79</ele>
        <time>2011-12-04T09:05:01Z</time>
      </trkpt>
      <trkpt lat="43.78688" lon="2.33676">
        <ele>419.75</ele>
        <time>2011-12-04T09:05:16Z</time>
      </trkpt>
      <trkpt lat="43.78677" lon="2.33684">
        <ele>420.71</ele>
        <time>2011-12-04T09:05:28Z</time>
      </trkpt>
      <trkpt lat="43.78658" lon="2.337">
        <ele>420.71</ele>
        <time>2011-12-04T09:05:46Z</time>
      </trkpt>
      <trkpt lat="43.7865" lon="2.33709">
        <ele>420.71</ele>
        <time>2011-12-04T09:06:01Z</time>
      </trkpt>
      <trkpt lat="43.78646" lon="2.33713">
        <ele>420.71</ele>
        <time>2011-12-04T09:06:15Z</time>
      </trkpt>
      <trkpt lat="43.78636" lon="2.33723">
        <ele>419.75</ele>
        <time>2011-12-04T09:06:27Z</time>
      </trkpt>
      <trkpt lat="43.78624" lon="2.33742">
        <ele>420.23</ele>
        <time>2011-12-04T09:06:44Z</time>
      </trkpt>
      <trkpt lat="43.78613" lon="2.33759">
        <ele>422.64</ele>
        <time>2011-12-04T09:06:58Z</time>
      </trkpt>
      <trkpt lat="43.78603" lon="2.33774">
        <ele>422.64</ele>
        <time>2011-12-04T09:07:11Z</time>
      </trkpt>
      <trkpt lat="43.78591" lon="2.33791">
        <ele>422.64</ele>
        <time>2011-12-04T09:07:27Z</time>
      </trkpt>
      <trkpt lat="43.78581" lon="2.33806">
        <ele>423.6</ele>
        <time>2011-12-04T09:07:41Z</time>
      </trkpt>
      <trkpt lat="43.78577" lon="2.33811">
        <ele>423.6</ele>
        <time>2011-12-04T09:07:46Z</time>
      </trkpt>
      <trkpt lat="43.78569" lon="2.33828">
        <ele>423.6</ele>
        <time>2011-12-04T09:08:01Z</time>
      </trkpt>
      <trkpt lat="43.78554" lon="2.33839">
        <ele>426</ele>
        <time>2011-12-04T09:08:13Z</time>
      </trkpt>
      <trkpt lat="43.78552" lon="2.33847">
        <ele>426</ele>
        <time>2011-12-04T09:08:29Z</time>
      </trkpt>
      <trkpt lat="43.78552" lon="2.33845">
        <ele>426</ele>
        <time>2011-12-04T09:08:50Z</time>
      </trkpt>
      <trkpt lat="43.78553" lon="2.33831">
        <ele>425.52</ele>
        <time>2011-12-04T09:08:58Z</time>
      </trkpt>
      <trkpt lat="43.78561" lon="2.33817">
        <ele>426</ele>
        <time>2011-12-04T09:09:12Z</time>
      </trkpt>
      <trkpt lat="43.78557" lon="2.33828">
        <ele>426.48</ele>
        <time>2011-12-04T09:10:08Z</time>
      </trkpt>
      <trkpt lat="43.78556" lon="2.3385">
        <ele>426.48</ele>
        <time>2011-12-04T09:10:23Z</time>
      </trkpt>
      <trkpt lat="43.78554" lon="2.33853">
        <ele>427.44</ele>
        <time>2011-12-04T09:10:43Z</time>
      </trkpt>
      <trkpt lat="43.78545" lon="2.3386">
        <ele>429.37</ele>
        <time>2011-12-04T09:11:42Z</time>
      </trkpt>
      <trkpt lat="43.78536" lon="2.3387">
        <ele>430.33</ele>
        <time>2011-12-04T09:11:57Z</time>
      </trkpt>
      <trkpt lat="43.78536" lon="2.33871">
        <ele>430.33</ele>
        <time>2011-12-04T09:12:03Z</time>
      </trkpt>
      <trkpt lat="43.78534" lon="2.33875">
        <ele>429.37</ele>
        <time>2011-12-04T09:12:06Z</time>
      </trkpt>
      <trkpt lat="43.7853" lon="2.33887">
        <ele>429.37</ele>
        <time>2011-12-04T09:12:19Z</time>
      </trkpt>
      <trkpt lat="43.78525" lon="2.33896">
        <ele>429.85</ele>
        <time>2011-12-04T09:12:45Z</time>
      </trkpt>
      <trkpt lat="43.78521" lon="2.33902">
        <ele>431.77</ele>
        <time>2011-12-04T09:12:58Z</time>
      </trkpt>
      <trkpt lat="43.78521" lon="2.33908">
        <ele>432.25</ele>
        <time>2011-12-04T09:13:34Z</time>
      </trkpt>
      <trkpt lat="43.7851" lon="2.33916">
        <ele>435.13</ele>
        <time>2011-12-04T09:13:49Z</time>
      </trkpt>
      <trkpt lat="43.78492" lon="2.33932">
        <ele>437.54</ele>
        <time>2011-12-04T09:14:04Z</time>
      </trkpt>
      <trkpt lat="43.78487" lon="2.33944">
        <ele>441.38</ele>
        <time>2011-12-04T09:14:11Z</time>
      </trkpt>
      <trkpt lat="43.78477" lon="2.33964">
        <ele>441.38</ele>
        <time>2011-12-04T09:14:24Z</time>
      </trkpt>
      <trkpt lat="43.78473" lon="2.33971">
        <ele>441.38</ele>
        <time>2011-12-04T09:14:29Z</time>
      </trkpt>
      <trkpt lat="43.78473" lon="2.3398">
        <ele>441.86</ele>
        <time>2011-12-04T09:14:34Z</time>
      </trkpt>
      <trkpt lat="43.78476" lon="2.3399">
        <ele>443.79</ele>
        <time>2011-12-04T09:14:40Z</time>
      </trkpt>
      <trkpt lat="43.78494" lon="2.33992">
        <ele>447.15</ele>
        <time>2011-12-04T09:14:54Z</time>
      </trkpt>
      <trkpt lat="43.78514" lon="2.33988">
        <ele>447.63</ele>
        <time>2011-12-04T09:15:09Z</time>
      </trkpt>
      <trkpt lat="43.78521" lon="2.33988">
        <ele>448.11</ele>
        <time>2011-12-04T09:15:14Z</time>
      </trkpt>
      <trkpt lat="43.78529" lon="2.33985">
        <ele>450.03</ele>
        <time>2011-12-04T09:15:20Z</time>
      </trkpt>
      <trkpt lat="43.78548" lon="2.33979">
        <ele>451.48</ele>
        <time>2011-12-04T09:15:36Z</time>
      </trkpt>
      <trkpt lat="43.78564" lon="2.33977">
        <ele>455.8</ele>
        <time>2011-12-04T09:15:49Z</time>
      </trkpt>
      <trkpt lat="43.78581" lon="2.33975">
        <ele>459.65</ele>
        <time>2011-12-04T09:16:04Z</time>
      </trkpt>
      <trkpt lat="43.78598" lon="2.33974">
        <ele>463.97</ele>
        <time>2011-12-04T09:16:17Z</time>
      </trkpt>
      <trkpt lat="43.78612" lon="2.33974">
        <ele>463.97</ele>
        <time>2011-12-04T09:16:30Z</time>
      </trkpt>
      <trkpt lat="43.78626" lon="2.33986">
        <ele>463.01</ele>
        <time>2011-12-04T09:16:44Z</time>
      </trkpt>
      <trkpt lat="43.78635" lon="2.34006">
        <ele>464.45</ele>
        <time>2011-12-04T09:16:57Z</time>
      </trkpt>
      <trkpt lat="43.78636" lon="2.34015">
        <ele>464.93</ele>
        <time>2011-12-04T09:17:02Z</time>
      </trkpt>
      <trkpt lat="43.78641" lon="2.34035">
        <ele>464.45</ele>
        <time>2011-12-04T09:17:18Z</time>
      </trkpt>
      <trkpt lat="43.78641" lon="2.34049">
        <ele>466.38</ele>
        <time>2011-12-04T09:17:29Z</time>
      </trkpt>
      <trkpt lat="43.78642" lon="2.34068">
        <ele>469.26</ele>
        <time>2011-12-04T09:17:45Z</time>
      </trkpt>
      <trkpt lat="43.78639" lon="2.3408">
        <ele>470.22</ele>
        <time>2011-12-04T09:17:55Z</time>
      </trkpt>
      <trkpt lat="43.78631" lon="2.34099">
        <ele>473.59</ele>
        <time>2011-12-04T09:18:11Z</time>
      </trkpt>
      <trkpt lat="43.78624" lon="2.34119">
        <ele>475.51</ele>
        <time>2011-12-04T09:18:28Z</time>
      </trkpt>
      <trkpt lat="43.78617" lon="2.34136">
        <ele>476.95</ele>
        <time>2011-12-04T09:18:42Z</time>
      </trkpt>
      <trkpt lat="43.78606" lon="2.34153">
        <ele>478.39</ele>
        <time>2011-12-04T09:18:57Z</time>
      </trkpt>
      <trkpt lat="43.78599" lon="2.34171">
        <ele>482.24</ele>
        <time>2011-12-04T09:19:13Z</time>
      </trkpt>
      <trkpt lat="43.78594" lon="2.34188">
        <ele>484.64</ele>
        <time>2011-12-04T09:19:29Z</time>
      </trkpt>
      <trkpt lat="43.7859" lon="2.34196">
        <ele>486.08</ele>
        <time>2011-12-04T09:19:37Z</time>
      </trkpt>
      <trkpt lat="43.78588" lon="2.342">
        <ele>486.56</ele>
        <time>2011-12-04T09:19:40Z</time>
      </trkpt>
      <trkpt lat="43.78583" lon="2.34216">
        <ele>488.97</ele>
        <time>2011-12-04T09:19:53Z</time>
      </trkpt>
      <trkpt lat="43.7858" lon="2.34229">
        <ele>491.37</ele>
        <time>2011-12-04T09:20:04Z</time>
      </trkpt>
      <trkpt lat="43.78577" lon="2.34244">
        <ele>492.33</ele>
        <time>2011-12-04T09:20:16Z</time>
      </trkpt>
      <trkpt lat="43.78575" lon="2.34252">
        <ele>492.81</ele>
        <time>2011-12-04T09:20:22Z</time>
      </trkpt>
      <trkpt lat="43.7857" lon="2.34268">
        <ele>493.77</ele>
        <time>2011-12-04T09:20:36Z</time>
      </trkpt>
      <trkpt lat="43.78565" lon="2.34285">
        <ele>495.7</ele>
        <time>2011-12-04T09:20:50Z</time>
      </trkpt>
      <trkpt lat="43.78557" lon="2.343">
        <ele>498.1</ele>
        <time>2011-12-04T09:21:03Z</time>
      </trkpt>
      <trkpt lat="43.78548" lon="2.34314">
        <ele>501.46</ele>
        <time>2011-12-04T09:21:18Z</time>
      </trkpt>
      <trkpt lat="43.78542" lon="2.34322">
        <ele>502.91</ele>
        <time>2011-12-04T09:21:27Z</time>
      </trkpt>
      <trkpt lat="43.78531" lon="2.3434">
        <ele>505.31</ele>
        <time>2011-12-04T09:21:44Z</time>
      </trkpt>
      <trkpt lat="43.78529" lon="2.34344">
        <ele>505.79</ele>
        <time>2011-12-04T09:21:48Z</time>
      </trkpt>
      <trkpt lat="43.78519" lon="2.34363">
        <ele>509.16</ele>
        <time>2011-12-04T09:22:05Z</time>
      </trkpt>
      <trkpt lat="43.78509" lon="2.3438">
        <ele>511.08</ele>
        <time>2011-12-04T09:22:20Z</time>
      </trkpt>
      <trkpt lat="43.78497" lon="2.34398">
        <ele>513</ele>
        <time>2011-12-04T09:22:36Z</time>
      </trkpt>
      <trkpt lat="43.78487" lon="2.34414">
        <ele>514.44</ele>
        <time>2011-12-04T09:22:51Z</time>
      </trkpt>
      <trkpt lat="43.78474" lon="2.3443">
        <ele>514.44</ele>
        <time>2011-12-04T09:23:07Z</time>
      </trkpt>
      <trkpt lat="43.78457" lon="2.3444">
        <ele>515.4</ele>
        <time>2011-12-04T09:23:23Z</time>
      </trkpt>
      <trkpt lat="43.78438" lon="2.34448">
        <ele>514.92</ele>
        <time>2011-12-04T09:23:41Z</time>
      </trkpt>
      <trkpt lat="43.78422" lon="2.34459">
        <ele>513</ele>
        <time>2011-12-04T09:23:57Z</time>
      </trkpt>
      <trkpt lat="43.7841" lon="2.34468">
        <ele>513</ele>
        <time>2011-12-04T09:24:08Z</time>
      </trkpt>
      <trkpt lat="43.78398" lon="2.3448">
        <ele>513</ele>
        <time>2011-12-04T09:24:21Z</time>
      </trkpt>
      <trkpt lat="43.78392" lon="2.34484">
        <ele>513</ele>
        <time>2011-12-04T09:24:26Z</time>
      </trkpt>
      <trkpt lat="43.7838" lon="2.34504">
        <ele>512.04</ele>
        <time>2011-12-04T09:24:42Z</time>
      </trkpt>
      <trkpt lat="43.78363" lon="2.34516">
        <ele>511.56</ele>
        <time>2011-12-04T09:24:58Z</time>
      </trkpt>
      <trkpt lat="43.78343" lon="2.34516">
        <ele>513.48</ele>
        <time>2011-12-04T09:25:14Z</time>
      </trkpt>
      <trkpt lat="43.78325" lon="2.34511">
        <ele>513.48</ele>
        <time>2011-12-04T09:25:30Z</time>
      </trkpt>
      <trkpt lat="43.78318" lon="2.3451">
        <ele>513.96</ele>
        <time>2011-12-04T09:25:36Z</time>
      </trkpt>
      <trkpt lat="43.78305" lon="2.34506">
        <ele>515.4</ele>
        <time>2011-12-04T09:25:49Z</time>
      </trkpt>
      <trkpt lat="43.78289" lon="2.34502">
        <ele>518.29</ele>
        <time>2011-12-04T09:26:04Z</time>
      </trkpt>
      <trkpt lat="43.78273" lon="2.34498">
        <ele>519.25</ele>
        <time>2011-12-04T09:26:19Z</time>
      </trkpt>
      <trkpt lat="43.78252" lon="2.34492">
        <ele>521.17</ele>
        <time>2011-12-04T09:26:37Z</time>
      </trkpt>
      <trkpt lat="43.78234" lon="2.34493">
        <ele>520.21</ele>
        <time>2011-12-04T09:26:52Z</time>
      </trkpt>
      <trkpt lat="43.78217" lon="2.34507">
        <ele>518.77</ele>
        <time>2011-12-04T09:27:08Z</time>
      </trkpt>
      <trkpt lat="43.78216" lon="2.3451">
        <ele>518.77</ele>
        <time>2011-12-04T09:27:10Z</time>
      </trkpt>
      <trkpt lat="43.78206" lon="2.34527">
        <ele>517.81</ele>
        <time>2011-12-04T09:27:26Z</time>
      </trkpt>
      <trkpt lat="43.78204" lon="2.34526">
        <ele>517.81</ele>
        <time>2011-12-04T09:27:42Z</time>
      </trkpt>
      <trkpt lat="43.78205" lon="2.34526">
        <ele>517.33</ele>
        <time>2011-12-04T09:28:30Z</time>
      </trkpt>
      <trkpt lat="43.78205" lon="2.34526">
        <ele>517.33</ele>
        <time>2011-12-04T09:29:16Z</time>
      </trkpt>
      <trkpt lat="43.78205" lon="2.34526">
        <ele>517.81</ele>
        <time>2011-12-04T09:29:40Z</time>
      </trkpt>
      <trkpt lat="43.78205" lon="2.34526">
        <ele>517.81</ele>
        <time>2011-12-04T09:30:01Z</time>
      </trkpt>
      <trkpt lat="43.78205" lon="2.34527">
        <ele>518.29</ele>
        <time>2011-12-04T09:31:37Z</time>
      </trkpt>
      <trkpt lat="43.78206" lon="2.34528">
        <ele>517.81</ele>
        <time>2011-12-04T09:31:56Z</time>
      </trkpt>
      <trkpt lat="43.78206" lon="2.34528">
        <ele>517.81</ele>
        <time>2011-12-04T09:32:20Z</time>
      </trkpt>
      <trkpt lat="43.78205" lon="2.34527">
        <ele>518.29</ele>
        <time>2011-12-04T09:33:06Z</time>
      </trkpt>
      <trkpt lat="43.78204" lon="2.34522">
        <ele>518.77</ele>
        <time>2011-12-04T09:33:10Z</time>
      </trkpt>
      <trkpt lat="43.78202" lon="2.34513">
        <ele>517.33</ele>
        <time>2011-12-04T09:33:16Z</time>
      </trkpt>
      <trkpt lat="43.78202" lon="2.34504">
        <ele>516.37</ele>
        <time>2011-12-04T09:33:22Z</time>
      </trkpt>
      <trkpt lat="43.78197" lon="2.34483">
        <ele>517.33</ele>
        <time>2011-12-04T09:33:36Z</time>
      </trkpt>
      <trkpt lat="43.78193" lon="2.34467">
        <ele>515.88</ele>
        <time>2011-12-04T09:33:46Z</time>
      </trkpt>
      <trkpt lat="43.78192" lon="2.34438">
        <ele>513.48</ele>
        <time>2011-12-04T09:34:04Z</time>
      </trkpt>
      <trkpt lat="43.78188" lon="2.34414">
        <ele>511.56</ele>
        <time>2011-12-04T09:34:18Z</time>
      </trkpt>
      <trkpt lat="43.78185" lon="2.34395">
        <ele>510.6</ele>
        <time>2011-12-04T09:34:29Z</time>
      </trkpt>
      <trkpt lat="43.78181" lon="2.34389">
        <ele>510.12</ele>
        <time>2011-12-04T09:34:33Z</time>
      </trkpt>
      <trkpt lat="43.7818" lon="2.34384">
        <ele>509.64</ele>
        <time>2011-12-04T09:34:36Z</time>
      </trkpt>
      <trkpt lat="43.78178" lon="2.34369">
        <ele>508.67</ele>
        <time>2011-12-04T09:34:44Z</time>
      </trkpt>
      <trkpt lat="43.78175" lon="2.34341">
        <ele>507.23</ele>
        <time>2011-12-04T09:35:00Z</time>
      </trkpt>
      <trkpt lat="43.78174" lon="2.34334">
        <ele>507.23</ele>
        <time>2011-12-04T09:35:04Z</time>
      </trkpt>
      <trkpt lat="43.78171" lon="2.34323">
        <ele>506.75</ele>
        <time>2011-12-04T09:35:11Z</time>
      </trkpt>
      <trkpt lat="43.78168" lon="2.34309">
        <ele>507.23</ele>
        <time>2011-12-04T09:35:19Z</time>
      </trkpt>
      <trkpt lat="43.78168" lon="2.34298">
        <ele>507.23</ele>
        <time>2011-12-04T09:35:25Z</time>
      </trkpt>
      <trkpt lat="43.78169" lon="2.3427">
        <ele>507.23</ele>
        <time>2011-12-04T09:35:40Z</time>
      </trkpt>
      <trkpt lat="43.78171" lon="2.34241">
        <ele>508.67</ele>
        <time>2011-12-04T09:35:56Z</time>
      </trkpt>
      <trkpt lat="43.78173" lon="2.34212">
        <ele>508.67</ele>
        <time>2011-12-04T09:36:12Z</time>
      </trkpt>
      <trkpt lat="43.78176" lon="2.34195">
        <ele>509.64</ele>
        <time>2011-12-04T09:36:24Z</time>
      </trkpt>
      <trkpt lat="43.78181" lon="2.34169">
        <ele>509.16</ele>
        <time>2011-12-04T09:36:40Z</time>
      </trkpt>
      <trkpt lat="43.78181" lon="2.3416">
        <ele>509.64</ele>
        <time>2011-12-04T09:36:45Z</time>
      </trkpt>
      <trkpt lat="43.78186" lon="2.34142">
        <ele>509.64</ele>
        <time>2011-12-04T09:36:55Z</time>
      </trkpt>
      <trkpt lat="43.78195" lon="2.34117">
        <ele>508.19</ele>
        <time>2011-12-04T09:37:11Z</time>
      </trkpt>
      <trkpt lat="43.78201" lon="2.34092">
        <ele>507.71</ele>
        <time>2011-12-04T09:37:26Z</time>
      </trkpt>
      <trkpt lat="43.7821" lon="2.3407">
        <ele>508.19</ele>
        <time>2011-12-04T09:37:41Z</time>
      </trkpt>
      <trkpt lat="43.78213" lon="2.34061">
        <ele>507.23</ele>
        <time>2011-12-04T09:37:46Z</time>
      </trkpt>
      <trkpt lat="43.78215" lon="2.34058">
        <ele>506.27</ele>
        <time>2011-12-04T09:37:49Z</time>
      </trkpt>
      <trkpt lat="43.78216" lon="2.3405">
        <ele>505.79</ele>
        <time>2011-12-04T09:37:54Z</time>
      </trkpt>
      <trkpt lat="43.78222" lon="2.3403">
        <ele>504.35</ele>
        <time>2011-12-04T09:38:10Z</time>
      </trkpt>
      <trkpt lat="43.78223" lon="2.34026">
        <ele>505.31</ele>
        <time>2011-12-04T09:38:13Z</time>
      </trkpt>
      <trkpt lat="43.78222" lon="2.34022">
        <ele>505.31</ele>
        <time>2011-12-04T09:38:16Z</time>
      </trkpt>
      <trkpt lat="43.78228" lon="2.33995">
        <ele>504.35</ele>
        <time>2011-12-04T09:38:33Z</time>
      </trkpt>
      <trkpt lat="43.7823" lon="2.33973">
        <ele>505.31</ele>
        <time>2011-12-04T09:38:47Z</time>
      </trkpt>
      <trkpt lat="43.78234" lon="2.33947">
        <ele>503.87</ele>
        <time>2011-12-04T09:39:03Z</time>
      </trkpt>
      <trkpt lat="43.78237" lon="2.33923">
        <ele>503.39</ele>
        <time>2011-12-04T09:39:18Z</time>
      </trkpt>
      <trkpt lat="43.78238" lon="2.33915">
        <ele>502.91</ele>
        <time>2011-12-04T09:39:23Z</time>
      </trkpt>
      <trkpt lat="43.78238" lon="2.33895">
        <ele>502.43</ele>
        <time>2011-12-04T09:39:35Z</time>
      </trkpt>
      <trkpt lat="43.78237" lon="2.33874">
        <ele>502.43</ele>
        <time>2011-12-04T09:39:48Z</time>
      </trkpt>
      <trkpt lat="43.78237" lon="2.33849">
        <ele>501.46</ele>
        <time>2011-12-04T09:40:03Z</time>
      </trkpt>
      <trkpt lat="43.78233" lon="2.33823">
        <ele>498.58</ele>
        <time>2011-12-04T09:40:20Z</time>
      </trkpt>
      <trkpt lat="43.78225" lon="2.33799">
        <ele>496.66</ele>
        <time>2011-12-04T09:40:36Z</time>
      </trkpt>
      <trkpt lat="43.78219" lon="2.33784">
        <ele>497.14</ele>
        <time>2011-12-04T09:40:50Z</time>
      </trkpt>
      <trkpt lat="43.78218" lon="2.33783">
        <ele>497.14</ele>
        <time>2011-12-04T09:40:51Z</time>
      </trkpt>
      <trkpt lat="43.78215" lon="2.33779">
        <ele>496.18</ele>
        <time>2011-12-04T09:40:55Z</time>
      </trkpt>
      <trkpt lat="43.78204" lon="2.33756">
        <ele>498.58</ele>
        <time>2011-12-04T09:41:11Z</time>
      </trkpt>
      <trkpt lat="43.78192" lon="2.33736">
        <ele>498.1</ele>
        <time>2011-12-04T09:41:26Z</time>
      </trkpt>
      <trkpt lat="43.78183" lon="2.33723">
        <ele>496.18</ele>
        <time>2011-12-04T09:41:39Z</time>
      </trkpt>
      <trkpt lat="43.78169" lon="2.33703">
        <ele>498.58</ele>
        <time>2011-12-04T09:41:54Z</time>
      </trkpt>
      <trkpt lat="43.78161" lon="2.33686">
        <ele>499.54</ele>
        <time>2011-12-04T09:42:06Z</time>
      </trkpt>
      <trkpt lat="43.78154" lon="2.33677">
        <ele>500.02</ele>
        <time>2011-12-04T09:42:14Z</time>
      </trkpt>
      <trkpt lat="43.78153" lon="2.33675">
        <ele>500.02</ele>
        <time>2011-12-04T09:42:16Z</time>
      </trkpt>
      <trkpt lat="43.78141" lon="2.33657">
        <ele>500.5</ele>
        <time>2011-12-04T09:42:31Z</time>
      </trkpt>
      <trkpt lat="43.78128" lon="2.33636">
        <ele>499.54</ele>
        <time>2011-12-04T09:42:48Z</time>
      </trkpt>
      <trkpt lat="43.78112" lon="2.33618">
        <ele>498.58</ele>
        <time>2011-12-04T09:43:04Z</time>
      </trkpt>
      <trkpt lat="43.781" lon="2.33602">
        <ele>498.1</ele>
        <time>2011-12-04T09:43:17Z</time>
      </trkpt>
      <trkpt lat="43.78086" lon="2.33584">
        <ele>496.66</ele>
        <time>2011-12-04T09:43:32Z</time>
      </trkpt>
      <trkpt lat="43.78074" lon="2.33564">
        <ele>495.22</ele>
        <time>2011-12-04T09:43:47Z</time>
      </trkpt>
      <trkpt lat="43.78067" lon="2.33545">
        <ele>495.22</ele>
        <time>2011-12-04T09:44:01Z</time>
      </trkpt>
      <trkpt lat="43.78059" lon="2.33524">
        <ele>496.66</ele>
        <time>2011-12-04T09:44:16Z</time>
      </trkpt>
      <trkpt lat="43.78054" lon="2.33507">
        <ele>497.14</ele>
        <time>2011-12-04T09:44:29Z</time>
      </trkpt>
      <trkpt lat="43.78053" lon="2.33497">
        <ele>497.14</ele>
        <time>2011-12-04T09:44:34Z</time>
      </trkpt>
      <trkpt lat="43.78049" lon="2.3348">
        <ele>495.7</ele>
        <time>2011-12-04T09:44:44Z</time>
      </trkpt>
      <trkpt lat="43.78046" lon="2.33459">
        <ele>495.22</ele>
        <time>2011-12-04T09:44:59Z</time>
      </trkpt>
      <trkpt lat="43.78046" lon="2.33458">
        <ele>495.22</ele>
        <time>2011-12-04T09:45:01Z</time>
      </trkpt>
      <trkpt lat="43.78046" lon="2.3345">
        <ele>495.7</ele>
        <time>2011-12-04T09:45:05Z</time>
      </trkpt>
      <trkpt lat="43.78043" lon="2.33428">
        <ele>494.74</ele>
        <time>2011-12-04T09:45:18Z</time>
      </trkpt>
      <trkpt lat="43.78042" lon="2.33407">
        <ele>493.77</ele>
        <time>2011-12-04T09:45:30Z</time>
      </trkpt>
      <trkpt lat="43.78039" lon="2.33395">
        <ele>491.85</ele>
        <time>2011-12-04T09:45:38Z</time>
      </trkpt>
      <trkpt lat="43.78036" lon="2.33372">
        <ele>489.45</ele>
        <time>2011-12-04T09:45:52Z</time>
      </trkpt>
      <trkpt lat="43.78034" lon="2.33346">
        <ele>488.49</ele>
        <time>2011-12-04T09:46:08Z</time>
      </trkpt>
      <trkpt lat="43.78033" lon="2.33341">
        <ele>488.49</ele>
        <time>2011-12-04T09:46:12Z</time>
      </trkpt>
      <trkpt lat="43.78033" lon="2.3333">
        <ele>487.53</ele>
        <time>2011-12-04T09:46:18Z</time>
      </trkpt>
      <trkpt lat="43.78031" lon="2.33318">
        <ele>486.56</ele>
        <time>2011-12-04T09:46:33Z</time>
      </trkpt>
      <trkpt lat="43.78029" lon="2.33319">
        <ele>486.56</ele>
        <time>2011-12-04T09:46:48Z</time>
      </trkpt>
      <trkpt lat="43.78029" lon="2.3332">
        <ele>486.56</ele>
        <time>2011-12-04T09:47:15Z</time>
      </trkpt>
      <trkpt lat="43.78029" lon="2.33314">
        <ele>487.05</ele>
        <time>2011-12-04T09:47:43Z</time>
      </trkpt>
      <trkpt lat="43.78027" lon="2.3329">
        <ele>485.6</ele>
        <time>2011-12-04T09:47:59Z</time>
      </trkpt>
      <trkpt lat="43.78025" lon="2.3327">
        <ele>484.64</ele>
        <time>2011-12-04T09:48:13Z</time>
      </trkpt>
      <trkpt lat="43.78024" lon="2.33254">
        <ele>483.2</ele>
        <time>2011-12-04T09:48:27Z</time>
      </trkpt>
      <trkpt lat="43.78023" lon="2.33248">
        <ele>483.2</ele>
        <time>2011-12-04T09:49:02Z</time>
      </trkpt>
      <trkpt lat="43.78025" lon="2.33242">
        <ele>483.2</ele>
        <time>2011-12-04T09:49:08Z</time>
      </trkpt>
      <trkpt lat="43.78025" lon="2.33236">
        <ele>482.24</ele>
        <time>2011-12-04T09:49:13Z</time>
      </trkpt>
      <trkpt lat="43.78023" lon="2.33213">
        <ele>479.84</ele>
        <time>2011-12-04T09:49:27Z</time>
      </trkpt>
      <trkpt lat="43.78021" lon="2.33189">
        <ele>477.91</ele>
        <time>2011-12-04T09:49:42Z</time>
      </trkpt>
      <trkpt lat="43.78013" lon="2.33164">
        <ele>475.03</ele>
        <time>2011-12-04T09:49:59Z</time>
      </trkpt>
      <trkpt lat="43.78003" lon="2.33134">
        <ele>472.14</ele>
        <time>2011-12-04T09:50:17Z</time>
      </trkpt>
      <trkpt lat="43.77995" lon="2.33114">
        <ele>469.74</ele>
        <time>2011-12-04T09:50:31Z</time>
      </trkpt>
      <trkpt lat="43.77987" lon="2.33092">
        <ele>467.82</ele>
        <time>2011-12-04T09:50:47Z</time>
      </trkpt>
      <trkpt lat="43.77978" lon="2.33071">
        <ele>467.82</ele>
        <time>2011-12-04T09:51:01Z</time>
      </trkpt>
      <trkpt lat="43.77966" lon="2.33047">
        <ele>465.9</ele>
        <time>2011-12-04T09:51:18Z</time>
      </trkpt>
      <trkpt lat="43.77953" lon="2.3303">
        <ele>463.49</ele>
        <time>2011-12-04T09:51:33Z</time>
      </trkpt>
      <trkpt lat="43.77948" lon="2.33028">
        <ele>463.01</ele>
        <time>2011-12-04T09:51:38Z</time>
      </trkpt>
      <trkpt lat="43.77945" lon="2.33028">
        <ele>461.09</ele>
        <time>2011-12-04T09:51:51Z</time>
      </trkpt>
      <trkpt lat="43.7793" lon="2.33037">
        <ele>458.21</ele>
        <time>2011-12-04T09:52:04Z</time>
      </trkpt>
      <trkpt lat="43.77928" lon="2.33038">
        <ele>458.21</ele>
        <time>2011-12-04T09:52:06Z</time>
      </trkpt>
      <trkpt lat="43.77911" lon="2.33048">
        <ele>458.21</ele>
        <time>2011-12-04T09:52:22Z</time>
      </trkpt>
      <trkpt lat="43.77898" lon="2.33054">
        <ele>457.72</ele>
        <time>2011-12-04T09:52:34Z</time>
      </trkpt>
      <trkpt lat="43.77894" lon="2.33055">
        <ele>457.72</ele>
        <time>2011-12-04T09:52:38Z</time>
      </trkpt>
      <trkpt lat="43.77876" lon="2.33061">
        <ele>457.72</ele>
        <time>2011-12-04T09:52:53Z</time>
      </trkpt>
      <trkpt lat="43.77858" lon="2.33061">
        <ele>456.28</ele>
        <time>2011-12-04T09:53:07Z</time>
      </trkpt>
      <trkpt lat="43.77843" lon="2.3306">
        <ele>451.96</ele>
        <time>2011-12-04T09:53:21Z</time>
      </trkpt>
      <trkpt lat="43.77831" lon="2.33061">
        <ele>451.48</ele>
        <time>2011-12-04T09:53:34Z</time>
      </trkpt>
      <trkpt lat="43.77814" lon="2.33057">
        <ele>450.03</ele>
        <time>2011-12-04T09:53:48Z</time>
      </trkpt>
      <trkpt lat="43.77798" lon="2.33055">
        <ele>449.07</ele>
        <time>2011-12-04T09:54:02Z</time>
      </trkpt>
      <trkpt lat="43.7778" lon="2.33053">
        <ele>446.67</ele>
        <time>2011-12-04T09:54:17Z</time>
      </trkpt>
      <trkpt lat="43.77763" lon="2.33053">
        <ele>445.23</ele>
        <time>2011-12-04T09:54:32Z</time>
      </trkpt>
      <trkpt lat="43.77744" lon="2.33053">
        <ele>444.27</ele>
        <time>2011-12-04T09:54:47Z</time>
      </trkpt>
      <trkpt lat="43.77727" lon="2.33055">
        <ele>442.82</ele>
        <time>2011-12-04T09:55:01Z</time>
      </trkpt>
      <trkpt lat="43.77707" lon="2.3306">
        <ele>442.34</ele>
        <time>2011-12-04T09:55:17Z</time>
      </trkpt>
      <trkpt lat="43.77691" lon="2.33071">
        <ele>442.34</ele>
        <time>2011-12-04T09:55:29Z</time>
      </trkpt>
      <trkpt lat="43.77687" lon="2.33076">
        <ele>442.34</ele>
        <time>2011-12-04T09:55:33Z</time>
      </trkpt>
      <trkpt lat="43.77683" lon="2.33089">
        <ele>442.34</ele>
        <time>2011-12-04T09:55:40Z</time>
      </trkpt>
      <trkpt lat="43.7768" lon="2.33106">
        <ele>441.38</ele>
        <time>2011-12-04T09:55:50Z</time>
      </trkpt>
      <trkpt lat="43.77679" lon="2.33121">
        <ele>439.46</ele>
        <time>2011-12-04T09:56:00Z</time>
      </trkpt>
      <trkpt lat="43.77673" lon="2.33145">
        <ele>436.58</ele>
        <time>2011-12-04T09:56:14Z</time>
      </trkpt>
      <trkpt lat="43.77669" lon="2.33148">
        <ele>434.65</ele>
        <time>2011-12-04T09:56:29Z</time>
      </trkpt>
      <trkpt lat="43.77668" lon="2.33138">
        <ele>432.25</ele>
        <time>2011-12-04T09:56:41Z</time>
      </trkpt>
      <trkpt lat="43.77672" lon="2.33131">
        <ele>430.81</ele>
        <time>2011-12-04T09:56:55Z</time>
      </trkpt>
      <trkpt lat="43.77667" lon="2.33101">
        <ele>435.61</ele>
        <time>2011-12-04T09:57:11Z</time>
      </trkpt>
      <trkpt lat="43.77665" lon="2.33088">
        <ele>434.17</ele>
        <time>2011-12-04T09:57:24Z</time>
      </trkpt>
      <trkpt lat="43.77661" lon="2.33074">
        <ele>436.1</ele>
        <time>2011-12-04T09:57:41Z</time>
      </trkpt>
      <trkpt lat="43.77659" lon="2.33071">
        <ele>436.58</ele>
        <time>2011-12-04T09:57:57Z</time>
      </trkpt>
      <trkpt lat="43.77647" lon="2.3305">
        <ele>435.13</ele>
        <time>2011-12-04T09:59:54Z</time>
      </trkpt>
      <trkpt lat="43.77635" lon="2.33036">
        <ele>429.37</ele>
        <time>2011-12-04T10:00:08Z</time>
      </trkpt>
      <trkpt lat="43.77621" lon="2.33023">
        <ele>425.04</ele>
        <time>2011-12-04T10:00:22Z</time>
      </trkpt>
      <trkpt lat="43.77606" lon="2.33013">
        <ele>422.64</ele>
        <time>2011-12-04T10:00:35Z</time>
      </trkpt>
      <trkpt lat="43.77593" lon="2.33001">
        <ele>420.71</ele>
        <time>2011-12-04T10:00:49Z</time>
      </trkpt>
      <trkpt lat="43.77579" lon="2.32993">
        <ele>418.79</ele>
        <time>2011-12-04T10:01:03Z</time>
      </trkpt>
      <trkpt lat="43.7756" lon="2.32989">
        <ele>418.79</ele>
        <time>2011-12-04T10:01:17Z</time>
      </trkpt>
      <trkpt lat="43.77542" lon="2.32986">
        <ele>412.54</ele>
        <time>2011-12-04T10:01:33Z</time>
      </trkpt>
      <trkpt lat="43.77541" lon="2.32986">
        <ele>412.06</ele>
        <time>2011-12-04T10:01:34Z</time>
      </trkpt>
      <trkpt lat="43.77529" lon="2.32983">
        <ele>408.22</ele>
        <time>2011-12-04T10:01:51Z</time>
      </trkpt>
      <trkpt lat="43.7753" lon="2.32976">
        <ele>406.29</ele>
        <time>2011-12-04T10:02:00Z</time>
      </trkpt>
      <trkpt lat="43.77529" lon="2.32969">
        <ele>404.85</ele>
        <time>2011-12-04T10:02:06Z</time>
      </trkpt>
      <trkpt lat="43.77531" lon="2.32953">
        <ele>403.41</ele>
        <time>2011-12-04T10:02:20Z</time>
      </trkpt>
      <trkpt lat="43.77533" lon="2.32941">
        <ele>406.29</ele>
        <time>2011-12-04T10:02:33Z</time>
      </trkpt>
      <trkpt lat="43.77532" lon="2.32932">
        <ele>408.22</ele>
        <time>2011-12-04T10:02:48Z</time>
      </trkpt>
      <trkpt lat="43.77532" lon="2.3293">
        <ele>408.7</ele>
        <time>2011-12-04T10:02:55Z</time>
      </trkpt>
      <trkpt lat="43.77531" lon="2.32908">
        <ele>411.58</ele>
        <time>2011-12-04T10:03:10Z</time>
      </trkpt>
      <trkpt lat="43.77533" lon="2.32894">
        <ele>414.47</ele>
        <time>2011-12-04T10:03:22Z</time>
      </trkpt>
      <trkpt lat="43.7753" lon="2.32881">
        <ele>415.91</ele>
        <time>2011-12-04T10:03:32Z</time>
      </trkpt>
      <trkpt lat="43.77528" lon="2.32866">
        <ele>414.95</ele>
        <time>2011-12-04T10:03:45Z</time>
      </trkpt>
      <trkpt lat="43.77519" lon="2.32864">
        <ele>412.54</ele>
        <time>2011-12-04T10:03:58Z</time>
      </trkpt>
      <trkpt lat="43.77512" lon="2.32862">
        <ele>411.1</ele>
        <time>2011-12-04T10:04:12Z</time>
      </trkpt>
      <trkpt lat="43.77508" lon="2.32856">
        <ele>408.7</ele>
        <time>2011-12-04T10:04:24Z</time>
      </trkpt>
      <trkpt lat="43.77503" lon="2.32852">
        <ele>405.81</ele>
        <time>2011-12-04T10:04:36Z</time>
      </trkpt>
      <trkpt lat="43.77495" lon="2.32851">
        <ele>401.49</ele>
        <time>2011-12-04T10:04:49Z</time>
      </trkpt>
      <trkpt lat="43.77485" lon="2.32848">
        <ele>400.05</ele>
        <time>2011-12-04T10:05:03Z</time>
      </trkpt>
      <trkpt lat="43.77484" lon="2.32847">
        <ele>399.57</ele>
        <time>2011-12-04T10:05:21Z</time>
      </trkpt>
      <trkpt lat="43.77486" lon="2.3285">
        <ele>398.6</ele>
        <time>2011-12-04T10:05:33Z</time>
      </trkpt>
      <trkpt lat="43.77486" lon="2.3285">
        <ele>398.6</ele>
        <time>2011-12-04T10:07:15Z</time>
      </trkpt>
      <trkpt lat="43.77485" lon="2.3285">
        <ele>397.64</ele>
        <time>2011-12-04T10:09:25Z</time>
      </trkpt>
      <trkpt lat="43.77479" lon="2.32842">
        <ele>393.8</ele>
        <time>2011-12-04T10:09:39Z</time>
      </trkpt>
      <trkpt lat="43.77478" lon="2.32838">
        <ele>392.84</ele>
        <time>2011-12-04T10:09:43Z</time>
      </trkpt>
      <trkpt lat="43.77471" lon="2.32831">
        <ele>393.8</ele>
        <time>2011-12-04T10:09:51Z</time>
      </trkpt>
      <trkpt lat="43.77463" lon="2.32813">
        <ele>393.32</ele>
        <time>2011-12-04T10:10:06Z</time>
      </trkpt>
      <trkpt lat="43.77462" lon="2.32798">
        <ele>390.91</ele>
        <time>2011-12-04T10:10:19Z</time>
      </trkpt>
      <trkpt lat="43.77465" lon="2.32782">
        <ele>387.07</ele>
        <time>2011-12-04T10:10:32Z</time>
      </trkpt>
      <trkpt lat="43.77466" lon="2.32775">
        <ele>385.63</ele>
        <time>2011-12-04T10:10:37Z</time>
      </trkpt>
      <trkpt lat="43.77463" lon="2.32771">
        <ele>384.66</ele>
        <time>2011-12-04T10:10:41Z</time>
      </trkpt>
      <trkpt lat="43.77463" lon="2.32761">
        <ele>382.26</ele>
        <time>2011-12-04T10:10:49Z</time>
      </trkpt>
      <trkpt lat="43.77463" lon="2.32741">
        <ele>377.45</ele>
        <time>2011-12-04T10:11:04Z</time>
      </trkpt>
      <trkpt lat="43.7747" lon="2.3273">
        <ele>375.05</ele>
        <time>2011-12-04T10:11:17Z</time>
      </trkpt>
      <trkpt lat="43.77472" lon="2.32716">
        <ele>375.05</ele>
        <time>2011-12-04T10:11:25Z</time>
      </trkpt>
      <trkpt lat="43.77473" lon="2.32707">
        <ele>375.05</ele>
        <time>2011-12-04T10:11:30Z</time>
      </trkpt>
      <trkpt lat="43.77472" lon="2.32698">
        <ele>374.57</ele>
        <time>2011-12-04T10:11:36Z</time>
      </trkpt>
      <trkpt lat="43.77468" lon="2.32688">
        <ele>373.61</ele>
        <time>2011-12-04T10:11:50Z</time>
      </trkpt>
      <trkpt lat="43.77465" lon="2.32683">
        <ele>372.17</ele>
        <time>2011-12-04T10:11:58Z</time>
      </trkpt>
      <trkpt lat="43.77461" lon="2.32676">
        <ele>369.28</ele>
        <time>2011-12-04T10:12:11Z</time>
      </trkpt>
      <trkpt lat="43.77457" lon="2.32667">
        <ele>366.88</ele>
        <time>2011-12-04T10:12:25Z</time>
      </trkpt>
      <trkpt lat="43.77457" lon="2.32662">
        <ele>365.44</ele>
        <time>2011-12-04T10:12:28Z</time>
      </trkpt>
      <trkpt lat="43.77455" lon="2.32652">
        <ele>361.59</ele>
        <time>2011-12-04T10:12:45Z</time>
      </trkpt>
      <trkpt lat="43.7745" lon="2.32644">
        <ele>360.15</ele>
        <time>2011-12-04T10:12:57Z</time>
      </trkpt>
      <trkpt lat="43.77449" lon="2.32644">
        <ele>360.15</ele>
        <time>2011-12-04T10:13:12Z</time>
      </trkpt>
      <trkpt lat="43.77448" lon="2.32644">
        <ele>359.67</ele>
        <time>2011-12-04T10:13:22Z</time>
      </trkpt>
      <trkpt lat="43.77448" lon="2.32647">
        <ele>358.71</ele>
        <time>2011-12-04T10:13:44Z</time>
      </trkpt>
      <trkpt lat="43.77447" lon="2.32645">
        <ele>358.23</ele>
        <time>2011-12-04T10:17:59Z</time>
      </trkpt>
      <trkpt lat="43.77449" lon="2.32644">
        <ele>358.23</ele>
        <time>2011-12-04T10:18:16Z</time>
      </trkpt>
      <trkpt lat="43.77449" lon="2.32636">
        <ele>357.75</ele>
        <time>2011-12-04T10:18:31Z</time>
      </trkpt>
      <trkpt lat="43.77446" lon="2.3263">
        <ele>356.31</ele>
        <time>2011-12-04T10:18:44Z</time>
      </trkpt>
      <trkpt lat="43.77443" lon="2.32627">
        <ele>355.83</ele>
        <time>2011-12-04T10:18:52Z</time>
      </trkpt>
      <trkpt lat="43.7744" lon="2.3262">
        <ele>354.86</ele>
        <time>2011-12-04T10:18:57Z</time>
      </trkpt>
      <trkpt lat="43.7744" lon="2.32612">
        <ele>355.34</ele>
        <time>2011-12-04T10:19:14Z</time>
      </trkpt>
      <trkpt lat="43.77441" lon="2.32596">
        <ele>353.42</ele>
        <time>2011-12-04T10:19:29Z</time>
      </trkpt>
      <trkpt lat="43.7744" lon="2.32591">
        <ele>352.46</ele>
        <time>2011-12-04T10:19:45Z</time>
      </trkpt>
      <trkpt lat="43.77437" lon="2.32584">
        <ele>351.02</ele>
        <time>2011-12-04T10:20:03Z</time>
      </trkpt>
      <trkpt lat="43.77429" lon="2.32576">
        <ele>348.13</ele>
        <time>2011-12-04T10:20:18Z</time>
      </trkpt>
      <trkpt lat="43.77423" lon="2.32565">
        <ele>343.81</ele>
        <time>2011-12-04T10:20:31Z</time>
      </trkpt>
      <trkpt lat="43.77422" lon="2.32562">
        <ele>343.33</ele>
        <time>2011-12-04T10:20:36Z</time>
      </trkpt>
      <trkpt lat="43.77419" lon="2.32541">
        <ele>341.89</ele>
        <time>2011-12-04T10:20:53Z</time>
      </trkpt>
      <trkpt lat="43.77417" lon="2.32534">
        <ele>340.92</ele>
        <time>2011-12-04T10:20:57Z</time>
      </trkpt>
      <trkpt lat="43.77416" lon="2.32526">
        <ele>339.48</ele>
        <time>2011-12-04T10:21:16Z</time>
      </trkpt>
      <trkpt lat="43.77415" lon="2.32524">
        <ele>339</ele>
        <time>2011-12-04T10:21:18Z</time>
      </trkpt>
      <trkpt lat="43.77415" lon="2.32511">
        <ele>336.6</ele>
        <time>2011-12-04T10:21:31Z</time>
      </trkpt>
      <trkpt lat="43.77417" lon="2.32506">
        <ele>335.64</ele>
        <time>2011-12-04T10:21:34Z</time>
      </trkpt>
      <trkpt lat="43.77419" lon="2.32491">
        <ele>329.39</ele>
        <time>2011-12-04T10:21:49Z</time>
      </trkpt>
      <trkpt lat="43.77417" lon="2.32484">
        <ele>325.54</ele>
        <time>2011-12-04T10:21:57Z</time>
      </trkpt>
      <trkpt lat="43.77407" lon="2.32464">
        <ele>324.58</ele>
        <time>2011-12-04T10:22:12Z</time>
      </trkpt>
      <trkpt lat="43.77404" lon="2.32453">
        <ele>322.66</ele>
        <time>2011-12-04T10:22:24Z</time>
      </trkpt>
      <trkpt lat="43.77402" lon="2.32441">
        <ele>317.85</ele>
        <time>2011-12-04T10:22:37Z</time>
      </trkpt>
      <trkpt lat="43.774" lon="2.32429">
        <ele>317.85</ele>
        <time>2011-12-04T10:22:51Z</time>
      </trkpt>
      <trkpt lat="43.77398" lon="2.32427">
        <ele>316.89</ele>
        <time>2011-12-04T10:22:54Z</time>
      </trkpt>
      <trkpt lat="43.77394" lon="2.32422">
        <ele>315.93</ele>
        <time>2011-12-04T10:23:12Z</time>
      </trkpt>
      <trkpt lat="43.77391" lon="2.32419">
        <ele>315.45</ele>
        <time>2011-12-04T10:23:35Z</time>
      </trkpt>
      <trkpt lat="43.7739" lon="2.32419">
        <ele>314.49</ele>
        <time>2011-12-04T10:23:55Z</time>
      </trkpt>
      <trkpt lat="43.7739" lon="2.32419">
        <ele>314.01</ele>
        <time>2011-12-04T10:24:32Z</time>
      </trkpt>
      <trkpt lat="43.77388" lon="2.32418">
        <ele>312.57</ele>
        <time>2011-12-04T10:25:26Z</time>
      </trkpt>
      <trkpt lat="43.77388" lon="2.32418">
        <ele>312.57</ele>
        <time>2011-12-04T10:25:31Z</time>
      </trkpt>
      <trkpt lat="43.77385" lon="2.32416">
        <ele>311.6</ele>
        <time>2011-12-04T10:25:38Z</time>
      </trkpt>
      <trkpt lat="43.77379" lon="2.32415">
        <ele>308.72</ele>
        <time>2011-12-04T10:25:52Z</time>
      </trkpt>
      <trkpt lat="43.77368" lon="2.32411">
        <ele>302.95</ele>
        <time>2011-12-04T10:26:06Z</time>
      </trkpt>
      <trkpt lat="43.77358" lon="2.32421">
        <ele>297.18</ele>
        <time>2011-12-04T10:26:21Z</time>
      </trkpt>
      <trkpt lat="43.77357" lon="2.32431">
        <ele>295.74</ele>
        <time>2011-12-04T10:26:28Z</time>
      </trkpt>
      <trkpt lat="43.77357" lon="2.3245">
        <ele>292.86</ele>
        <time>2011-12-04T10:26:43Z</time>
      </trkpt>
      <trkpt lat="43.77357" lon="2.32454">
        <ele>292.86</ele>
        <time>2011-12-04T10:26:46Z</time>
      </trkpt>
      <trkpt lat="43.77356" lon="2.32461">
        <ele>291.42</ele>
        <time>2011-12-04T10:27:01Z</time>
      </trkpt>
      <trkpt lat="43.77355" lon="2.32465">
        <ele>289.49</ele>
        <time>2011-12-04T10:27:24Z</time>
      </trkpt>
      <trkpt lat="43.77355" lon="2.32467">
        <ele>289.49</ele>
        <time>2011-12-04T10:28:13Z</time>
      </trkpt>
      <trkpt lat="43.77355" lon="2.32468">
        <ele>289.01</ele>
        <time>2011-12-04T10:30:06Z</time>
      </trkpt>
      <trkpt lat="43.77353" lon="2.32467">
        <ele>287.57</ele>
        <time>2011-12-04T10:30:09Z</time>
      </trkpt>
      <trkpt lat="43.77339" lon="2.32471">
        <ele>292.38</ele>
        <time>2011-12-04T10:30:24Z</time>
      </trkpt>
      <trkpt lat="43.77334" lon="2.32472">
        <ele>297.18</ele>
        <time>2011-12-04T10:30:43Z</time>
      </trkpt>
      <trkpt lat="43.77335" lon="2.32473">
        <ele>298.63</ele>
        <time>2011-12-04T10:31:34Z</time>
      </trkpt>
      <trkpt lat="43.77335" lon="2.32466">
        <ele>301.99</ele>
        <time>2011-12-04T10:32:02Z</time>
      </trkpt>
      <trkpt lat="43.77335" lon="2.32457">
        <ele>302.95</ele>
        <time>2011-12-04T10:32:09Z</time>
      </trkpt>
      <trkpt lat="43.77335" lon="2.32453">
        <ele>302.95</ele>
        <time>2011-12-04T10:32:12Z</time>
      </trkpt>
      <trkpt lat="43.77332" lon="2.32447">
        <ele>303.43</ele>
        <time>2011-12-04T10:32:17Z</time>
      </trkpt>
      <trkpt lat="43.7733" lon="2.32443">
        <ele>303.43</ele>
        <time>2011-12-04T10:32:20Z</time>
      </trkpt>
      <trkpt lat="43.77327" lon="2.32435">
        <ele>304.88</ele>
        <time>2011-12-04T10:32:26Z</time>
      </trkpt>
      <trkpt lat="43.77315" lon="2.32426">
        <ele>303.91</ele>
        <time>2011-12-04T10:32:43Z</time>
      </trkpt>
      <trkpt lat="43.77309" lon="2.32426">
        <ele>304.88</ele>
        <time>2011-12-04T10:32:59Z</time>
      </trkpt>
      <trkpt lat="43.77301" lon="2.3243">
        <ele>308.72</ele>
        <time>2011-12-04T10:33:22Z</time>
      </trkpt>
      <trkpt lat="43.77296" lon="2.32432">
        <ele>311.6</ele>
        <time>2011-12-04T10:33:34Z</time>
      </trkpt>
      <trkpt lat="43.77295" lon="2.32432">
        <ele>311.6</ele>
        <time>2011-12-04T10:33:40Z</time>
      </trkpt>
      <trkpt lat="43.77295" lon="2.32434">
        <ele>311.6</ele>
        <time>2011-12-04T10:33:42Z</time>
      </trkpt>
      <trkpt lat="43.77292" lon="2.32443">
        <ele>311.12</ele>
        <time>2011-12-04T10:34:02Z</time>
      </trkpt>
      <trkpt lat="43.77283" lon="2.32451">
        <ele>313.53</ele>
        <time>2011-12-04T10:34:18Z</time>
      </trkpt>
      <trkpt lat="43.7728" lon="2.32456">
        <ele>315.93</ele>
        <time>2011-12-04T10:34:28Z</time>
      </trkpt>
      <trkpt lat="43.77272" lon="2.32459">
        <ele>318.33</ele>
        <time>2011-12-04T10:34:54Z</time>
      </trkpt>
      <trkpt lat="43.77264" lon="2.32457">
        <ele>321.7</ele>
        <time>2011-12-04T10:35:06Z</time>
      </trkpt>
      <trkpt lat="43.77259" lon="2.32462">
        <ele>326.5</ele>
        <time>2011-12-04T10:35:18Z</time>
      </trkpt>
      <trkpt lat="43.77251" lon="2.3246">
        <ele>328.91</ele>
        <time>2011-12-04T10:35:32Z</time>
      </trkpt>
      <trkpt lat="43.77252" lon="2.32466">
        <ele>329.39</ele>
        <time>2011-12-04T10:35:52Z</time>
      </trkpt>
      <trkpt lat="43.77252" lon="2.32467">
        <ele>329.39</ele>
        <time>2011-12-04T10:35:54Z</time>
      </trkpt>
      <trkpt lat="43.77253" lon="2.32475">
        <ele>327.95</ele>
        <time>2011-12-04T10:36:02Z</time>
      </trkpt>
      <trkpt lat="43.77253" lon="2.32479">
        <ele>328.43</ele>
        <time>2011-12-04T10:36:11Z</time>
      </trkpt>
      <trkpt lat="43.77252" lon="2.3248">
        <ele>329.39</ele>
        <time>2011-12-04T10:36:14Z</time>
      </trkpt>
      <trkpt lat="43.77252" lon="2.32482">
        <ele>329.87</ele>
        <time>2011-12-04T10:36:16Z</time>
      </trkpt>
      <trkpt lat="43.77254" lon="2.32489">
        <ele>329.39</ele>
        <time>2011-12-04T10:36:21Z</time>
      </trkpt>
      <trkpt lat="43.77256" lon="2.32503">
        <ele>331.79</ele>
        <time>2011-12-04T10:36:37Z</time>
      </trkpt>
      <trkpt lat="43.77257" lon="2.32508">
        <ele>332.75</ele>
        <time>2011-12-04T10:36:49Z</time>
      </trkpt>
      <trkpt lat="43.77263" lon="2.3252">
        <ele>335.64</ele>
        <time>2011-12-04T10:37:04Z</time>
      </trkpt>
      <trkpt lat="43.7727" lon="2.32525">
        <ele>340.44</ele>
        <time>2011-12-04T10:37:18Z</time>
      </trkpt>
      <trkpt lat="43.77275" lon="2.32536">
        <ele>341.41</ele>
        <time>2011-12-04T10:37:33Z</time>
      </trkpt>
      <trkpt lat="43.77276" lon="2.32546">
        <ele>344.77</ele>
        <time>2011-12-04T10:37:48Z</time>
      </trkpt>
      <trkpt lat="43.77277" lon="2.3255">
        <ele>345.25</ele>
        <time>2011-12-04T10:37:53Z</time>
      </trkpt>
      <trkpt lat="43.77277" lon="2.32554">
        <ele>346.69</ele>
        <time>2011-12-04T10:37:57Z</time>
      </trkpt>
      <trkpt lat="43.77277" lon="2.32557">
        <ele>349.1</ele>
        <time>2011-12-04T10:38:35Z</time>
      </trkpt>
      <trkpt lat="43.77281" lon="2.32564">
        <ele>349.1</ele>
        <time>2011-12-04T10:38:48Z</time>
      </trkpt>
      <trkpt lat="43.77286" lon="2.32576">
        <ele>351.5</ele>
        <time>2011-12-04T10:39:03Z</time>
      </trkpt>
      <trkpt lat="43.77292" lon="2.32576">
        <ele>353.9</ele>
        <time>2011-12-04T10:39:25Z</time>
      </trkpt>
      <trkpt lat="43.773" lon="2.32581">
        <ele>356.31</ele>
        <time>2011-12-04T10:39:38Z</time>
      </trkpt>
      <trkpt lat="43.77306" lon="2.32585">
        <ele>356.31</ele>
        <time>2011-12-04T10:39:43Z</time>
      </trkpt>
      <trkpt lat="43.7731" lon="2.32592">
        <ele>357.75</ele>
        <time>2011-12-04T10:40:08Z</time>
      </trkpt>
      <trkpt lat="43.77312" lon="2.32599">
        <ele>359.19</ele>
        <time>2011-12-04T10:40:23Z</time>
      </trkpt>
      <trkpt lat="43.77308" lon="2.32606">
        <ele>360.63</ele>
        <time>2011-12-04T10:40:36Z</time>
      </trkpt>
      <trkpt lat="43.77307" lon="2.3261">
        <ele>361.59</ele>
        <time>2011-12-04T10:40:54Z</time>
      </trkpt>
      <trkpt lat="43.7731" lon="2.32622">
        <ele>363.04</ele>
        <time>2011-12-04T10:41:11Z</time>
      </trkpt>
      <trkpt lat="43.77313" lon="2.32627">
        <ele>364.48</ele>
        <time>2011-12-04T10:41:24Z</time>
      </trkpt>
      <trkpt lat="43.77313" lon="2.32628">
        <ele>364.96</ele>
        <time>2011-12-04T10:42:07Z</time>
      </trkpt>
      <trkpt lat="43.77314" lon="2.32631">
        <ele>366.4</ele>
        <time>2011-12-04T10:45:17Z</time>
      </trkpt>
      <trkpt lat="43.77313" lon="2.32631">
        <ele>366.88</ele>
        <time>2011-12-04T10:46:07Z</time>
      </trkpt>
      <trkpt lat="43.77313" lon="2.32631">
        <ele>367.36</ele>
        <time>2011-12-04T10:47:01Z</time>
      </trkpt>
      <trkpt lat="43.77313" lon="2.32631">
        <ele>367.36</ele>
        <time>2011-12-04T10:48:04Z</time>
      </trkpt>
      <trkpt lat="43.77316" lon="2.32635">
        <ele>366.4</ele>
        <time>2011-12-04T10:48:30Z</time>
      </trkpt>
      <trkpt lat="43.77322" lon="2.32647">
        <ele>364</ele>
        <time>2011-12-04T10:48:46Z</time>
      </trkpt>
      <trkpt lat="43.77324" lon="2.32649">
        <ele>363.04</ele>
        <time>2011-12-04T10:48:53Z</time>
      </trkpt>
      <trkpt lat="43.7734" lon="2.32654">
        <ele>362.07</ele>
        <time>2011-12-04T10:49:08Z</time>
      </trkpt>
      <trkpt lat="43.77353" lon="2.32671">
        <ele>362.07</ele>
        <time>2011-12-04T10:49:24Z</time>
      </trkpt>
      <trkpt lat="43.77358" lon="2.32688">
        <ele>364</ele>
        <time>2011-12-04T10:49:39Z</time>
      </trkpt>
      <trkpt lat="43.77363" lon="2.32702">
        <ele>366.4</ele>
        <time>2011-12-04T10:49:53Z</time>
      </trkpt>
      <trkpt lat="43.7737" lon="2.32712">
        <ele>365.92</ele>
        <time>2011-12-04T10:50:08Z</time>
      </trkpt>
      <trkpt lat="43.77373" lon="2.32718">
        <ele>365.44</ele>
        <time>2011-12-04T10:50:13Z</time>
      </trkpt>
      <trkpt lat="43.77371" lon="2.32727">
        <ele>363.04</ele>
        <time>2011-12-04T10:50:21Z</time>
      </trkpt>
      <trkpt lat="43.77359" lon="2.32739">
        <ele>361.11</ele>
        <time>2011-12-04T10:50:37Z</time>
      </trkpt>
      <trkpt lat="43.77354" lon="2.32752">
        <ele>361.11</ele>
        <time>2011-12-04T10:50:49Z</time>
      </trkpt>
      <trkpt lat="43.77353" lon="2.32767">
        <ele>360.63</ele>
        <time>2011-12-04T10:51:03Z</time>
      </trkpt>
      <trkpt lat="43.77354" lon="2.32781">
        <ele>361.11</ele>
        <time>2011-12-04T10:51:16Z</time>
      </trkpt>
      <trkpt lat="43.77352" lon="2.32802">
        <ele>368.8</ele>
        <time>2011-12-04T10:51:30Z</time>
      </trkpt>
      <trkpt lat="43.77354" lon="2.3282">
        <ele>375.53</ele>
        <time>2011-12-04T10:51:44Z</time>
      </trkpt>
      <trkpt lat="43.77354" lon="2.3283">
        <ele>375.53</ele>
        <time>2011-12-04T10:51:58Z</time>
      </trkpt>
      <trkpt lat="43.77362" lon="2.32842">
        <ele>376.01</ele>
        <time>2011-12-04T10:52:12Z</time>
      </trkpt>
      <trkpt lat="43.77362" lon="2.3285">
        <ele>378.42</ele>
        <time>2011-12-04T10:52:28Z</time>
      </trkpt>
      <trkpt lat="43.77363" lon="2.32858">
        <ele>377.94</ele>
        <time>2011-12-04T10:52:42Z</time>
      </trkpt>
      <trkpt lat="43.77368" lon="2.32869">
        <ele>379.38</ele>
        <time>2011-12-04T10:52:56Z</time>
      </trkpt>
      <trkpt lat="43.77376" lon="2.3288">
        <ele>382.74</ele>
        <time>2011-12-04T10:53:09Z</time>
      </trkpt>
      <trkpt lat="43.77381" lon="2.32888">
        <ele>386.11</ele>
        <time>2011-12-04T10:53:23Z</time>
      </trkpt>
      <trkpt lat="43.77379" lon="2.32889">
        <ele>388.99</ele>
        <time>2011-12-04T10:53:37Z</time>
      </trkpt>
      <trkpt lat="43.77383" lon="2.32898">
        <ele>389.95</ele>
        <time>2011-12-04T10:53:52Z</time>
      </trkpt>
      <trkpt lat="43.77388" lon="2.32906">
        <ele>393.32</ele>
        <time>2011-12-04T10:54:05Z</time>
      </trkpt>
      <trkpt lat="43.77394" lon="2.32916">
        <ele>398.6</ele>
        <time>2011-12-04T10:54:19Z</time>
      </trkpt>
      <trkpt lat="43.77395" lon="2.32919">
        <ele>400.05</ele>
        <time>2011-12-04T10:54:33Z</time>
      </trkpt>
      <trkpt lat="43.77402" lon="2.32926">
        <ele>401.97</ele>
        <time>2011-12-04T10:54:49Z</time>
      </trkpt>
      <trkpt lat="43.7741" lon="2.32935">
        <ele>404.37</ele>
        <time>2011-12-04T10:55:03Z</time>
      </trkpt>
      <trkpt lat="43.7741" lon="2.32942">
        <ele>405.33</ele>
        <time>2011-12-04T10:55:18Z</time>
      </trkpt>
      <trkpt lat="43.77402" lon="2.32945">
        <ele>404.85</ele>
        <time>2011-12-04T10:55:32Z</time>
      </trkpt>
      <trkpt lat="43.77395" lon="2.32947">
        <ele>405.33</ele>
        <time>2011-12-04T10:55:49Z</time>
      </trkpt>
      <trkpt lat="43.77394" lon="2.32947">
        <ele>405.33</ele>
        <time>2011-12-04T10:56:26Z</time>
      </trkpt>
      <trkpt lat="43.77389" lon="2.32947">
        <ele>406.29</ele>
        <time>2011-12-04T10:56:45Z</time>
      </trkpt>
      <trkpt lat="43.77383" lon="2.32949">
        <ele>407.74</ele>
        <time>2011-12-04T10:56:59Z</time>
      </trkpt>
      <trkpt lat="43.77383" lon="2.3296">
        <ele>410.62</ele>
        <time>2011-12-04T10:57:11Z</time>
      </trkpt>
      <trkpt lat="43.77378" lon="2.32969">
        <ele>414.47</ele>
        <time>2011-12-04T10:57:24Z</time>
      </trkpt>
      <trkpt lat="43.77369" lon="2.32967">
        <ele>415.43</ele>
        <time>2011-12-04T10:57:33Z</time>
      </trkpt>
      <trkpt lat="43.77353" lon="2.32969">
        <ele>417.35</ele>
        <time>2011-12-04T10:57:49Z</time>
      </trkpt>
      <trkpt lat="43.7734" lon="2.32969">
        <ele>417.83</ele>
        <time>2011-12-04T10:58:03Z</time>
      </trkpt>
      <trkpt lat="43.77329" lon="2.32976">
        <ele>419.27</ele>
        <time>2011-12-04T10:58:17Z</time>
      </trkpt>
      <trkpt lat="43.77326" lon="2.32976">
        <ele>419.75</ele>
        <time>2011-12-04T10:58:30Z</time>
      </trkpt>
      <trkpt lat="43.77326" lon="2.32976">
        <ele>419.75</ele>
        <time>2011-12-04T10:58:49Z</time>
      </trkpt>
      <trkpt lat="43.77318" lon="2.32975">
        <ele>419.75</ele>
        <time>2011-12-04T10:59:14Z</time>
      </trkpt>
      <trkpt lat="43.77316" lon="2.32974">
        <ele>419.75</ele>
        <time>2011-12-04T10:59:15Z</time>
      </trkpt>
      <trkpt lat="43.77306" lon="2.3297">
        <ele>420.23</ele>
        <time>2011-12-04T10:59:24Z</time>
      </trkpt>
      <trkpt lat="43.77303" lon="2.32971">
        <ele>420.23</ele>
        <time>2011-12-04T10:59:26Z</time>
      </trkpt>
      <trkpt lat="43.77301" lon="2.32969">
        <ele>420.71</ele>
        <time>2011-12-04T10:59:28Z</time>
      </trkpt>
      <trkpt lat="43.77288" lon="2.32968">
        <ele>422.64</ele>
        <time>2011-12-04T10:59:43Z</time>
      </trkpt>
      <trkpt lat="43.77279" lon="2.32972">
        <ele>425.52</ele>
        <time>2011-12-04T10:59:57Z</time>
      </trkpt>
      <trkpt lat="43.77277" lon="2.3298">
        <ele>425.04</ele>
        <time>2011-12-04T11:00:05Z</time>
      </trkpt>
      <trkpt lat="43.77273" lon="2.32998">
        <ele>423.6</ele>
        <time>2011-12-04T11:00:20Z</time>
      </trkpt>
      <trkpt lat="43.7727" lon="2.33002">
        <ele>424.08</ele>
        <time>2011-12-04T11:00:35Z</time>
      </trkpt>
      <trkpt lat="43.77266" lon="2.33001">
        <ele>424.08</ele>
        <time>2011-12-04T11:00:45Z</time>
      </trkpt>
      <trkpt lat="43.77261" lon="2.32999">
        <ele>424.56</ele>
        <time>2011-12-04T11:01:02Z</time>
      </trkpt>
      <trkpt lat="43.77265" lon="2.32995">
        <ele>423.6</ele>
        <time>2011-12-04T11:01:17Z</time>
      </trkpt>
      <trkpt lat="43.77256" lon="2.32993">
        <ele>424.08</ele>
        <time>2011-12-04T11:01:28Z</time>
      </trkpt>
      <trkpt lat="43.77253" lon="2.32992">
        <ele>424.56</ele>
        <time>2011-12-04T11:01:47Z</time>
      </trkpt>
      <trkpt lat="43.77252" lon="2.32992">
        <ele>424.56</ele>
        <time>2011-12-04T11:02:21Z</time>
      </trkpt>
      <trkpt lat="43.77252" lon="2.32993">
        <ele>424.56</ele>
        <time>2011-12-04T11:03:49Z</time>
      </trkpt>
      <trkpt lat="43.77252" lon="2.32992">
        <ele>424.56</ele>
        <time>2011-12-04T11:04:00Z</time>
      </trkpt>
      <trkpt lat="43.77261" lon="2.3298">
        <ele>426</ele>
        <time>2011-12-04T11:04:10Z</time>
      </trkpt>
      <trkpt lat="43.77271" lon="2.32955">
        <ele>426.96</ele>
        <time>2011-12-04T11:04:29Z</time>
      </trkpt>
      <trkpt lat="43.77275" lon="2.32931">
        <ele>427.92</ele>
        <time>2011-12-04T11:04:43Z</time>
      </trkpt>
      <trkpt lat="43.77278" lon="2.32903">
        <ele>426</ele>
        <time>2011-12-04T11:04:58Z</time>
      </trkpt>
      <trkpt lat="43.77279" lon="2.32878">
        <ele>425.04</ele>
        <time>2011-12-04T11:05:13Z</time>
      </trkpt>
      <trkpt lat="43.77269" lon="2.32854">
        <ele>423.6</ele>
        <time>2011-12-04T11:05:29Z</time>
      </trkpt>
      <trkpt lat="43.77253" lon="2.32841">
        <ele>421.19</ele>
        <time>2011-12-04T11:05:43Z</time>
      </trkpt>
      <trkpt lat="43.77249" lon="2.32831">
        <ele>419.75</ele>
        <time>2011-12-04T11:05:51Z</time>
      </trkpt>
      <trkpt lat="43.77248" lon="2.3283">
        <ele>419.75</ele>
        <time>2011-12-04T11:06:08Z</time>
      </trkpt>
      <trkpt lat="43.77229" lon="2.32818">
        <ele>419.27</ele>
        <time>2011-12-04T11:06:23Z</time>
      </trkpt>
      <trkpt lat="43.77211" lon="2.32807">
        <ele>417.83</ele>
        <time>2011-12-04T11:06:38Z</time>
      </trkpt>
      <trkpt lat="43.77207" lon="2.32805">
        <ele>417.35</ele>
        <time>2011-12-04T11:06:41Z</time>
      </trkpt>
      <trkpt lat="43.77191" lon="2.32796">
        <ele>414.95</ele>
        <time>2011-12-04T11:06:54Z</time>
      </trkpt>
      <trkpt lat="43.77169" lon="2.32782">
        <ele>413.02</ele>
        <time>2011-12-04T11:07:11Z</time>
      </trkpt>
      <trkpt lat="43.77153" lon="2.32771">
        <ele>411.58</ele>
        <time>2011-12-04T11:07:26Z</time>
      </trkpt>
      <trkpt lat="43.77139" lon="2.32755">
        <ele>410.62</ele>
        <time>2011-12-04T11:07:40Z</time>
      </trkpt>
      <trkpt lat="43.77123" lon="2.32738">
        <ele>409.66</ele>
        <time>2011-12-04T11:07:56Z</time>
      </trkpt>
      <trkpt lat="43.77108" lon="2.3272">
        <ele>409.66</ele>
        <time>2011-12-04T11:08:11Z</time>
      </trkpt>
      <trkpt lat="43.77091" lon="2.32704">
        <ele>409.18</ele>
        <time>2011-12-04T11:08:25Z</time>
      </trkpt>
      <trkpt lat="43.7707" lon="2.32688">
        <ele>409.66</ele>
        <time>2011-12-04T11:08:41Z</time>
      </trkpt>
      <trkpt lat="43.77054" lon="2.32672">
        <ele>404.37</ele>
        <time>2011-12-04T11:08:57Z</time>
      </trkpt>
      <trkpt lat="43.77043" lon="2.32648">
        <ele>401.97</ele>
        <time>2011-12-04T11:09:13Z</time>
      </trkpt>
      <trkpt lat="43.77036" lon="2.32632">
        <ele>400.53</ele>
        <time>2011-12-04T11:09:24Z</time>
      </trkpt>
      <trkpt lat="43.77025" lon="2.32606">
        <ele>400.53</ele>
        <time>2011-12-04T11:09:40Z</time>
      </trkpt>
      <trkpt lat="43.77016" lon="2.32577">
        <ele>401.01</ele>
        <time>2011-12-04T11:09:56Z</time>
      </trkpt>
      <trkpt lat="43.77009" lon="2.32551">
        <ele>400.05</ele>
        <time>2011-12-04T11:10:10Z</time>
      </trkpt>
      <trkpt lat="43.77004" lon="2.32519">
        <ele>399.57</ele>
        <time>2011-12-04T11:10:25Z</time>
      </trkpt>
      <trkpt lat="43.77005" lon="2.32495">
        <ele>397.16</ele>
        <time>2011-12-04T11:10:39Z</time>
      </trkpt>
      <trkpt lat="43.77002" lon="2.32468">
        <ele>395.24</ele>
        <time>2011-12-04T11:10:55Z</time>
      </trkpt>
      <trkpt lat="43.76997" lon="2.32451">
        <ele>392.36</ele>
        <time>2011-12-04T11:11:05Z</time>
      </trkpt>
      <trkpt lat="43.76987" lon="2.32428">
        <ele>387.07</ele>
        <time>2011-12-04T11:11:21Z</time>
      </trkpt>
      <trkpt lat="43.76982" lon="2.3241">
        <ele>386.11</ele>
        <time>2011-12-04T11:11:31Z</time>
      </trkpt>
      <trkpt lat="43.76981" lon="2.32378">
        <ele>382.74</ele>
        <time>2011-12-04T11:11:47Z</time>
      </trkpt>
      <trkpt lat="43.76981" lon="2.32373">
        <ele>382.26</ele>
        <time>2011-12-04T11:11:50Z</time>
      </trkpt>
      <trkpt lat="43.76981" lon="2.32368">
        <ele>381.78</ele>
        <time>2011-12-04T11:11:53Z</time>
      </trkpt>
      <trkpt lat="43.76977" lon="2.32334">
        <ele>381.3</ele>
        <time>2011-12-04T11:12:11Z</time>
      </trkpt>
      <trkpt lat="43.76976" lon="2.32332">
        <ele>381.3</ele>
        <time>2011-12-04T11:12:12Z</time>
      </trkpt>
      <trkpt lat="43.76967" lon="2.32309">
        <ele>380.34</ele>
        <time>2011-12-04T11:12:28Z</time>
      </trkpt>
      <trkpt lat="43.76957" lon="2.32283">
        <ele>383.22</ele>
        <time>2011-12-04T11:12:42Z</time>
      </trkpt>
      <trkpt lat="43.76948" lon="2.32256">
        <ele>383.22</ele>
        <time>2011-12-04T11:12:59Z</time>
      </trkpt>
      <trkpt lat="43.7694" lon="2.32231">
        <ele>382.74</ele>
        <time>2011-12-04T11:13:12Z</time>
      </trkpt>
      <trkpt lat="43.76923" lon="2.32211">
        <ele>380.34</ele>
        <time>2011-12-04T11:13:28Z</time>
      </trkpt>
      <trkpt lat="43.76911" lon="2.32189">
        <ele>378.42</ele>
        <time>2011-12-04T11:13:43Z</time>
      </trkpt>
      <trkpt lat="43.76898" lon="2.32169">
        <ele>376.01</ele>
        <time>2011-12-04T11:13:58Z</time>
      </trkpt>
      <trkpt lat="43.76886" lon="2.32151">
        <ele>374.09</ele>
        <time>2011-12-04T11:14:11Z</time>
      </trkpt>
      <trkpt lat="43.76875" lon="2.32134">
        <ele>374.09</ele>
        <time>2011-12-04T11:14:24Z</time>
      </trkpt>
      <trkpt lat="43.76862" lon="2.32119">
        <ele>371.21</ele>
        <time>2011-12-04T11:14:36Z</time>
      </trkpt>
      <trkpt lat="43.76846" lon="2.32105">
        <ele>366.4</ele>
        <time>2011-12-04T11:14:50Z</time>
      </trkpt>
      <trkpt lat="43.76841" lon="2.32103">
        <ele>365.44</ele>
        <time>2011-12-04T11:14:54Z</time>
      </trkpt>
      <trkpt lat="43.76822" lon="2.3209">
        <ele>363.04</ele>
        <time>2011-12-04T11:15:09Z</time>
      </trkpt>
      <trkpt lat="43.76814" lon="2.32086">
        <ele>362.07</ele>
        <time>2011-12-04T11:15:15Z</time>
      </trkpt>
      <trkpt lat="43.76794" lon="2.32073">
        <ele>360.63</ele>
        <time>2011-12-04T11:15:31Z</time>
      </trkpt>
      <trkpt lat="43.76788" lon="2.32069">
        <ele>360.15</ele>
        <time>2011-12-04T11:15:35Z</time>
      </trkpt>
      <trkpt lat="43.76782" lon="2.32066">
        <ele>359.67</ele>
        <time>2011-12-04T11:15:41Z</time>
      </trkpt>
      <trkpt lat="43.76766" lon="2.3206">
        <ele>356.79</ele>
        <time>2011-12-04T11:15:52Z</time>
      </trkpt>
      <trkpt lat="43.76764" lon="2.32059">
        <ele>356.31</ele>
        <time>2011-12-04T11:15:54Z</time>
      </trkpt>
      <trkpt lat="43.76747" lon="2.32051">
        <ele>353.42</ele>
        <time>2011-12-04T11:16:09Z</time>
      </trkpt>
      <trkpt lat="43.76745" lon="2.32051">
        <ele>352.94</ele>
        <time>2011-12-04T11:16:10Z</time>
      </trkpt>
      <trkpt lat="43.76732" lon="2.32035">
        <ele>352.94</ele>
        <time>2011-12-04T11:16:24Z</time>
      </trkpt>
      <trkpt lat="43.76728" lon="2.32033">
        <ele>352.46</ele>
        <time>2011-12-04T11:16:44Z</time>
      </trkpt>
      <trkpt lat="43.76727" lon="2.32034">
        <ele>352.46</ele>
        <time>2011-12-04T11:16:45Z</time>
      </trkpt>
      <trkpt lat="43.7671" lon="2.32024">
        <ele>346.69</ele>
        <time>2011-12-04T11:17:00Z</time>
      </trkpt>
      <trkpt lat="43.76708" lon="2.32023">
        <ele>345.73</ele>
        <time>2011-12-04T11:17:02Z</time>
      </trkpt>
      <trkpt lat="43.7669" lon="2.31999">
        <ele>348.62</ele>
        <time>2011-12-04T11:17:18Z</time>
      </trkpt>
      <trkpt lat="43.76673" lon="2.31973">
        <ele>352.46</ele>
        <time>2011-12-04T11:17:35Z</time>
      </trkpt>
      <trkpt lat="43.76662" lon="2.31949">
        <ele>352.46</ele>
        <time>2011-12-04T11:17:49Z</time>
      </trkpt>
      <trkpt lat="43.76659" lon="2.31946">
        <ele>351.98</ele>
        <time>2011-12-04T11:17:52Z</time>
      </trkpt>
      <trkpt lat="43.76647" lon="2.31938">
        <ele>348.62</ele>
        <time>2011-12-04T11:18:01Z</time>
      </trkpt>
      <trkpt lat="43.76628" lon="2.31929">
        <ele>342.85</ele>
        <time>2011-12-04T11:18:16Z</time>
      </trkpt>
      <trkpt lat="43.76618" lon="2.31925">
        <ele>343.33</ele>
        <time>2011-12-04T11:18:23Z</time>
      </trkpt>
      <trkpt lat="43.76615" lon="2.31925">
        <ele>342.37</ele>
        <time>2011-12-04T11:18:26Z</time>
      </trkpt>
      <trkpt lat="43.76599" lon="2.31922">
        <ele>339</ele>
        <time>2011-12-04T11:18:38Z</time>
      </trkpt>
      <trkpt lat="43.76577" lon="2.31907">
        <ele>335.64</ele>
        <time>2011-12-04T11:18:54Z</time>
      </trkpt>
      <trkpt lat="43.76561" lon="2.31889">
        <ele>339.96</ele>
        <time>2011-12-04T11:19:09Z</time>
      </trkpt>
      <trkpt lat="43.76554" lon="2.31877">
        <ele>342.85</ele>
        <time>2011-12-04T11:19:17Z</time>
      </trkpt>
      <trkpt lat="43.76547" lon="2.31858">
        <ele>343.33</ele>
        <time>2011-12-04T11:19:28Z</time>
      </trkpt>
      <trkpt lat="43.76542" lon="2.3183">
        <ele>344.29</ele>
        <time>2011-12-04T11:19:42Z</time>
      </trkpt>
      <trkpt lat="43.76538" lon="2.31805">
        <ele>338.52</ele>
        <time>2011-12-04T11:19:58Z</time>
      </trkpt>
      <trkpt lat="43.76537" lon="2.31799">
        <ele>336.6</ele>
        <time>2011-12-04T11:20:02Z</time>
      </trkpt>
      <trkpt lat="43.76522" lon="2.31779">
        <ele>330.35</ele>
        <time>2011-12-04T11:20:18Z</time>
      </trkpt>
      <trkpt lat="43.76502" lon="2.31769">
        <ele>324.1</ele>
        <time>2011-12-04T11:20:35Z</time>
      </trkpt>
      <trkpt lat="43.76501" lon="2.31769">
        <ele>324.1</ele>
        <time>2011-12-04T11:20:36Z</time>
      </trkpt>
      <trkpt lat="43.76482" lon="2.31763">
        <ele>320.74</ele>
        <time>2011-12-04T11:20:51Z</time>
      </trkpt>
      <trkpt lat="43.76464" lon="2.31753">
        <ele>317.37</ele>
        <time>2011-12-04T11:21:04Z</time>
      </trkpt>
      <trkpt lat="43.76442" lon="2.31736">
        <ele>324.1</ele>
        <time>2011-12-04T11:21:18Z</time>
      </trkpt>
      <trkpt lat="43.76433" lon="2.31715">
        <ele>327.47</ele>
        <time>2011-12-04T11:21:28Z</time>
      </trkpt>
      <trkpt lat="43.76433" lon="2.31705">
        <ele>326.02</ele>
        <time>2011-12-04T11:21:34Z</time>
      </trkpt>
      <trkpt lat="43.76444" lon="2.31685">
        <ele>327.47</ele>
        <time>2011-12-04T11:21:49Z</time>
      </trkpt>
      <trkpt lat="43.76458" lon="2.31666">
        <ele>326.5</ele>
        <time>2011-12-04T11:22:03Z</time>
      </trkpt>
      <trkpt lat="43.76462" lon="2.3166">
        <ele>325.54</ele>
        <time>2011-12-04T11:22:08Z</time>
      </trkpt>
      <trkpt lat="43.76475" lon="2.31637">
        <ele>324.58</ele>
        <time>2011-12-04T11:22:24Z</time>
      </trkpt>
      <trkpt lat="43.76479" lon="2.31618">
        <ele>323.14</ele>
        <time>2011-12-04T11:22:35Z</time>
      </trkpt>
      <trkpt lat="43.76481" lon="2.31612">
        <ele>322.66</ele>
        <time>2011-12-04T11:22:50Z</time>
      </trkpt>
      <trkpt lat="43.76478" lon="2.31613">
        <ele>321.22</ele>
        <time>2011-12-04T11:23:06Z</time>
      </trkpt>
      <trkpt lat="43.76478" lon="2.31614">
        <ele>320.74</ele>
        <time>2011-12-04T11:24:09Z</time>
      </trkpt>
      <trkpt lat="43.76475" lon="2.31609">
        <ele>320.26</ele>
        <time>2011-12-04T11:24:43Z</time>
      </trkpt>
      <trkpt lat="43.7647" lon="2.31598">
        <ele>319.3</ele>
        <time>2011-12-04T11:24:54Z</time>
      </trkpt>
      <trkpt lat="43.76465" lon="2.31582">
        <ele>319.78</ele>
        <time>2011-12-04T11:25:07Z</time>
      </trkpt>
      <trkpt lat="43.76455" lon="2.31555">
        <ele>314.97</ele>
        <time>2011-12-04T11:25:24Z</time>
      </trkpt>
      <trkpt lat="43.7645" lon="2.31537">
        <ele>311.6</ele>
        <time>2011-12-04T11:25:37Z</time>
      </trkpt>
      <trkpt lat="43.76447" lon="2.31531">
        <ele>310.64</ele>
        <time>2011-12-04T11:25:41Z</time>
      </trkpt>
      <trkpt lat="43.76442" lon="2.31504">
        <ele>308.72</ele>
        <time>2011-12-04T11:25:57Z</time>
      </trkpt>
      <trkpt lat="43.76432" lon="2.31475">
        <ele>308.24</ele>
        <time>2011-12-04T11:26:15Z</time>
      </trkpt>
      <trkpt lat="43.76429" lon="2.31471">
        <ele>307.76</ele>
        <time>2011-12-04T11:26:18Z</time>
      </trkpt>
      <trkpt lat="43.76428" lon="2.31468">
        <ele>307.76</ele>
        <time>2011-12-04T11:26:20Z</time>
      </trkpt>
      <trkpt lat="43.76426" lon="2.31466">
        <ele>307.28</ele>
        <time>2011-12-04T11:26:22Z</time>
      </trkpt>
      <trkpt lat="43.76423" lon="2.31459">
        <ele>306.32</ele>
        <time>2011-12-04T11:26:26Z</time>
      </trkpt>
      <trkpt lat="43.76411" lon="2.31441">
        <ele>305.84</ele>
        <time>2011-12-04T11:26:41Z</time>
      </trkpt>
      <trkpt lat="43.76396" lon="2.31426">
        <ele>304.39</ele>
        <time>2011-12-04T11:26:56Z</time>
      </trkpt>
      <trkpt lat="43.7638" lon="2.3142">
        <ele>302.47</ele>
        <time>2011-12-04T11:27:07Z</time>
      </trkpt>
      <trkpt lat="43.76374" lon="2.31419">
        <ele>301.51</ele>
        <time>2011-12-04T11:27:11Z</time>
      </trkpt>
      <trkpt lat="43.76355" lon="2.31421">
        <ele>298.15</ele>
        <time>2011-12-04T11:27:26Z</time>
      </trkpt>
      <trkpt lat="43.76341" lon="2.31418">
        <ele>297.67</ele>
        <time>2011-12-04T11:27:38Z</time>
      </trkpt>
      <trkpt lat="43.76325" lon="2.31412">
        <ele>296.22</ele>
        <time>2011-12-04T11:27:52Z</time>
      </trkpt>
      <trkpt lat="43.76326" lon="2.31409">
        <ele>295.26</ele>
        <time>2011-12-04T11:27:55Z</time>
      </trkpt>
      <trkpt lat="43.7633" lon="2.31405">
        <ele>293.82</ele>
        <time>2011-12-04T11:28:00Z</time>
      </trkpt>
      <trkpt lat="43.76333" lon="2.31405">
        <ele>293.34</ele>
        <time>2011-12-04T11:28:02Z</time>
      </trkpt>
      <trkpt lat="43.76352" lon="2.31392">
        <ele>291.9</ele>
        <time>2011-12-04T11:28:18Z</time>
      </trkpt>
      <trkpt lat="43.76373" lon="2.31394">
        <ele>295.26</ele>
        <time>2011-12-04T11:28:32Z</time>
      </trkpt>
      <trkpt lat="43.76395" lon="2.31398">
        <ele>293.34</ele>
        <time>2011-12-04T11:28:48Z</time>
      </trkpt>
      <trkpt lat="43.764" lon="2.31402">
        <ele>292.86</ele>
        <time>2011-12-04T11:28:52Z</time>
      </trkpt>
      <trkpt lat="43.76418" lon="2.31417">
        <ele>291.9</ele>
        <time>2011-12-04T11:29:08Z</time>
      </trkpt>
      <trkpt lat="43.76433" lon="2.31432">
        <ele>292.38</ele>
        <time>2011-12-04T11:29:23Z</time>
      </trkpt>
      <trkpt lat="43.76436" lon="2.31433">
        <ele>292.38</ele>
        <time>2011-12-04T11:29:25Z</time>
      </trkpt>
      <trkpt lat="43.76453" lon="2.31454">
        <ele>291.42</ele>
        <time>2011-12-04T11:29:40Z</time>
      </trkpt>
      <trkpt lat="43.7646" lon="2.31461">
        <ele>290.46</ele>
        <time>2011-12-04T11:29:46Z</time>
      </trkpt>
      <trkpt lat="43.76471" lon="2.31486">
        <ele>291.42</ele>
        <time>2011-12-04T11:29:59Z</time>
      </trkpt>
      <trkpt lat="43.76473" lon="2.31497">
        <ele>291.9</ele>
        <time>2011-12-04T11:30:05Z</time>
      </trkpt>
      <trkpt lat="43.76479" lon="2.31516">
        <ele>290.94</ele>
        <time>2011-12-04T11:30:17Z</time>
      </trkpt>
      <trkpt lat="43.76492" lon="2.31542">
        <ele>292.86</ele>
        <time>2011-12-04T11:30:32Z</time>
      </trkpt>
      <trkpt lat="43.76499" lon="2.31556">
        <ele>294.3</ele>
        <time>2011-12-04T11:30:42Z</time>
      </trkpt>
      <trkpt lat="43.76503" lon="2.3156">
        <ele>294.3</ele>
        <time>2011-12-04T11:30:46Z</time>
      </trkpt>
      <trkpt lat="43.76504" lon="2.31565">
        <ele>294.78</ele>
        <time>2011-12-04T11:30:48Z</time>
      </trkpt>
      <trkpt lat="43.76507" lon="2.31571">
        <ele>293.34</ele>
        <time>2011-12-04T11:30:52Z</time>
      </trkpt>
      <trkpt lat="43.7652" lon="2.31595">
        <ele>291.9</ele>
        <time>2011-12-04T11:31:07Z</time>
      </trkpt>
      <trkpt lat="43.76521" lon="2.31597">
        <ele>291.42</ele>
        <time>2011-12-04T11:31:09Z</time>
      </trkpt>
      <trkpt lat="43.76527" lon="2.3161">
        <ele>291.42</ele>
        <time>2011-12-04T11:31:18Z</time>
      </trkpt>
      <trkpt lat="43.76529" lon="2.31619">
        <ele>290.94</ele>
        <time>2011-12-04T11:31:23Z</time>
      </trkpt>
      <trkpt lat="43.76537" lon="2.31634">
        <ele>290.94</ele>
        <time>2011-12-04T11:31:35Z</time>
      </trkpt>
      <trkpt lat="43.76539" lon="2.31636">
        <ele>290.46</ele>
        <time>2011-12-04T11:31:37Z</time>
      </trkpt>
      <trkpt lat="43.76554" lon="2.31655">
        <ele>288.53</ele>
        <time>2011-12-04T11:31:54Z</time>
      </trkpt>
      <trkpt lat="43.76564" lon="2.31665">
        <ele>288.53</ele>
        <time>2011-12-04T11:32:05Z</time>
      </trkpt>
      <trkpt lat="43.76587" lon="2.31675">
        <ele>289.97</ele>
        <time>2011-12-04T11:32:20Z</time>
      </trkpt>
      <trkpt lat="43.76601" lon="2.31676">
        <ele>287.09</ele>
        <time>2011-12-04T11:32:36Z</time>
      </trkpt>
      <trkpt lat="43.76614" lon="2.31684">
        <ele>285.65</ele>
        <time>2011-12-04T11:32:53Z</time>
      </trkpt>
      <trkpt lat="43.76632" lon="2.3169">
        <ele>283.73</ele>
        <time>2011-12-04T11:33:08Z</time>
      </trkpt>
      <trkpt lat="43.76635" lon="2.31688">
        <ele>283.25</ele>
        <time>2011-12-04T11:33:10Z</time>
      </trkpt>
      <trkpt lat="43.76641" lon="2.31682">
        <ele>284.21</ele>
        <time>2011-12-04T11:33:15Z</time>
      </trkpt>
      <trkpt lat="43.76646" lon="2.31669">
        <ele>281.32</ele>
        <time>2011-12-04T11:33:29Z</time>
      </trkpt>
      <trkpt lat="43.76649" lon="2.31659">
        <ele>277.96</ele>
        <time>2011-12-04T11:33:42Z</time>
      </trkpt>
      <trkpt lat="43.76653" lon="2.3166">
        <ele>276.52</ele>
        <time>2011-12-04T11:33:52Z</time>
      </trkpt>
      <trkpt lat="43.76668" lon="2.31651">
        <ele>276.04</ele>
        <time>2011-12-04T11:34:08Z</time>
      </trkpt>
      <trkpt lat="43.76672" lon="2.31643">
        <ele>275.07</ele>
        <time>2011-12-04T11:34:15Z</time>
      </trkpt>
      <trkpt lat="43.76674" lon="2.3164">
        <ele>274.59</ele>
        <time>2011-12-04T11:34:17Z</time>
      </trkpt>
      <trkpt lat="43.7668" lon="2.31632">
        <ele>275.07</ele>
        <time>2011-12-04T11:34:23Z</time>
      </trkpt>
      <trkpt lat="43.76691" lon="2.31618">
        <ele>276.04</ele>
        <time>2011-12-04T11:34:37Z</time>
      </trkpt>
      <trkpt lat="43.76692" lon="2.31616">
        <ele>276.04</ele>
        <time>2011-12-04T11:34:39Z</time>
      </trkpt>
      <trkpt lat="43.76698" lon="2.31599">
        <ele>276.04</ele>
        <time>2011-12-04T11:34:54Z</time>
      </trkpt>
      <trkpt lat="43.76687" lon="2.31591">
        <ele>273.15</ele>
        <time>2011-12-04T11:35:03Z</time>
      </trkpt>
      <trkpt lat="43.76683" lon="2.31589">
        <ele>272.67</ele>
        <time>2011-12-04T11:35:06Z</time>
      </trkpt>
      <trkpt lat="43.76665" lon="2.31573">
        <ele>268.35</ele>
        <time>2011-12-04T11:35:23Z</time>
      </trkpt>
      <trkpt lat="43.76657" lon="2.31557">
        <ele>264.02</ele>
        <time>2011-12-04T11:35:37Z</time>
      </trkpt>
      <trkpt lat="43.76648" lon="2.31551">
        <ele>261.62</ele>
        <time>2011-12-04T11:35:51Z</time>
      </trkpt>
      <trkpt lat="43.76646" lon="2.31543">
        <ele>259.21</ele>
        <time>2011-12-04T11:36:04Z</time>
      </trkpt>
      <trkpt lat="43.76643" lon="2.31536">
        <ele>258.73</ele>
        <time>2011-12-04T11:36:08Z</time>
      </trkpt>
      <trkpt lat="43.76629" lon="2.31508">
        <ele>260.17</ele>
        <time>2011-12-04T11:36:25Z</time>
      </trkpt>
      <trkpt lat="43.76621" lon="2.31495">
        <ele>261.14</ele>
        <time>2011-12-04T11:36:37Z</time>
      </trkpt>
      <trkpt lat="43.76619" lon="2.31486">
        <ele>259.21</ele>
        <time>2011-12-04T11:36:42Z</time>
      </trkpt>
      <trkpt lat="43.7661" lon="2.31472">
        <ele>257.29</ele>
        <time>2011-12-04T11:36:59Z</time>
      </trkpt>
      <trkpt lat="43.76609" lon="2.31472">
        <ele>256.33</ele>
        <time>2011-12-04T11:37:03Z</time>
      </trkpt>
      <trkpt lat="43.76607" lon="2.31469">
        <ele>255.85</ele>
        <time>2011-12-04T11:37:28Z</time>
      </trkpt>
      <trkpt lat="43.76601" lon="2.31452">
        <ele>252.96</ele>
        <time>2011-12-04T11:37:43Z</time>
      </trkpt>
      <trkpt lat="43.76592" lon="2.3143">
        <ele>254.41</ele>
        <time>2011-12-04T11:37:57Z</time>
      </trkpt>
      <trkpt lat="43.76578" lon="2.31409">
        <ele>259.21</ele>
        <time>2011-12-04T11:38:13Z</time>
      </trkpt>
      <trkpt lat="43.76568" lon="2.31389">
        <ele>260.65</ele>
        <time>2011-12-04T11:38:27Z</time>
      </trkpt>
      <trkpt lat="43.76557" lon="2.31374">
        <ele>262.58</ele>
        <time>2011-12-04T11:38:39Z</time>
      </trkpt>
      <trkpt lat="43.76543" lon="2.31355">
        <ele>264.5</ele>
        <time>2011-12-04T11:38:55Z</time>
      </trkpt>
      <trkpt lat="43.76533" lon="2.31338">
        <ele>264.02</ele>
        <time>2011-12-04T11:39:09Z</time>
      </trkpt>
      <trkpt lat="43.76532" lon="2.31337">
        <ele>264.02</ele>
        <time>2011-12-04T11:39:10Z</time>
      </trkpt>
      <trkpt lat="43.76516" lon="2.3132">
        <ele>262.1</ele>
        <time>2011-12-04T11:39:26Z</time>
      </trkpt>
      <trkpt lat="43.76501" lon="2.31302">
        <ele>261.62</ele>
        <time>2011-12-04T11:39:42Z</time>
      </trkpt>
      <trkpt lat="43.76487" lon="2.31287">
        <ele>261.14</ele>
        <time>2011-12-04T11:39:57Z</time>
      </trkpt>
      <trkpt lat="43.76478" lon="2.31265">
        <ele>262.58</ele>
        <time>2011-12-04T11:40:12Z</time>
      </trkpt>
      <trkpt lat="43.76467" lon="2.31246">
        <ele>262.58</ele>
        <time>2011-12-04T11:40:26Z</time>
      </trkpt>
      <trkpt lat="43.76466" lon="2.31245">
        <ele>262.58</ele>
        <time>2011-12-04T11:40:27Z</time>
      </trkpt>
      <trkpt lat="43.76464" lon="2.31238">
        <ele>262.1</ele>
        <time>2011-12-04T11:40:33Z</time>
      </trkpt>
      <trkpt lat="43.76462" lon="2.3123">
        <ele>261.62</ele>
        <time>2011-12-04T11:40:38Z</time>
      </trkpt>
      <trkpt lat="43.76453" lon="2.31207">
        <ele>261.14</ele>
        <time>2011-12-04T11:40:55Z</time>
      </trkpt>
      <trkpt lat="43.76451" lon="2.31204">
        <ele>261.14</ele>
        <time>2011-12-04T11:40:57Z</time>
      </trkpt>
      <trkpt lat="43.7644" lon="2.3118">
        <ele>260.65</ele>
        <time>2011-12-04T11:41:13Z</time>
      </trkpt>
      <trkpt lat="43.76439" lon="2.31175">
        <ele>260.65</ele>
        <time>2011-12-04T11:41:17Z</time>
      </trkpt>
      <trkpt lat="43.76429" lon="2.31155">
        <ele>260.65</ele>
        <time>2011-12-04T11:41:32Z</time>
      </trkpt>
      <trkpt lat="43.76426" lon="2.31149">
        <ele>263.06</ele>
        <time>2011-12-04T11:41:36Z</time>
      </trkpt>
      <trkpt lat="43.76423" lon="2.31145">
        <ele>263.54</ele>
        <time>2011-12-04T11:41:40Z</time>
      </trkpt>
      <trkpt lat="43.76414" lon="2.31123">
        <ele>261.62</ele>
        <time>2011-12-04T11:41:56Z</time>
      </trkpt>
      <trkpt lat="43.76414" lon="2.31121">
        <ele>261.62</ele>
        <time>2011-12-04T11:41:57Z</time>
      </trkpt>
      <trkpt lat="43.76414" lon="2.31117">
        <ele>260.65</ele>
        <time>2011-12-04T11:42:00Z</time>
      </trkpt>
      <trkpt lat="43.76413" lon="2.31113">
        <ele>260.17</ele>
        <time>2011-12-04T11:42:03Z</time>
      </trkpt>
      <trkpt lat="43.76407" lon="2.31088">
        <ele>258.25</ele>
        <time>2011-12-04T11:42:19Z</time>
      </trkpt>
      <trkpt lat="43.76409" lon="2.31061">
        <ele>258.25</ele>
        <time>2011-12-04T11:42:34Z</time>
      </trkpt>
      <trkpt lat="43.7641" lon="2.31052">
        <ele>257.77</ele>
        <time>2011-12-04T11:42:39Z</time>
      </trkpt>
      <trkpt lat="43.7641" lon="2.3104">
        <ele>257.29</ele>
        <time>2011-12-04T11:42:46Z</time>
      </trkpt>
      <trkpt lat="43.76412" lon="2.31015">
        <ele>254.89</ele>
        <time>2011-12-04T11:43:01Z</time>
      </trkpt>
      <trkpt lat="43.76412" lon="2.30991">
        <ele>251.04</ele>
        <time>2011-12-04T11:43:16Z</time>
      </trkpt>
      <trkpt lat="43.76424" lon="2.30975">
        <ele>252</ele>
        <time>2011-12-04T11:43:30Z</time>
      </trkpt>
      <trkpt lat="43.76438" lon="2.30963">
        <ele>255.85</ele>
        <time>2011-12-04T11:43:43Z</time>
      </trkpt>
      <trkpt lat="43.76449" lon="2.30957">
        <ele>256.33</ele>
        <time>2011-12-04T11:43:53Z</time>
      </trkpt>
      <trkpt lat="43.76454" lon="2.30955">
        <ele>256.33</ele>
        <time>2011-12-04T11:43:59Z</time>
      </trkpt>
      <trkpt lat="43.7646" lon="2.30949">
        <ele>256.33</ele>
        <time>2011-12-04T11:44:07Z</time>
      </trkpt>
      <trkpt lat="43.76472" lon="2.30938">
        <ele>254.89</ele>
        <time>2011-12-04T11:44:21Z</time>
      </trkpt>
      <trkpt lat="43.76475" lon="2.30936">
        <ele>255.37</ele>
        <time>2011-12-04T11:44:24Z</time>
      </trkpt>
      <trkpt lat="43.7648" lon="2.30929">
        <ele>256.81</ele>
        <time>2011-12-04T11:44:30Z</time>
      </trkpt>
      <trkpt lat="43.76495" lon="2.30912">
        <ele>262.1</ele>
        <time>2011-12-04T11:44:44Z</time>
      </trkpt>
      <trkpt lat="43.76496" lon="2.30912">
        <ele>262.1</ele>
        <time>2011-12-04T11:44:45Z</time>
      </trkpt>
      <trkpt lat="43.76501" lon="2.30904">
        <ele>264.02</ele>
        <time>2011-12-04T11:44:51Z</time>
      </trkpt>
      <trkpt lat="43.76511" lon="2.30881">
        <ele>265.94</ele>
        <time>2011-12-04T11:45:07Z</time>
      </trkpt>
      <trkpt lat="43.76522" lon="2.30858">
        <ele>268.35</ele>
        <time>2011-12-04T11:45:22Z</time>
      </trkpt>
      <trkpt lat="43.76529" lon="2.30836">
        <ele>269.79</ele>
        <time>2011-12-04T11:45:35Z</time>
      </trkpt>
      <trkpt lat="43.76533" lon="2.30818">
        <ele>268.35</ele>
        <time>2011-12-04T11:45:47Z</time>
      </trkpt>
      <trkpt lat="43.76535" lon="2.30796">
        <ele>265.46</ele>
        <time>2011-12-04T11:46:02Z</time>
      </trkpt>
      <trkpt lat="43.76542" lon="2.30779">
        <ele>264.5</ele>
        <time>2011-12-04T11:46:15Z</time>
      </trkpt>
      <trkpt lat="43.7655" lon="2.30757">
        <ele>263.54</ele>
        <time>2011-12-04T11:46:29Z</time>
      </trkpt>
      <trkpt lat="43.76553" lon="2.30753">
        <ele>262.58</ele>
        <time>2011-12-04T11:46:32Z</time>
      </trkpt>
      <trkpt lat="43.76555" lon="2.30738">
        <ele>261.14</ele>
        <time>2011-12-04T11:46:42Z</time>
      </trkpt>
      <trkpt lat="43.76556" lon="2.30735">
        <ele>260.65</ele>
        <time>2011-12-04T11:46:44Z</time>
      </trkpt>
      <trkpt lat="43.76562" lon="2.30706">
        <ele>256.33</ele>
        <time>2011-12-04T11:47:02Z</time>
      </trkpt>
      <trkpt lat="43.76565" lon="2.30702">
        <ele>255.37</ele>
        <time>2011-12-04T11:47:05Z</time>
      </trkpt>
      <trkpt lat="43.76569" lon="2.30681">
        <ele>253.93</ele>
        <time>2011-12-04T11:47:19Z</time>
      </trkpt>
      <trkpt lat="43.7657" lon="2.30676">
        <ele>253.44</ele>
        <time>2011-12-04T11:47:22Z</time>
      </trkpt>
      <trkpt lat="43.76573" lon="2.30652">
        <ele>253.44</ele>
        <time>2011-12-04T11:47:37Z</time>
      </trkpt>
      <trkpt lat="43.76574" lon="2.30629">
        <ele>255.85</ele>
        <time>2011-12-04T11:47:51Z</time>
      </trkpt>
      <trkpt lat="43.76576" lon="2.30605">
        <ele>259.21</ele>
        <time>2011-12-04T11:48:06Z</time>
      </trkpt>
      <trkpt lat="43.76577" lon="2.30602">
        <ele>259.69</ele>
        <time>2011-12-04T11:48:08Z</time>
      </trkpt>
      <trkpt lat="43.76576" lon="2.30597">
        <ele>259.69</ele>
        <time>2011-12-04T11:48:11Z</time>
      </trkpt>
      <trkpt lat="43.76577" lon="2.30584">
        <ele>261.62</ele>
        <time>2011-12-04T11:48:20Z</time>
      </trkpt>
      <trkpt lat="43.76576" lon="2.30572">
        <ele>263.06</ele>
        <time>2011-12-04T11:48:27Z</time>
      </trkpt>
      <trkpt lat="43.76575" lon="2.30559">
        <ele>264.02</ele>
        <time>2011-12-04T11:48:36Z</time>
      </trkpt>
      <trkpt lat="43.76574" lon="2.30541">
        <ele>263.54</ele>
        <time>2011-12-04T11:48:50Z</time>
      </trkpt>
      <trkpt lat="43.7657" lon="2.30522">
        <ele>262.1</ele>
        <time>2011-12-04T11:49:04Z</time>
      </trkpt>
      <trkpt lat="43.7656" lon="2.30502">
        <ele>264.02</ele>
        <time>2011-12-04T11:49:19Z</time>
      </trkpt>
      <trkpt lat="43.76553" lon="2.3049">
        <ele>264.5</ele>
        <time>2011-12-04T11:49:29Z</time>
      </trkpt>
      <trkpt lat="43.76551" lon="2.30488">
        <ele>264.98</ele>
        <time>2011-12-04T11:49:31Z</time>
      </trkpt>
      <trkpt lat="43.76544" lon="2.30473">
        <ele>265.46</ele>
        <time>2011-12-04T11:49:45Z</time>
      </trkpt>
      <trkpt lat="43.76531" lon="2.30452">
        <ele>266.9</ele>
        <time>2011-12-04T11:50:03Z</time>
      </trkpt>
      <trkpt lat="43.7652" lon="2.30439">
        <ele>267.38</ele>
        <time>2011-12-04T11:50:16Z</time>
      </trkpt>
      <trkpt lat="43.76503" lon="2.30424">
        <ele>265.46</ele>
        <time>2011-12-04T11:50:31Z</time>
      </trkpt>
      <trkpt lat="43.76488" lon="2.30416">
        <ele>264.5</ele>
        <time>2011-12-04T11:50:44Z</time>
      </trkpt>
      <trkpt lat="43.76473" lon="2.30415">
        <ele>263.06</ele>
        <time>2011-12-04T11:50:57Z</time>
      </trkpt>
      <trkpt lat="43.76455" lon="2.30397">
        <ele>262.58</ele>
        <time>2011-12-04T11:51:16Z</time>
      </trkpt>
      <trkpt lat="43.76454" lon="2.30377">
        <ele>262.1</ele>
        <time>2011-12-04T11:51:29Z</time>
      </trkpt>
      <trkpt lat="43.76451" lon="2.3037">
        <ele>261.62</ele>
        <time>2011-12-04T11:51:40Z</time>
      </trkpt>
      <trkpt lat="43.76451" lon="2.3037">
        <ele>261.14</ele>
        <time>2011-12-04T11:51:55Z</time>
      </trkpt>
      <trkpt lat="43.76452" lon="2.30351">
        <ele>260.65</ele>
        <time>2011-12-04T11:52:06Z</time>
      </trkpt>
      <trkpt lat="43.76452" lon="2.30341">
        <ele>260.17</ele>
        <time>2011-12-04T11:52:13Z</time>
      </trkpt>
      <trkpt lat="43.76451" lon="2.30315">
        <ele>259.21</ele>
        <time>2011-12-04T11:52:29Z</time>
      </trkpt>
      <trkpt lat="43.7645" lon="2.30289">
        <ele>259.21</ele>
        <time>2011-12-04T11:52:44Z</time>
      </trkpt>
      <trkpt lat="43.76448" lon="2.30256">
        <ele>259.21</ele>
        <time>2011-12-04T11:53:01Z</time>
      </trkpt>
      <trkpt lat="43.76449" lon="2.30254">
        <ele>259.21</ele>
        <time>2011-12-04T11:53:02Z</time>
      </trkpt>
      <trkpt lat="43.7645" lon="2.30243">
        <ele>258.73</ele>
        <time>2011-12-04T11:53:08Z</time>
      </trkpt>
      <trkpt lat="43.76449" lon="2.30226">
        <ele>258.25</ele>
        <time>2011-12-04T11:53:18Z</time>
      </trkpt>
      <trkpt lat="43.76448" lon="2.30207">
        <ele>258.25</ele>
        <time>2011-12-04T11:53:31Z</time>
      </trkpt>
      <trkpt lat="43.76443" lon="2.30207">
        <ele>258.25</ele>
        <time>2011-12-04T11:53:34Z</time>
      </trkpt>
      <trkpt lat="43.76436" lon="2.30211">
        <ele>258.73</ele>
        <time>2011-12-04T11:53:48Z</time>
      </trkpt>
      <trkpt lat="43.76436" lon="2.30211">
        <ele>257.77</ele>
        <time>2011-12-04T11:54:00Z</time>
      </trkpt>
      <trkpt lat="43.76437" lon="2.30212">
        <ele>256.81</ele>
        <time>2011-12-04T11:54:31Z</time>
      </trkpt>
      <trkpt lat="43.76438" lon="2.30214">
        <ele>256.33</ele>
        <time>2011-12-04T11:57:38Z</time>
      </trkpt>
      <trkpt lat="43.76438" lon="2.30214">
        <ele>255.85</ele>
        <time>2011-12-04T11:59:01Z</time>
      </trkpt>
      <trkpt lat="43.76439" lon="2.30213">
        <ele>255.85</ele>
        <time>2011-12-04T12:02:31Z</time>
      </trkpt>
      <trkpt lat="43.76439" lon="2.30214">
        <ele>254.89</ele>
        <time>2011-12-04T12:06:22Z</time>
      </trkpt>
      <trkpt lat="43.76439" lon="2.30213">
        <ele>254.89</ele>
        <time>2011-12-04T12:09:04Z</time>
      </trkpt>
      <trkpt lat="43.7644" lon="2.30213">
        <ele>254.41</ele>
        <time>2011-12-04T12:13:01Z</time>
      </trkpt>
      <trkpt lat="43.7644" lon="2.30214">
        <ele>253.44</ele>
        <time>2011-12-04T12:15:00Z</time>
      </trkpt>
      <trkpt lat="43.76441" lon="2.30213">
        <ele>253.93</ele>
        <time>2011-12-04T12:17:32Z</time>
      </trkpt>
      <trkpt lat="43.76441" lon="2.30213">
        <ele>254.89</ele>
        <time>2011-12-04T12:19:55Z</time>
      </trkpt>
      <trkpt lat="43.76441" lon="2.30212">
        <ele>254.89</ele>
        <time>2011-12-04T12:23:06Z</time>
      </trkpt>
      <trkpt lat="43.76442" lon="2.30212">
        <ele>255.85</ele>
        <time>2011-12-04T12:24:18Z</time>
      </trkpt>
      <trkpt lat="43.7644" lon="2.30213">
        <ele>257.29</ele>
        <time>2011-12-04T12:24:35Z</time>
      </trkpt>
      <trkpt lat="43.76442" lon="2.30216">
        <ele>256.33</ele>
        <time>2011-12-04T12:25:31Z</time>
      </trkpt>
      <trkpt lat="43.76442" lon="2.30211">
        <ele>256.33</ele>
        <time>2011-12-04T12:25:52Z</time>
      </trkpt>
      <trkpt lat="43.76442" lon="2.3021">
        <ele>256.81</ele>
        <time>2011-12-04T12:28:00Z</time>
      </trkpt>
      <trkpt lat="43.76448" lon="2.30216">
        <ele>255.85</ele>
        <time>2011-12-04T12:28:09Z</time>
      </trkpt>
      <trkpt lat="43.76447" lon="2.30231">
        <ele>253.93</ele>
        <time>2011-12-04T12:28:18Z</time>
      </trkpt>
      <trkpt lat="43.76446" lon="2.30237">
        <ele>254.41</ele>
        <time>2011-12-04T12:28:21Z</time>
      </trkpt>
      <trkpt lat="43.76446" lon="2.30245">
        <ele>254.89</ele>
        <time>2011-12-04T12:28:26Z</time>
      </trkpt>
      <trkpt lat="43.76444" lon="2.3027">
        <ele>256.81</ele>
        <time>2011-12-04T12:28:42Z</time>
      </trkpt>
      <trkpt lat="43.76445" lon="2.30272">
        <ele>256.81</ele>
        <time>2011-12-04T12:28:43Z</time>
      </trkpt>
      <trkpt lat="43.76445" lon="2.30281">
        <ele>257.29</ele>
        <time>2011-12-04T12:28:49Z</time>
      </trkpt>
      <trkpt lat="43.76447" lon="2.30309">
        <ele>258.73</ele>
        <time>2011-12-04T12:29:06Z</time>
      </trkpt>
      <trkpt lat="43.76449" lon="2.30332">
        <ele>261.62</ele>
        <time>2011-12-04T12:29:21Z</time>
      </trkpt>
      <trkpt lat="43.76451" lon="2.30353">
        <ele>262.1</ele>
        <time>2011-12-04T12:29:36Z</time>
      </trkpt>
      <trkpt lat="43.76451" lon="2.30357">
        <ele>262.1</ele>
        <time>2011-12-04T12:29:39Z</time>
      </trkpt>
      <trkpt lat="43.76451" lon="2.30376">
        <ele>262.58</ele>
        <time>2011-12-04T12:29:51Z</time>
      </trkpt>
      <trkpt lat="43.76455" lon="2.304">
        <ele>265.94</ele>
        <time>2011-12-04T12:30:08Z</time>
      </trkpt>
      <trkpt lat="43.76467" lon="2.30417">
        <ele>267.38</ele>
        <time>2011-12-04T12:30:22Z</time>
      </trkpt>
      <trkpt lat="43.7648" lon="2.30419">
        <ele>269.79</ele>
        <time>2011-12-04T12:30:34Z</time>
      </trkpt>
      <trkpt lat="43.76497" lon="2.30425">
        <ele>271.23</ele>
        <time>2011-12-04T12:30:49Z</time>
      </trkpt>
      <trkpt lat="43.76509" lon="2.30432">
        <ele>271.71</ele>
        <time>2011-12-04T12:31:01Z</time>
      </trkpt>
      <trkpt lat="43.7652" lon="2.30443">
        <ele>271.23</ele>
        <time>2011-12-04T12:31:14Z</time>
      </trkpt>
      <trkpt lat="43.76531" lon="2.30458">
        <ele>271.71</ele>
        <time>2011-12-04T12:31:27Z</time>
      </trkpt>
      <trkpt lat="43.76543" lon="2.30476">
        <ele>269.79</ele>
        <time>2011-12-04T12:31:42Z</time>
      </trkpt>
      <trkpt lat="43.76549" lon="2.30491">
        <ele>269.79</ele>
        <time>2011-12-04T12:31:52Z</time>
      </trkpt>
      <trkpt lat="43.76552" lon="2.30496">
        <ele>269.31</ele>
        <time>2011-12-04T12:31:56Z</time>
      </trkpt>
      <trkpt lat="43.76554" lon="2.30501">
        <ele>268.83</ele>
        <time>2011-12-04T12:31:59Z</time>
      </trkpt>
      <trkpt lat="43.76565" lon="2.30524">
        <ele>266.42</ele>
        <time>2011-12-04T12:32:15Z</time>
      </trkpt>
      <trkpt lat="43.76569" lon="2.30543">
        <ele>265.46</ele>
        <time>2011-12-04T12:32:27Z</time>
      </trkpt>
      <trkpt lat="43.76572" lon="2.30564">
        <ele>263.54</ele>
        <time>2011-12-04T12:32:41Z</time>
      </trkpt>
      <trkpt lat="43.76571" lon="2.30593">
        <ele>263.54</ele>
        <time>2011-12-04T12:32:57Z</time>
      </trkpt>
      <trkpt lat="43.76569" lon="2.30622">
        <ele>260.65</ele>
        <time>2011-12-04T12:33:14Z</time>
      </trkpt>
      <trkpt lat="43.76568" lon="2.30625">
        <ele>260.17</ele>
        <time>2011-12-04T12:33:16Z</time>
      </trkpt>
      <trkpt lat="43.76564" lon="2.30655">
        <ele>258.73</ele>
        <time>2011-12-04T12:33:34Z</time>
      </trkpt>
      <trkpt lat="43.7656" lon="2.3068">
        <ele>258.73</ele>
        <time>2011-12-04T12:33:48Z</time>
      </trkpt>
      <trkpt lat="43.76555" lon="2.30702">
        <ele>259.69</ele>
        <time>2011-12-04T12:34:01Z</time>
      </trkpt>
      <trkpt lat="43.76554" lon="2.3071">
        <ele>259.69</ele>
        <time>2011-12-04T12:34:05Z</time>
      </trkpt>
      <trkpt lat="43.76552" lon="2.30719">
        <ele>259.21</ele>
        <time>2011-12-04T12:34:11Z</time>
      </trkpt>
      <trkpt lat="43.76548" lon="2.30738">
        <ele>259.21</ele>
        <time>2011-12-04T12:34:23Z</time>
      </trkpt>
      <trkpt lat="43.76546" lon="2.30743">
        <ele>259.21</ele>
        <time>2011-12-04T12:34:26Z</time>
      </trkpt>
      <trkpt lat="43.76545" lon="2.30748">
        <ele>258.25</ele>
        <time>2011-12-04T12:34:29Z</time>
      </trkpt>
      <trkpt lat="43.76539" lon="2.30775">
        <ele>256.81</ele>
        <time>2011-12-04T12:34:46Z</time>
      </trkpt>
      <trkpt lat="43.76534" lon="2.30802">
        <ele>259.21</ele>
        <time>2011-12-04T12:35:02Z</time>
      </trkpt>
      <trkpt lat="43.76527" lon="2.3083">
        <ele>258.73</ele>
        <time>2011-12-04T12:35:20Z</time>
      </trkpt>
      <trkpt lat="43.76521" lon="2.30851">
        <ele>259.21</ele>
        <time>2011-12-04T12:35:35Z</time>
      </trkpt>
      <trkpt lat="43.76523" lon="2.3086">
        <ele>260.65</ele>
        <time>2011-12-04T12:35:47Z</time>
      </trkpt>
      <trkpt lat="43.76524" lon="2.30862">
        <ele>261.14</ele>
        <time>2011-12-04T12:36:18Z</time>
      </trkpt>
      <trkpt lat="43.76534" lon="2.3087">
        <ele>263.06</ele>
        <time>2011-12-04T12:36:33Z</time>
      </trkpt>
      <trkpt lat="43.76541" lon="2.30878">
        <ele>265.46</ele>
        <time>2011-12-04T12:36:47Z</time>
      </trkpt>
      <trkpt lat="43.76548" lon="2.30883">
        <ele>266.9</ele>
        <time>2011-12-04T12:36:59Z</time>
      </trkpt>
      <trkpt lat="43.7656" lon="2.30891">
        <ele>267.86</ele>
        <time>2011-12-04T12:37:17Z</time>
      </trkpt>
      <trkpt lat="43.76567" lon="2.30891">
        <ele>271.71</ele>
        <time>2011-12-04T12:37:33Z</time>
      </trkpt>
      <trkpt lat="43.76575" lon="2.30894">
        <ele>275.07</ele>
        <time>2011-12-04T12:37:48Z</time>
      </trkpt>
      <trkpt lat="43.76576" lon="2.30894">
        <ele>276.04</ele>
        <time>2011-12-04T12:37:52Z</time>
      </trkpt>
      <trkpt lat="43.76582" lon="2.30898">
        <ele>276.52</ele>
        <time>2011-12-04T12:37:59Z</time>
      </trkpt>
      <trkpt lat="43.76592" lon="2.30909">
        <ele>276.52</ele>
        <time>2011-12-04T12:38:16Z</time>
      </trkpt>
      <trkpt lat="43.76597" lon="2.30919">
        <ele>279.88</ele>
        <time>2011-12-04T12:38:32Z</time>
      </trkpt>
      <trkpt lat="43.76597" lon="2.30925">
        <ele>280.84</ele>
        <time>2011-12-04T12:38:45Z</time>
      </trkpt>
      <trkpt lat="43.76588" lon="2.30935">
        <ele>283.73</ele>
        <time>2011-12-04T12:38:59Z</time>
      </trkpt>
      <trkpt lat="43.76579" lon="2.30945">
        <ele>283.25</ele>
        <time>2011-12-04T12:39:13Z</time>
      </trkpt>
      <trkpt lat="43.7657" lon="2.30953">
        <ele>284.21</ele>
        <time>2011-12-04T12:39:27Z</time>
      </trkpt>
      <trkpt lat="43.7656" lon="2.30961">
        <ele>286.61</ele>
        <time>2011-12-04T12:39:41Z</time>
      </trkpt>
      <trkpt lat="43.76555" lon="2.30967">
        <ele>288.05</ele>
        <time>2011-12-04T12:39:50Z</time>
      </trkpt>
      <trkpt lat="43.76546" lon="2.30979">
        <ele>289.49</ele>
        <time>2011-12-04T12:40:04Z</time>
      </trkpt>
      <trkpt lat="43.76535" lon="2.30993">
        <ele>290.94</ele>
        <time>2011-12-04T12:40:21Z</time>
      </trkpt>
      <trkpt lat="43.76526" lon="2.31006">
        <ele>291.42</ele>
        <time>2011-12-04T12:40:35Z</time>
      </trkpt>
      <trkpt lat="43.76526" lon="2.31017">
        <ele>294.3</ele>
        <time>2011-12-04T12:40:50Z</time>
      </trkpt>
      <trkpt lat="43.76531" lon="2.31017">
        <ele>295.26</ele>
        <time>2011-12-04T12:40:55Z</time>
      </trkpt>
      <trkpt lat="43.76537" lon="2.31014">
        <ele>296.7</ele>
        <time>2011-12-04T12:41:01Z</time>
      </trkpt>
      <trkpt lat="43.76542" lon="2.31014">
        <ele>297.67</ele>
        <time>2011-12-04T12:41:07Z</time>
      </trkpt>
      <trkpt lat="43.76555" lon="2.31013">
        <ele>298.63</ele>
        <time>2011-12-04T12:41:23Z</time>
      </trkpt>
      <trkpt lat="43.76562" lon="2.31011">
        <ele>298.63</ele>
        <time>2011-12-04T12:41:33Z</time>
      </trkpt>
      <trkpt lat="43.76564" lon="2.3101">
        <ele>299.11</ele>
        <time>2011-12-04T12:41:39Z</time>
      </trkpt>
      <trkpt lat="43.76583" lon="2.31003">
        <ele>298.63</ele>
        <time>2011-12-04T12:41:57Z</time>
      </trkpt>
      <trkpt lat="43.76596" lon="2.30995">
        <ele>295.26</ele>
        <time>2011-12-04T12:42:11Z</time>
      </trkpt>
      <trkpt lat="43.76598" lon="2.30994">
        <ele>295.26</ele>
        <time>2011-12-04T12:42:17Z</time>
      </trkpt>
      <trkpt lat="43.76614" lon="2.30988">
        <ele>296.22</ele>
        <time>2011-12-04T12:42:31Z</time>
      </trkpt>
      <trkpt lat="43.76632" lon="2.30981">
        <ele>298.63</ele>
        <time>2011-12-04T12:42:44Z</time>
      </trkpt>
      <trkpt lat="43.76647" lon="2.30975">
        <ele>299.11</ele>
        <time>2011-12-04T12:42:59Z</time>
      </trkpt>
      <trkpt lat="43.76655" lon="2.30973">
        <ele>299.11</ele>
        <time>2011-12-04T12:43:04Z</time>
      </trkpt>
      <trkpt lat="43.76668" lon="2.30961">
        <ele>298.63</ele>
        <time>2011-12-04T12:43:20Z</time>
      </trkpt>
      <trkpt lat="43.76672" lon="2.30943">
        <ele>298.15</ele>
        <time>2011-12-04T12:43:33Z</time>
      </trkpt>
      <trkpt lat="43.76665" lon="2.3092">
        <ele>299.59</ele>
        <time>2011-12-04T12:43:49Z</time>
      </trkpt>
      <trkpt lat="43.76664" lon="2.30919">
        <ele>299.11</ele>
        <time>2011-12-04T12:43:50Z</time>
      </trkpt>
      <trkpt lat="43.76664" lon="2.30901">
        <ele>296.22</ele>
        <time>2011-12-04T12:44:03Z</time>
      </trkpt>
      <trkpt lat="43.76664" lon="2.30881">
        <ele>293.34</ele>
        <time>2011-12-04T12:44:17Z</time>
      </trkpt>
      <trkpt lat="43.76664" lon="2.3088">
        <ele>293.34</ele>
        <time>2011-12-04T12:44:18Z</time>
      </trkpt>
      <trkpt lat="43.76664" lon="2.30862">
        <ele>292.38</ele>
        <time>2011-12-04T12:44:31Z</time>
      </trkpt>
      <trkpt lat="43.76663" lon="2.30858">
        <ele>291.9</ele>
        <time>2011-12-04T12:44:34Z</time>
      </trkpt>
      <trkpt lat="43.76666" lon="2.30845">
        <ele>289.01</ele>
        <time>2011-12-04T12:44:49Z</time>
      </trkpt>
      <trkpt lat="43.76667" lon="2.30831">
        <ele>287.57</ele>
        <time>2011-12-04T12:45:03Z</time>
      </trkpt>
      <trkpt lat="43.76668" lon="2.30808">
        <ele>291.9</ele>
        <time>2011-12-04T12:45:17Z</time>
      </trkpt>
      <trkpt lat="43.76668" lon="2.30799">
        <ele>293.82</ele>
        <time>2011-12-04T12:45:22Z</time>
      </trkpt>
      <trkpt lat="43.76667" lon="2.30785">
        <ele>296.22</ele>
        <time>2011-12-04T12:45:30Z</time>
      </trkpt>
      <trkpt lat="43.76669" lon="2.30777">
        <ele>296.22</ele>
        <time>2011-12-04T12:45:36Z</time>
      </trkpt>
      <trkpt lat="43.76668" lon="2.30753">
        <ele>296.7</ele>
        <time>2011-12-04T12:45:51Z</time>
      </trkpt>
      <trkpt lat="43.76668" lon="2.30749">
        <ele>297.18</ele>
        <time>2011-12-04T12:45:54Z</time>
      </trkpt>
      <trkpt lat="43.76663" lon="2.30733">
        <ele>296.22</ele>
        <time>2011-12-04T12:46:04Z</time>
      </trkpt>
      <trkpt lat="43.76661" lon="2.30729">
        <ele>296.22</ele>
        <time>2011-12-04T12:46:07Z</time>
      </trkpt>
      <trkpt lat="43.76655" lon="2.30705">
        <ele>295.26</ele>
        <time>2011-12-04T12:46:23Z</time>
      </trkpt>
      <trkpt lat="43.76654" lon="2.30681">
        <ele>296.7</ele>
        <time>2011-12-04T12:46:38Z</time>
      </trkpt>
      <trkpt lat="43.76655" lon="2.30669">
        <ele>297.18</ele>
        <time>2011-12-04T12:46:46Z</time>
      </trkpt>
      <trkpt lat="43.76655" lon="2.30657">
        <ele>297.67</ele>
        <time>2011-12-04T12:46:54Z</time>
      </trkpt>
      <trkpt lat="43.76656" lon="2.30655">
        <ele>298.15</ele>
        <time>2011-12-04T12:46:56Z</time>
      </trkpt>
      <trkpt lat="43.76655" lon="2.30636">
        <ele>299.11</ele>
        <time>2011-12-04T12:47:11Z</time>
      </trkpt>
      <trkpt lat="43.76654" lon="2.30612">
        <ele>301.03</ele>
        <time>2011-12-04T12:47:28Z</time>
      </trkpt>
      <trkpt lat="43.76654" lon="2.3061">
        <ele>301.03</ele>
        <time>2011-12-04T12:47:30Z</time>
      </trkpt>
      <trkpt lat="43.76654" lon="2.30607">
        <ele>301.51</ele>
        <time>2011-12-04T12:47:32Z</time>
      </trkpt>
      <trkpt lat="43.7665" lon="2.30587">
        <ele>301.03</ele>
        <time>2011-12-04T12:47:46Z</time>
      </trkpt>
      <trkpt lat="43.7665" lon="2.3057">
        <ele>302.47</ele>
        <time>2011-12-04T12:48:00Z</time>
      </trkpt>
      <trkpt lat="43.76647" lon="2.30555">
        <ele>303.91</ele>
        <time>2011-12-04T12:48:11Z</time>
      </trkpt>
      <trkpt lat="43.76647" lon="2.30552">
        <ele>303.43</ele>
        <time>2011-12-04T12:48:13Z</time>
      </trkpt>
      <trkpt lat="43.76647" lon="2.30541">
        <ele>303.43</ele>
        <time>2011-12-04T12:48:23Z</time>
      </trkpt>
      <trkpt lat="43.76645" lon="2.30523">
        <ele>303.43</ele>
        <time>2011-12-04T12:48:39Z</time>
      </trkpt>
      <trkpt lat="43.76643" lon="2.30509">
        <ele>303.91</ele>
        <time>2011-12-04T12:48:51Z</time>
      </trkpt>
      <trkpt lat="43.76641" lon="2.30494">
        <ele>304.88</ele>
        <time>2011-12-04T12:49:04Z</time>
      </trkpt>
      <trkpt lat="43.7664" lon="2.30488">
        <ele>304.39</ele>
        <time>2011-12-04T12:49:09Z</time>
      </trkpt>
      <trkpt lat="43.76637" lon="2.3047">
        <ele>304.88</ele>
        <time>2011-12-04T12:49:23Z</time>
      </trkpt>
      <trkpt lat="43.76634" lon="2.30461">
        <ele>305.84</ele>
        <time>2011-12-04T12:49:31Z</time>
      </trkpt>
      <trkpt lat="43.76631" lon="2.30443">
        <ele>306.32</ele>
        <time>2011-12-04T12:49:47Z</time>
      </trkpt>
      <trkpt lat="43.76627" lon="2.30428">
        <ele>309.68</ele>
        <time>2011-12-04T12:50:01Z</time>
      </trkpt>
      <trkpt lat="43.76624" lon="2.30412">
        <ele>311.6</ele>
        <time>2011-12-04T12:50:18Z</time>
      </trkpt>
      <trkpt lat="43.76622" lon="2.30396">
        <ele>313.53</ele>
        <time>2011-12-04T12:50:34Z</time>
      </trkpt>
      <trkpt lat="43.76621" lon="2.30379">
        <ele>315.93</ele>
        <time>2011-12-04T12:50:49Z</time>
      </trkpt>
      <trkpt lat="43.76617" lon="2.3036">
        <ele>317.85</ele>
        <time>2011-12-04T12:51:06Z</time>
      </trkpt>
      <trkpt lat="43.76621" lon="2.30353">
        <ele>318.33</ele>
        <time>2011-12-04T12:51:20Z</time>
      </trkpt>
      <trkpt lat="43.76622" lon="2.30353">
        <ele>318.33</ele>
        <time>2011-12-04T12:52:09Z</time>
      </trkpt>
      <trkpt lat="43.76625" lon="2.30358">
        <ele>320.26</ele>
        <time>2011-12-04T12:52:17Z</time>
      </trkpt>
      <trkpt lat="43.76636" lon="2.30373">
        <ele>325.06</ele>
        <time>2011-12-04T12:52:34Z</time>
      </trkpt>
      <trkpt lat="43.76639" lon="2.30375">
        <ele>326.5</ele>
        <time>2011-12-04T12:52:38Z</time>
      </trkpt>
      <trkpt lat="43.76652" lon="2.30384">
        <ele>330.35</ele>
        <time>2011-12-04T12:52:54Z</time>
      </trkpt>
      <trkpt lat="43.76662" lon="2.30389">
        <ele>335.64</ele>
        <time>2011-12-04T12:53:08Z</time>
      </trkpt>
      <trkpt lat="43.76675" lon="2.30394">
        <ele>340.92</ele>
        <time>2011-12-04T12:53:24Z</time>
      </trkpt>
      <trkpt lat="43.76688" lon="2.30397">
        <ele>345.25</ele>
        <time>2011-12-04T12:53:39Z</time>
      </trkpt>
      <trkpt lat="43.76704" lon="2.30401">
        <ele>348.62</ele>
        <time>2011-12-04T12:53:57Z</time>
      </trkpt>
      <trkpt lat="43.76713" lon="2.30402">
        <ele>349.1</ele>
        <time>2011-12-04T12:54:07Z</time>
      </trkpt>
      <trkpt lat="43.76727" lon="2.304">
        <ele>349.58</ele>
        <time>2011-12-04T12:54:22Z</time>
      </trkpt>
      <trkpt lat="43.76739" lon="2.304">
        <ele>350.54</ele>
        <time>2011-12-04T12:54:35Z</time>
      </trkpt>
      <trkpt lat="43.76751" lon="2.30405">
        <ele>351.5</ele>
        <time>2011-12-04T12:54:50Z</time>
      </trkpt>
      <trkpt lat="43.76763" lon="2.30406">
        <ele>352.46</ele>
        <time>2011-12-04T12:55:04Z</time>
      </trkpt>
      <trkpt lat="43.76774" lon="2.30402">
        <ele>353.42</ele>
        <time>2011-12-04T12:55:16Z</time>
      </trkpt>
      <trkpt lat="43.76785" lon="2.30398">
        <ele>355.83</ele>
        <time>2011-12-04T12:55:31Z</time>
      </trkpt>
      <trkpt lat="43.76798" lon="2.30392">
        <ele>358.23</ele>
        <time>2011-12-04T12:55:44Z</time>
      </trkpt>
      <trkpt lat="43.76809" lon="2.30383">
        <ele>359.19</ele>
        <time>2011-12-04T12:55:59Z</time>
      </trkpt>
      <trkpt lat="43.7682" lon="2.30376">
        <ele>358.23</ele>
        <time>2011-12-04T12:56:12Z</time>
      </trkpt>
      <trkpt lat="43.76832" lon="2.30368">
        <ele>357.27</ele>
        <time>2011-12-04T12:56:27Z</time>
      </trkpt>
      <trkpt lat="43.76843" lon="2.30362">
        <ele>360.63</ele>
        <time>2011-12-04T12:56:42Z</time>
      </trkpt>
      <trkpt lat="43.76845" lon="2.30371">
        <ele>363.52</ele>
        <time>2011-12-04T12:56:55Z</time>
      </trkpt>
      <trkpt lat="43.76839" lon="2.30385">
        <ele>364.48</ele>
        <time>2011-12-04T12:57:11Z</time>
      </trkpt>
      <trkpt lat="43.76836" lon="2.30394">
        <ele>366.4</ele>
        <time>2011-12-04T12:57:20Z</time>
      </trkpt>
      <trkpt lat="43.76832" lon="2.30409">
        <ele>369.28</ele>
        <time>2011-12-04T12:57:34Z</time>
      </trkpt>
      <trkpt lat="43.76829" lon="2.30418">
        <ele>370.73</ele>
        <time>2011-12-04T12:57:42Z</time>
      </trkpt>
      <trkpt lat="43.76826" lon="2.30437">
        <ele>373.61</ele>
        <time>2011-12-04T12:57:58Z</time>
      </trkpt>
      <trkpt lat="43.76826" lon="2.30442">
        <ele>374.09</ele>
        <time>2011-12-04T12:58:02Z</time>
      </trkpt>
      <trkpt lat="43.76827" lon="2.30451">
        <ele>375.05</ele>
        <time>2011-12-04T12:58:09Z</time>
      </trkpt>
      <trkpt lat="43.76834" lon="2.30468">
        <ele>376.97</ele>
        <time>2011-12-04T12:58:24Z</time>
      </trkpt>
      <trkpt lat="43.76835" lon="2.30483">
        <ele>380.34</ele>
        <time>2011-12-04T12:58:38Z</time>
      </trkpt>
      <trkpt lat="43.76833" lon="2.30487">
        <ele>380.34</ele>
        <time>2011-12-04T12:58:43Z</time>
      </trkpt>
      <trkpt lat="43.76823" lon="2.30494">
        <ele>379.86</ele>
        <time>2011-12-04T12:58:55Z</time>
      </trkpt>
      <trkpt lat="43.76811" lon="2.30498">
        <ele>380.82</ele>
        <time>2011-12-04T12:59:09Z</time>
      </trkpt>
      <trkpt lat="43.76806" lon="2.30502">
        <ele>380.82</ele>
        <time>2011-12-04T12:59:15Z</time>
      </trkpt>
      <trkpt lat="43.76794" lon="2.30508">
        <ele>383.22</ele>
        <time>2011-12-04T12:59:30Z</time>
      </trkpt>
      <trkpt lat="43.76784" lon="2.30512">
        <ele>385.63</ele>
        <time>2011-12-04T12:59:43Z</time>
      </trkpt>
      <trkpt lat="43.76773" lon="2.30516">
        <ele>387.07</ele>
        <time>2011-12-04T12:59:56Z</time>
      </trkpt>
      <trkpt lat="43.76764" lon="2.3052">
        <ele>387.07</ele>
        <time>2011-12-04T13:00:08Z</time>
      </trkpt>
      <trkpt lat="43.76756" lon="2.30527">
        <ele>388.03</ele>
        <time>2011-12-04T13:00:20Z</time>
      </trkpt>
      <trkpt lat="43.76754" lon="2.30532">
        <ele>388.03</ele>
        <time>2011-12-04T13:00:26Z</time>
      </trkpt>
      <trkpt lat="43.76752" lon="2.30546">
        <ele>389.95</ele>
        <time>2011-12-04T13:00:39Z</time>
      </trkpt>
      <trkpt lat="43.76759" lon="2.3056">
        <ele>391.87</ele>
        <time>2011-12-04T13:00:55Z</time>
      </trkpt>
      <trkpt lat="43.76756" lon="2.30563">
        <ele>391.87</ele>
        <time>2011-12-04T13:01:09Z</time>
      </trkpt>
      <trkpt lat="43.76754" lon="2.30564">
        <ele>391.39</ele>
        <time>2011-12-04T13:01:12Z</time>
      </trkpt>
      <trkpt lat="43.76756" lon="2.3058">
        <ele>390.91</ele>
        <time>2011-12-04T13:01:25Z</time>
      </trkpt>
      <trkpt lat="43.76757" lon="2.30582">
        <ele>389.47</ele>
        <time>2011-12-04T13:01:41Z</time>
      </trkpt>
      <trkpt lat="43.76758" lon="2.30571">
        <ele>390.91</ele>
        <time>2011-12-04T13:03:00Z</time>
      </trkpt>
      <trkpt lat="43.76761" lon="2.30563">
        <ele>391.39</ele>
        <time>2011-12-04T13:03:13Z</time>
      </trkpt>
      <trkpt lat="43.76763" lon="2.30556">
        <ele>391.87</ele>
        <time>2011-12-04T13:03:32Z</time>
      </trkpt>
      <trkpt lat="43.76761" lon="2.30553">
        <ele>390.91</ele>
        <time>2011-12-04T13:03:48Z</time>
      </trkpt>
      <trkpt lat="43.76757" lon="2.30551">
        <ele>389.95</ele>
        <time>2011-12-04T13:04:13Z</time>
      </trkpt>
      <trkpt lat="43.76757" lon="2.30551">
        <ele>389.95</ele>
        <time>2011-12-04T13:04:48Z</time>
      </trkpt>
      <trkpt lat="43.76759" lon="2.30558">
        <ele>389.95</ele>
        <time>2011-12-04T13:05:04Z</time>
      </trkpt>
      <trkpt lat="43.7676" lon="2.3056">
        <ele>389.47</ele>
        <time>2011-12-04T13:05:20Z</time>
      </trkpt>
      <trkpt lat="43.7676" lon="2.3056">
        <ele>389.47</ele>
        <time>2011-12-04T13:06:18Z</time>
      </trkpt>
      <trkpt lat="43.76763" lon="2.30563">
        <ele>389.47</ele>
        <time>2011-12-04T13:06:47Z</time>
      </trkpt>
      <trkpt lat="43.76773" lon="2.30571">
        <ele>391.39</ele>
        <time>2011-12-04T13:07:03Z</time>
      </trkpt>
      <trkpt lat="43.76782" lon="2.30574">
        <ele>391.87</ele>
        <time>2011-12-04T13:07:16Z</time>
      </trkpt>
      <trkpt lat="43.76792" lon="2.30581">
        <ele>393.8</ele>
        <time>2011-12-04T13:07:31Z</time>
      </trkpt>
      <trkpt lat="43.76794" lon="2.30582">
        <ele>394.28</ele>
        <time>2011-12-04T13:07:44Z</time>
      </trkpt>
      <trkpt lat="43.76798" lon="2.30589">
        <ele>396.2</ele>
        <time>2011-12-04T13:07:57Z</time>
      </trkpt>
      <trkpt lat="43.76798" lon="2.3059">
        <ele>396.2</ele>
        <time>2011-12-04T13:07:58Z</time>
      </trkpt>
      <trkpt lat="43.76807" lon="2.30604">
        <ele>399.08</ele>
        <time>2011-12-04T13:08:13Z</time>
      </trkpt>
      <trkpt lat="43.76814" lon="2.30612">
        <ele>402.93</ele>
        <time>2011-12-04T13:08:25Z</time>
      </trkpt>
      <trkpt lat="43.76818" lon="2.30626">
        <ele>405.33</ele>
        <time>2011-12-04T13:08:39Z</time>
      </trkpt>
      <trkpt lat="43.76824" lon="2.30641">
        <ele>408.22</ele>
        <time>2011-12-04T13:08:54Z</time>
      </trkpt>
      <trkpt lat="43.76839" lon="2.30642">
        <ele>410.62</ele>
        <time>2011-12-04T13:09:10Z</time>
      </trkpt>
      <trkpt lat="43.7685" lon="2.30644">
        <ele>413.02</ele>
        <time>2011-12-04T13:09:25Z</time>
      </trkpt>
      <trkpt lat="43.76858" lon="2.30651">
        <ele>413.98</ele>
        <time>2011-12-04T13:09:40Z</time>
      </trkpt>
      <trkpt lat="43.76868" lon="2.30658">
        <ele>416.87</ele>
        <time>2011-12-04T13:09:56Z</time>
      </trkpt>
      <trkpt lat="43.76876" lon="2.30669">
        <ele>417.83</ele>
        <time>2011-12-04T13:10:12Z</time>
      </trkpt>
      <trkpt lat="43.76883" lon="2.30679">
        <ele>418.79</ele>
        <time>2011-12-04T13:10:26Z</time>
      </trkpt>
      <trkpt lat="43.76892" lon="2.30689">
        <ele>421.19</ele>
        <time>2011-12-04T13:10:40Z</time>
      </trkpt>
      <trkpt lat="43.76901" lon="2.30698">
        <ele>423.6</ele>
        <time>2011-12-04T13:10:56Z</time>
      </trkpt>
      <trkpt lat="43.76902" lon="2.30698">
        <ele>422.64</ele>
        <time>2011-12-04T13:11:19Z</time>
      </trkpt>
      <trkpt lat="43.76909" lon="2.30703">
        <ele>423.12</ele>
        <time>2011-12-04T13:11:32Z</time>
      </trkpt>
      <trkpt lat="43.76915" lon="2.30707">
        <ele>424.08</ele>
        <time>2011-12-04T13:11:49Z</time>
      </trkpt>
      <trkpt lat="43.76926" lon="2.30713">
        <ele>426.48</ele>
        <time>2011-12-04T13:12:02Z</time>
      </trkpt>
      <trkpt lat="43.76939" lon="2.30716">
        <ele>426.96</ele>
        <time>2011-12-04T13:12:17Z</time>
      </trkpt>
      <trkpt lat="43.76952" lon="2.30716">
        <ele>427.44</ele>
        <time>2011-12-04T13:12:32Z</time>
      </trkpt>
      <trkpt lat="43.76968" lon="2.30713">
        <ele>428.4</ele>
        <time>2011-12-04T13:12:48Z</time>
      </trkpt>
      <trkpt lat="43.76981" lon="2.30709">
        <ele>429.85</ele>
        <time>2011-12-04T13:13:02Z</time>
      </trkpt>
      <trkpt lat="43.76994" lon="2.30702">
        <ele>431.29</ele>
        <time>2011-12-04T13:13:17Z</time>
      </trkpt>
      <trkpt lat="43.77003" lon="2.30697">
        <ele>434.17</ele>
        <time>2011-12-04T13:13:28Z</time>
      </trkpt>
      <trkpt lat="43.77005" lon="2.30696">
        <ele>434.65</ele>
        <time>2011-12-04T13:13:30Z</time>
      </trkpt>
      <trkpt lat="43.77017" lon="2.30692">
        <ele>437.06</ele>
        <time>2011-12-04T13:13:45Z</time>
      </trkpt>
      <trkpt lat="43.7702" lon="2.30691">
        <ele>437.06</ele>
        <time>2011-12-04T13:14:03Z</time>
      </trkpt>
      <trkpt lat="43.7702" lon="2.30693">
        <ele>437.06</ele>
        <time>2011-12-04T13:14:27Z</time>
      </trkpt>
      <trkpt lat="43.77018" lon="2.30703">
        <ele>436.58</ele>
        <time>2011-12-04T13:14:36Z</time>
      </trkpt>
      <trkpt lat="43.77015" lon="2.30706">
        <ele>437.54</ele>
        <time>2011-12-04T13:14:40Z</time>
      </trkpt>
      <trkpt lat="43.77011" lon="2.30727">
        <ele>437.06</ele>
        <time>2011-12-04T13:14:56Z</time>
      </trkpt>
      <trkpt lat="43.77007" lon="2.30749">
        <ele>439.46</ele>
        <time>2011-12-04T13:15:13Z</time>
      </trkpt>
      <trkpt lat="43.77005" lon="2.30761">
        <ele>440.42</ele>
        <time>2011-12-04T13:15:26Z</time>
      </trkpt>
      <trkpt lat="43.77002" lon="2.30778">
        <ele>442.34</ele>
        <time>2011-12-04T13:15:40Z</time>
      </trkpt>
      <trkpt lat="43.77002" lon="2.30784">
        <ele>442.82</ele>
        <time>2011-12-04T13:15:52Z</time>
      </trkpt>
      <trkpt lat="43.77" lon="2.30803">
        <ele>445.71</ele>
        <time>2011-12-04T13:16:08Z</time>
      </trkpt>
      <trkpt lat="43.76999" lon="2.30807">
        <ele>446.19</ele>
        <time>2011-12-04T13:16:11Z</time>
      </trkpt>
      <trkpt lat="43.76999" lon="2.30814">
        <ele>447.15</ele>
        <time>2011-12-04T13:16:17Z</time>
      </trkpt>
      <trkpt lat="43.76996" lon="2.30835">
        <ele>449.55</ele>
        <time>2011-12-04T13:16:32Z</time>
      </trkpt>
      <trkpt lat="43.76996" lon="2.30847">
        <ele>451</ele>
        <time>2011-12-04T13:16:40Z</time>
      </trkpt>
      <trkpt lat="43.76996" lon="2.30856">
        <ele>451.48</ele>
        <time>2011-12-04T13:16:47Z</time>
      </trkpt>
      <trkpt lat="43.76995" lon="2.30877">
        <ele>451.48</ele>
        <time>2011-12-04T13:17:04Z</time>
      </trkpt>
      <trkpt lat="43.76996" lon="2.30895">
        <ele>453.88</ele>
        <time>2011-12-04T13:17:19Z</time>
      </trkpt>
      <trkpt lat="43.76996" lon="2.30913">
        <ele>455.32</ele>
        <time>2011-12-04T13:17:33Z</time>
      </trkpt>
      <trkpt lat="43.76996" lon="2.30925">
        <ele>455.8</ele>
        <time>2011-12-04T13:17:42Z</time>
      </trkpt>
      <trkpt lat="43.77002" lon="2.30936">
        <ele>457.24</ele>
        <time>2011-12-04T13:17:52Z</time>
      </trkpt>
      <trkpt lat="43.77004" lon="2.30935">
        <ele>457.24</ele>
        <time>2011-12-04T13:17:54Z</time>
      </trkpt>
      <trkpt lat="43.77015" lon="2.3092">
        <ele>458.69</ele>
        <time>2011-12-04T13:18:08Z</time>
      </trkpt>
      <trkpt lat="43.77018" lon="2.30914">
        <ele>459.17</ele>
        <time>2011-12-04T13:18:14Z</time>
      </trkpt>
      <trkpt lat="43.77031" lon="2.30901">
        <ele>460.61</ele>
        <time>2011-12-04T13:18:29Z</time>
      </trkpt>
      <trkpt lat="43.77045" lon="2.30892">
        <ele>463.49</ele>
        <time>2011-12-04T13:18:45Z</time>
      </trkpt>
      <trkpt lat="43.7705" lon="2.3089">
        <ele>463.97</ele>
        <time>2011-12-04T13:18:49Z</time>
      </trkpt>
      <trkpt lat="43.77068" lon="2.30884">
        <ele>465.9</ele>
        <time>2011-12-04T13:19:07Z</time>
      </trkpt>
      <trkpt lat="43.77084" lon="2.30882">
        <ele>467.34</ele>
        <time>2011-12-04T13:19:23Z</time>
      </trkpt>
      <trkpt lat="43.77094" lon="2.30883">
        <ele>468.3</ele>
        <time>2011-12-04T13:19:33Z</time>
      </trkpt>
      <trkpt lat="43.77109" lon="2.3089">
        <ele>469.26</ele>
        <time>2011-12-04T13:19:50Z</time>
      </trkpt>
      <trkpt lat="43.77124" lon="2.30902">
        <ele>470.7</ele>
        <time>2011-12-04T13:20:08Z</time>
      </trkpt>
      <trkpt lat="43.77136" lon="2.30916">
        <ele>472.63</ele>
        <time>2011-12-04T13:20:24Z</time>
      </trkpt>
      <trkpt lat="43.77148" lon="2.30933">
        <ele>474.55</ele>
        <time>2011-12-04T13:20:41Z</time>
      </trkpt>
      <trkpt lat="43.7716" lon="2.30952">
        <ele>474.55</ele>
        <time>2011-12-04T13:20:58Z</time>
      </trkpt>
      <trkpt lat="43.77173" lon="2.30975">
        <ele>475.99</ele>
        <time>2011-12-04T13:21:18Z</time>
      </trkpt>
      <trkpt lat="43.77187" lon="2.30994">
        <ele>475.99</ele>
        <time>2011-12-04T13:21:36Z</time>
      </trkpt>
      <trkpt lat="43.77201" lon="2.31012">
        <ele>475.99</ele>
        <time>2011-12-04T13:21:53Z</time>
      </trkpt>
      <trkpt lat="43.77218" lon="2.31034">
        <ele>475.99</ele>
        <time>2011-12-04T13:22:13Z</time>
      </trkpt>
      <trkpt lat="43.77235" lon="2.31054">
        <ele>474.55</ele>
        <time>2011-12-04T13:22:32Z</time>
      </trkpt>
      <trkpt lat="43.77252" lon="2.31077">
        <ele>474.07</ele>
        <time>2011-12-04T13:22:52Z</time>
      </trkpt>
      <trkpt lat="43.77268" lon="2.31097">
        <ele>474.55</ele>
        <time>2011-12-04T13:23:10Z</time>
      </trkpt>
      <trkpt lat="43.77283" lon="2.31116">
        <ele>475.51</ele>
        <time>2011-12-04T13:23:27Z</time>
      </trkpt>
      <trkpt lat="43.77296" lon="2.31131">
        <ele>475.03</ele>
        <time>2011-12-04T13:23:42Z</time>
      </trkpt>
      <trkpt lat="43.77315" lon="2.31149">
        <ele>475.03</ele>
        <time>2011-12-04T13:24:01Z</time>
      </trkpt>
      <trkpt lat="43.77331" lon="2.31163">
        <ele>474.55</ele>
        <time>2011-12-04T13:24:19Z</time>
      </trkpt>
      <trkpt lat="43.77347" lon="2.31175">
        <ele>474.07</ele>
        <time>2011-12-04T13:24:36Z</time>
      </trkpt>
      <trkpt lat="43.77364" lon="2.31188">
        <ele>473.59</ele>
        <time>2011-12-04T13:24:53Z</time>
      </trkpt>
      <trkpt lat="43.77384" lon="2.31202">
        <ele>473.11</ele>
        <time>2011-12-04T13:25:13Z</time>
      </trkpt>
      <trkpt lat="43.77402" lon="2.31216">
        <ele>472.14</ele>
        <time>2011-12-04T13:25:31Z</time>
      </trkpt>
      <trkpt lat="43.7742" lon="2.31229">
        <ele>471.66</ele>
        <time>2011-12-04T13:25:48Z</time>
      </trkpt>
      <trkpt lat="43.77442" lon="2.31243">
        <ele>470.22</ele>
        <time>2011-12-04T13:26:08Z</time>
      </trkpt>
      <trkpt lat="43.77461" lon="2.31258">
        <ele>468.3</ele>
        <time>2011-12-04T13:26:27Z</time>
      </trkpt>
      <trkpt lat="43.77481" lon="2.31272">
        <ele>465.9</ele>
        <time>2011-12-04T13:26:45Z</time>
      </trkpt>
      <trkpt lat="43.77503" lon="2.31285">
        <ele>466.38</ele>
        <time>2011-12-04T13:27:04Z</time>
      </trkpt>
      <trkpt lat="43.77527" lon="2.31295">
        <ele>468.3</ele>
        <time>2011-12-04T13:27:24Z</time>
      </trkpt>
      <trkpt lat="43.7755" lon="2.31302">
        <ele>467.82</ele>
        <time>2011-12-04T13:27:43Z</time>
      </trkpt>
      <trkpt lat="43.77577" lon="2.31305">
        <ele>465.42</ele>
        <time>2011-12-04T13:28:05Z</time>
      </trkpt>
      <trkpt lat="43.776" lon="2.31308">
        <ele>464.93</ele>
        <time>2011-12-04T13:28:24Z</time>
      </trkpt>
      <trkpt lat="43.77613" lon="2.31308">
        <ele>463.97</ele>
        <time>2011-12-04T13:28:35Z</time>
      </trkpt>
      <trkpt lat="43.77637" lon="2.31302">
        <ele>461.57</ele>
        <time>2011-12-04T13:28:56Z</time>
      </trkpt>
      <trkpt lat="43.77658" lon="2.31296">
        <ele>459.17</ele>
        <time>2011-12-04T13:29:14Z</time>
      </trkpt>
      <trkpt lat="43.77686" lon="2.31291">
        <ele>456.76</ele>
        <time>2011-12-04T13:29:37Z</time>
      </trkpt>
      <trkpt lat="43.77708" lon="2.31299">
        <ele>455.8</ele>
        <time>2011-12-04T13:29:55Z</time>
      </trkpt>
      <trkpt lat="43.77725" lon="2.31311">
        <ele>454.84</ele>
        <time>2011-12-04T13:30:11Z</time>
      </trkpt>
      <trkpt lat="43.77742" lon="2.31325">
        <ele>456.76</ele>
        <time>2011-12-04T13:30:28Z</time>
      </trkpt>
      <trkpt lat="43.77762" lon="2.3134">
        <ele>458.69</ele>
        <time>2011-12-04T13:30:48Z</time>
      </trkpt>
      <trkpt lat="43.7778" lon="2.31351">
        <ele>459.65</ele>
        <time>2011-12-04T13:31:05Z</time>
      </trkpt>
      <trkpt lat="43.77796" lon="2.3136">
        <ele>461.57</ele>
        <time>2011-12-04T13:31:22Z</time>
      </trkpt>
      <trkpt lat="43.77814" lon="2.31365">
        <ele>463.97</ele>
        <time>2011-12-04T13:31:39Z</time>
      </trkpt>
      <trkpt lat="43.77835" lon="2.31367">
        <ele>464.93</ele>
        <time>2011-12-04T13:31:57Z</time>
      </trkpt>
      <trkpt lat="43.77853" lon="2.31369">
        <ele>466.38</ele>
        <time>2011-12-04T13:32:13Z</time>
      </trkpt>
      <trkpt lat="43.77873" lon="2.31374">
        <ele>466.38</ele>
        <time>2011-12-04T13:32:31Z</time>
      </trkpt>
      <trkpt lat="43.77892" lon="2.31382">
        <ele>466.38</ele>
        <time>2011-12-04T13:32:48Z</time>
      </trkpt>
      <trkpt lat="43.7791" lon="2.31393">
        <ele>466.38</ele>
        <time>2011-12-04T13:33:05Z</time>
      </trkpt>
      <trkpt lat="43.77927" lon="2.31406">
        <ele>467.82</ele>
        <time>2011-12-04T13:33:22Z</time>
      </trkpt>
      <trkpt lat="43.77942" lon="2.31416">
        <ele>469.74</ele>
        <time>2011-12-04T13:33:37Z</time>
      </trkpt>
      <trkpt lat="43.77962" lon="2.3143">
        <ele>471.66</ele>
        <time>2011-12-04T13:33:56Z</time>
      </trkpt>
      <trkpt lat="43.77978" lon="2.3144">
        <ele>471.18</ele>
        <time>2011-12-04T13:34:12Z</time>
      </trkpt>
      <trkpt lat="43.77996" lon="2.31456">
        <ele>471.18</ele>
        <time>2011-12-04T13:34:29Z</time>
      </trkpt>
      <trkpt lat="43.78013" lon="2.31478">
        <ele>470.7</ele>
        <time>2011-12-04T13:34:49Z</time>
      </trkpt>
      <trkpt lat="43.78029" lon="2.31495">
        <ele>472.14</ele>
        <time>2011-12-04T13:35:05Z</time>
      </trkpt>
      <trkpt lat="43.78048" lon="2.31506">
        <ele>472.63</ele>
        <time>2011-12-04T13:35:22Z</time>
      </trkpt>
      <trkpt lat="43.78069" lon="2.31513">
        <ele>474.07</ele>
        <time>2011-12-04T13:35:39Z</time>
      </trkpt>
      <trkpt lat="43.78089" lon="2.31517">
        <ele>474.07</ele>
        <time>2011-12-04T13:35:57Z</time>
      </trkpt>
      <trkpt lat="43.78114" lon="2.31521">
        <ele>474.55</ele>
        <time>2011-12-04T13:36:17Z</time>
      </trkpt>
      <trkpt lat="43.78134" lon="2.31519">
        <ele>473.11</ele>
        <time>2011-12-04T13:36:34Z</time>
      </trkpt>
      <trkpt lat="43.78157" lon="2.31517">
        <ele>473.11</ele>
        <time>2011-12-04T13:36:53Z</time>
      </trkpt>
      <trkpt lat="43.78163" lon="2.31517">
        <ele>473.11</ele>
        <time>2011-12-04T13:37:09Z</time>
      </trkpt>
      <trkpt lat="43.78163" lon="2.31517">
        <ele>473.11</ele>
        <time>2011-12-04T13:37:22Z</time>
      </trkpt>
      <trkpt lat="43.78145" lon="2.31516">
        <ele>472.63</ele>
        <time>2011-12-04T13:37:36Z</time>
      </trkpt>
      <trkpt lat="43.78139" lon="2.31516">
        <ele>472.14</ele>
        <time>2011-12-04T13:37:41Z</time>
      </trkpt>
      <trkpt lat="43.78126" lon="2.31517">
        <ele>471.66</ele>
        <time>2011-12-04T13:37:51Z</time>
      </trkpt>
      <trkpt lat="43.78113" lon="2.31517">
        <ele>471.18</ele>
        <time>2011-12-04T13:38:01Z</time>
      </trkpt>
      <trkpt lat="43.78092" lon="2.31514">
        <ele>469.74</ele>
        <time>2011-12-04T13:38:18Z</time>
      </trkpt>
      <trkpt lat="43.78089" lon="2.31513">
        <ele>469.74</ele>
        <time>2011-12-04T13:38:20Z</time>
      </trkpt>
      <trkpt lat="43.78073" lon="2.31519">
        <ele>469.74</ele>
        <time>2011-12-04T13:38:35Z</time>
      </trkpt>
      <trkpt lat="43.78071" lon="2.31534">
        <ele>471.66</ele>
        <time>2011-12-04T13:38:50Z</time>
      </trkpt>
      <trkpt lat="43.78069" lon="2.31542">
        <ele>472.14</ele>
        <time>2011-12-04T13:38:56Z</time>
      </trkpt>
      <trkpt lat="43.78063" lon="2.31569">
        <ele>472.14</ele>
        <time>2011-12-04T13:39:13Z</time>
      </trkpt>
      <trkpt lat="43.78061" lon="2.31596">
        <ele>470.7</ele>
        <time>2011-12-04T13:39:29Z</time>
      </trkpt>
      <trkpt lat="43.78063" lon="2.31623">
        <ele>467.34</ele>
        <time>2011-12-04T13:39:46Z</time>
      </trkpt>
      <trkpt lat="43.78068" lon="2.31648">
        <ele>465.9</ele>
        <time>2011-12-04T13:40:01Z</time>
      </trkpt>
      <trkpt lat="43.78069" lon="2.31657">
        <ele>464.45</ele>
        <time>2011-12-04T13:40:08Z</time>
      </trkpt>
      <trkpt lat="43.78064" lon="2.31658">
        <ele>462.53</ele>
        <time>2011-12-04T13:40:21Z</time>
      </trkpt>
      <trkpt lat="43.78064" lon="2.31658">
        <ele>462.05</ele>
        <time>2011-12-04T13:40:37Z</time>
      </trkpt>
      <trkpt lat="43.78061" lon="2.31657">
        <ele>462.05</ele>
        <time>2011-12-04T13:40:52Z</time>
      </trkpt>
      <trkpt lat="43.78059" lon="2.31656">
        <ele>462.05</ele>
        <time>2011-12-04T13:41:02Z</time>
      </trkpt>
      <trkpt lat="43.78042" lon="2.31645">
        <ele>459.17</ele>
        <time>2011-12-04T13:41:16Z</time>
      </trkpt>
      <trkpt lat="43.78041" lon="2.31645">
        <ele>459.17</ele>
        <time>2011-12-04T13:41:17Z</time>
      </trkpt>
      <trkpt lat="43.7802" lon="2.31642">
        <ele>457.24</ele>
        <time>2011-12-04T13:41:33Z</time>
      </trkpt>
      <trkpt lat="43.7801" lon="2.31644">
        <ele>454.36</ele>
        <time>2011-12-04T13:41:40Z</time>
      </trkpt>
      <trkpt lat="43.78006" lon="2.31648">
        <ele>453.88</ele>
        <time>2011-12-04T13:41:44Z</time>
      </trkpt>
      <trkpt lat="43.77989" lon="2.31663">
        <ele>453.4</ele>
        <time>2011-12-04T13:42:01Z</time>
      </trkpt>
      <trkpt lat="43.77975" lon="2.31677">
        <ele>451.96</ele>
        <time>2011-12-04T13:42:17Z</time>
      </trkpt>
      <trkpt lat="43.77971" lon="2.31681">
        <ele>451.48</ele>
        <time>2011-12-04T13:42:22Z</time>
      </trkpt>
      <trkpt lat="43.77953" lon="2.31695">
        <ele>449.55</ele>
        <time>2011-12-04T13:42:41Z</time>
      </trkpt>
      <trkpt lat="43.77937" lon="2.31706">
        <ele>450.03</ele>
        <time>2011-12-04T13:42:55Z</time>
      </trkpt>
      <trkpt lat="43.77921" lon="2.31719">
        <ele>448.11</ele>
        <time>2011-12-04T13:43:12Z</time>
      </trkpt>
      <trkpt lat="43.77906" lon="2.31727">
        <ele>446.67</ele>
        <time>2011-12-04T13:43:26Z</time>
      </trkpt>
      <trkpt lat="43.77901" lon="2.31729">
        <ele>445.23</ele>
        <time>2011-12-04T13:43:31Z</time>
      </trkpt>
      <trkpt lat="43.77884" lon="2.31737">
        <ele>443.79</ele>
        <time>2011-12-04T13:43:48Z</time>
      </trkpt>
      <trkpt lat="43.77868" lon="2.31747">
        <ele>440.42</ele>
        <time>2011-12-04T13:44:04Z</time>
      </trkpt>
      <trkpt lat="43.77855" lon="2.31757">
        <ele>440.9</ele>
        <time>2011-12-04T13:44:19Z</time>
      </trkpt>
      <trkpt lat="43.7784" lon="2.31769">
        <ele>441.38</ele>
        <time>2011-12-04T13:44:35Z</time>
      </trkpt>
      <trkpt lat="43.77827" lon="2.31778">
        <ele>439.94</ele>
        <time>2011-12-04T13:44:49Z</time>
      </trkpt>
      <trkpt lat="43.77824" lon="2.3178">
        <ele>439.46</ele>
        <time>2011-12-04T13:44:52Z</time>
      </trkpt>
      <trkpt lat="43.77818" lon="2.31784">
        <ele>438.02</ele>
        <time>2011-12-04T13:44:57Z</time>
      </trkpt>
      <trkpt lat="43.77801" lon="2.31794">
        <ele>434.17</ele>
        <time>2011-12-04T13:45:13Z</time>
      </trkpt>
      <trkpt lat="43.77796" lon="2.31797">
        <ele>433.69</ele>
        <time>2011-12-04T13:45:19Z</time>
      </trkpt>
      <trkpt lat="43.77787" lon="2.31801">
        <ele>431.77</ele>
        <time>2011-12-04T13:45:27Z</time>
      </trkpt>
      <trkpt lat="43.77771" lon="2.31806">
        <ele>429.37</ele>
        <time>2011-12-04T13:45:42Z</time>
      </trkpt>
      <trkpt lat="43.77764" lon="2.31808">
        <ele>428.89</ele>
        <time>2011-12-04T13:45:48Z</time>
      </trkpt>
      <trkpt lat="43.77761" lon="2.3181">
        <ele>428.4</ele>
        <time>2011-12-04T13:45:52Z</time>
      </trkpt>
      <trkpt lat="43.77745" lon="2.31812">
        <ele>425.52</ele>
        <time>2011-12-04T13:46:06Z</time>
      </trkpt>
      <trkpt lat="43.77744" lon="2.31821">
        <ele>425.04</ele>
        <time>2011-12-04T13:46:12Z</time>
      </trkpt>
      <trkpt lat="43.77745" lon="2.31823">
        <ele>424.56</ele>
        <time>2011-12-04T13:46:14Z</time>
      </trkpt>
      <trkpt lat="43.77759" lon="2.31823">
        <ele>423.6</ele>
        <time>2011-12-04T13:46:30Z</time>
      </trkpt>
      <trkpt lat="43.77774" lon="2.31825">
        <ele>420.71</ele>
        <time>2011-12-04T13:46:44Z</time>
      </trkpt>
      <trkpt lat="43.77779" lon="2.31828">
        <ele>418.79</ele>
        <time>2011-12-04T13:46:51Z</time>
      </trkpt>
      <trkpt lat="43.77782" lon="2.31829">
        <ele>418.31</ele>
        <time>2011-12-04T13:46:53Z</time>
      </trkpt>
      <trkpt lat="43.77787" lon="2.31829">
        <ele>417.83</ele>
        <time>2011-12-04T13:46:58Z</time>
      </trkpt>
      <trkpt lat="43.77803" lon="2.31833">
        <ele>416.39</ele>
        <time>2011-12-04T13:47:14Z</time>
      </trkpt>
      <trkpt lat="43.77816" lon="2.31838">
        <ele>415.91</ele>
        <time>2011-12-04T13:47:27Z</time>
      </trkpt>
      <trkpt lat="43.77832" lon="2.31841">
        <ele>413.98</ele>
        <time>2011-12-04T13:47:42Z</time>
      </trkpt>
      <trkpt lat="43.77849" lon="2.31846">
        <ele>411.58</ele>
        <time>2011-12-04T13:47:58Z</time>
      </trkpt>
      <trkpt lat="43.7785" lon="2.31846">
        <ele>411.58</ele>
        <time>2011-12-04T13:47:59Z</time>
      </trkpt>
      <trkpt lat="43.77868" lon="2.31839">
        <ele>408.7</ele>
        <time>2011-12-04T13:48:15Z</time>
      </trkpt>
      <trkpt lat="43.7788" lon="2.31837">
        <ele>405.33</ele>
        <time>2011-12-04T13:48:30Z</time>
      </trkpt>
      <trkpt lat="43.77883" lon="2.31835">
        <ele>404.85</ele>
        <time>2011-12-04T13:48:50Z</time>
      </trkpt>
      <trkpt lat="43.77894" lon="2.31823">
        <ele>404.37</ele>
        <time>2011-12-04T13:49:03Z</time>
      </trkpt>
      <trkpt lat="43.7791" lon="2.31815">
        <ele>407.26</ele>
        <time>2011-12-04T13:49:17Z</time>
      </trkpt>
      <trkpt lat="43.77926" lon="2.31807">
        <ele>405.81</ele>
        <time>2011-12-04T13:49:30Z</time>
      </trkpt>
      <trkpt lat="43.77941" lon="2.31804">
        <ele>404.85</ele>
        <time>2011-12-04T13:49:45Z</time>
      </trkpt>
      <trkpt lat="43.77948" lon="2.318">
        <ele>405.33</ele>
        <time>2011-12-04T13:49:51Z</time>
      </trkpt>
      <trkpt lat="43.77954" lon="2.31796">
        <ele>405.81</ele>
        <time>2011-12-04T13:49:55Z</time>
      </trkpt>
      <trkpt lat="43.77956" lon="2.31795">
        <ele>405.81</ele>
        <time>2011-12-04T13:49:57Z</time>
      </trkpt>
      <trkpt lat="43.77959" lon="2.3179">
        <ele>404.85</ele>
        <time>2011-12-04T13:50:18Z</time>
      </trkpt>
      <trkpt lat="43.7796" lon="2.31785">
        <ele>403.89</ele>
        <time>2011-12-04T13:50:45Z</time>
      </trkpt>
      <trkpt lat="43.77969" lon="2.31787">
        <ele>406.77</ele>
        <time>2011-12-04T13:51:07Z</time>
      </trkpt>
      <trkpt lat="43.77975" lon="2.31789">
        <ele>410.62</ele>
        <time>2011-12-04T13:51:24Z</time>
      </trkpt>
      <trkpt lat="43.77983" lon="2.31784">
        <ele>412.54</ele>
        <time>2011-12-04T13:51:39Z</time>
      </trkpt>
      <trkpt lat="43.77984" lon="2.31782">
        <ele>413.02</ele>
        <time>2011-12-04T13:52:12Z</time>
      </trkpt>
      <trkpt lat="43.77983" lon="2.31782">
        <ele>413.02</ele>
        <time>2011-12-04T13:53:03Z</time>
      </trkpt>
      <trkpt lat="43.77982" lon="2.31784">
        <ele>414.47</ele>
        <time>2011-12-04T13:53:47Z</time>
      </trkpt>
      <trkpt lat="43.77982" lon="2.31784">
        <ele>414.47</ele>
        <time>2011-12-04T13:54:10Z</time>
      </trkpt>
      <trkpt lat="43.77983" lon="2.31789">
        <ele>415.43</ele>
        <time>2011-12-04T13:54:16Z</time>
      </trkpt>
      <trkpt lat="43.77982" lon="2.31809">
        <ele>419.75</ele>
        <time>2011-12-04T13:54:29Z</time>
      </trkpt>
      <trkpt lat="43.77983" lon="2.31811">
        <ele>419.27</ele>
        <time>2011-12-04T13:54:31Z</time>
      </trkpt>
      <trkpt lat="43.77977" lon="2.31833">
        <ele>421.19</ele>
        <time>2011-12-04T13:54:47Z</time>
      </trkpt>
      <trkpt lat="43.7798" lon="2.31844">
        <ele>420.71</ele>
        <time>2011-12-04T13:54:53Z</time>
      </trkpt>
      <trkpt lat="43.77995" lon="2.31871">
        <ele>419.75</ele>
        <time>2011-12-04T13:55:11Z</time>
      </trkpt>
      <trkpt lat="43.78007" lon="2.3188">
        <ele>416.39</ele>
        <time>2011-12-04T13:55:25Z</time>
      </trkpt>
      <trkpt lat="43.78018" lon="2.31887">
        <ele>415.91</ele>
        <time>2011-12-04T13:55:54Z</time>
      </trkpt>
      <trkpt lat="43.7802" lon="2.3189">
        <ele>413.98</ele>
        <time>2011-12-04T13:56:05Z</time>
      </trkpt>
      <trkpt lat="43.78038" lon="2.31888">
        <ele>410.14</ele>
        <time>2011-12-04T13:56:19Z</time>
      </trkpt>
      <trkpt lat="43.78054" lon="2.31889">
        <ele>411.58</ele>
        <time>2011-12-04T13:56:31Z</time>
      </trkpt>
      <trkpt lat="43.78057" lon="2.3189">
        <ele>410.62</ele>
        <time>2011-12-04T13:56:34Z</time>
      </trkpt>
      <trkpt lat="43.7806" lon="2.31893">
        <ele>410.14</ele>
        <time>2011-12-04T13:56:42Z</time>
      </trkpt>
      <trkpt lat="43.78064" lon="2.31895">
        <ele>408.7</ele>
        <time>2011-12-04T13:56:46Z</time>
      </trkpt>
      <trkpt lat="43.78086" lon="2.31907">
        <ele>411.58</ele>
        <time>2011-12-04T13:57:03Z</time>
      </trkpt>
      <trkpt lat="43.78099" lon="2.31917">
        <ele>410.14</ele>
        <time>2011-12-04T13:57:17Z</time>
      </trkpt>
      <trkpt lat="43.78107" lon="2.3192">
        <ele>411.1</ele>
        <time>2011-12-04T13:57:25Z</time>
      </trkpt>
      <trkpt lat="43.78122" lon="2.31925">
        <ele>413.5</ele>
        <time>2011-12-04T13:57:41Z</time>
      </trkpt>
      <trkpt lat="43.78128" lon="2.31929">
        <ele>413.02</ele>
        <time>2011-12-04T13:57:57Z</time>
      </trkpt>
      <trkpt lat="43.78138" lon="2.3194">
        <ele>416.87</ele>
        <time>2011-12-04T13:58:11Z</time>
      </trkpt>
      <trkpt lat="43.78141" lon="2.31945">
        <ele>418.31</ele>
        <time>2011-12-04T13:58:16Z</time>
      </trkpt>
      <trkpt lat="43.78145" lon="2.31949">
        <ele>418.79</ele>
        <time>2011-12-04T13:58:20Z</time>
      </trkpt>
      <trkpt lat="43.78161" lon="2.31949">
        <ele>420.23</ele>
        <time>2011-12-04T13:58:34Z</time>
      </trkpt>
      <trkpt lat="43.78162" lon="2.31949">
        <ele>420.23</ele>
        <time>2011-12-04T13:58:36Z</time>
      </trkpt>
      <trkpt lat="43.78179" lon="2.31947">
        <ele>422.64</ele>
        <time>2011-12-04T13:58:52Z</time>
      </trkpt>
      <trkpt lat="43.78182" lon="2.31947">
        <ele>423.6</ele>
        <time>2011-12-04T13:58:55Z</time>
      </trkpt>
      <trkpt lat="43.78197" lon="2.3195">
        <ele>427.44</ele>
        <time>2011-12-04T13:59:11Z</time>
      </trkpt>
      <trkpt lat="43.78209" lon="2.31952">
        <ele>426.96</ele>
        <time>2011-12-04T13:59:23Z</time>
      </trkpt>
      <trkpt lat="43.78224" lon="2.31953">
        <ele>428.89</ele>
        <time>2011-12-04T13:59:39Z</time>
      </trkpt>
      <trkpt lat="43.78233" lon="2.31954">
        <ele>430.81</ele>
        <time>2011-12-04T13:59:51Z</time>
      </trkpt>
      <trkpt lat="43.78239" lon="2.31953">
        <ele>429.37</ele>
        <time>2011-12-04T14:00:04Z</time>
      </trkpt>
      <trkpt lat="43.78239" lon="2.31953">
        <ele>429.37</ele>
        <time>2011-12-04T14:00:22Z</time>
      </trkpt>
      <trkpt lat="43.78239" lon="2.31952">
        <ele>429.37</ele>
        <time>2011-12-04T14:00:51Z</time>
      </trkpt>
      <trkpt lat="43.78239" lon="2.31952">
        <ele>429.37</ele>
        <time>2011-12-04T14:01:23Z</time>
      </trkpt>
      <trkpt lat="43.7825" lon="2.31954">
        <ele>430.81</ele>
        <time>2011-12-04T14:01:41Z</time>
      </trkpt>
      <trkpt lat="43.78255" lon="2.31958">
        <ele>430.33</ele>
        <time>2011-12-04T14:02:00Z</time>
      </trkpt>
      <trkpt lat="43.78256" lon="2.3196">
        <ele>429.37</ele>
        <time>2011-12-04T14:02:58Z</time>
      </trkpt>
      <trkpt lat="43.78257" lon="2.31963">
        <ele>427.92</ele>
        <time>2011-12-04T14:03:04Z</time>
      </trkpt>
      <trkpt lat="43.7826" lon="2.3197">
        <ele>426.48</ele>
        <time>2011-12-04T14:03:17Z</time>
      </trkpt>
      <trkpt lat="43.78267" lon="2.31983">
        <ele>424.56</ele>
        <time>2011-12-04T14:03:31Z</time>
      </trkpt>
      <trkpt lat="43.78268" lon="2.31985">
        <ele>424.08</ele>
        <time>2011-12-04T14:03:50Z</time>
      </trkpt>
      <trkpt lat="43.78264" lon="2.31986">
        <ele>423.6</ele>
        <time>2011-12-04T14:04:05Z</time>
      </trkpt>
      <trkpt lat="43.78262" lon="2.31987">
        <ele>422.64</ele>
        <time>2011-12-04T14:04:15Z</time>
      </trkpt>
      <trkpt lat="43.78266" lon="2.31998">
        <ele>420.23</ele>
        <time>2011-12-04T14:04:30Z</time>
      </trkpt>
      <trkpt lat="43.78262" lon="2.32">
        <ele>418.79</ele>
        <time>2011-12-04T14:04:45Z</time>
      </trkpt>
      <trkpt lat="43.78275" lon="2.32014">
        <ele>415.43</ele>
        <time>2011-12-04T14:04:57Z</time>
      </trkpt>
      <trkpt lat="43.78278" lon="2.32016">
        <ele>413.98</ele>
        <time>2011-12-04T14:05:12Z</time>
      </trkpt>
      <trkpt lat="43.78279" lon="2.32016">
        <ele>413.5</ele>
        <time>2011-12-04T14:05:27Z</time>
      </trkpt>
      <trkpt lat="43.78278" lon="2.32015">
        <ele>413.5</ele>
        <time>2011-12-04T14:05:53Z</time>
      </trkpt>
      <trkpt lat="43.78277" lon="2.32019">
        <ele>412.54</ele>
        <time>2011-12-04T14:06:22Z</time>
      </trkpt>
      <trkpt lat="43.78278" lon="2.32022">
        <ele>412.06</ele>
        <time>2011-12-04T14:06:57Z</time>
      </trkpt>
      <trkpt lat="43.78274" lon="2.32023">
        <ele>412.06</ele>
        <time>2011-12-04T14:07:18Z</time>
      </trkpt>
      <trkpt lat="43.78273" lon="2.32022">
        <ele>412.06</ele>
        <time>2011-12-04T14:07:24Z</time>
      </trkpt>
      <trkpt lat="43.7827" lon="2.3202">
        <ele>410.62</ele>
        <time>2011-12-04T14:07:43Z</time>
      </trkpt>
      <trkpt lat="43.78264" lon="2.32016">
        <ele>410.62</ele>
        <time>2011-12-04T14:08:13Z</time>
      </trkpt>
      <trkpt lat="43.78253" lon="2.32014">
        <ele>409.18</ele>
        <time>2011-12-04T14:08:28Z</time>
      </trkpt>
      <trkpt lat="43.78236" lon="2.32012">
        <ele>408.22</ele>
        <time>2011-12-04T14:08:41Z</time>
      </trkpt>
      <trkpt lat="43.78218" lon="2.32008">
        <ele>408.22</ele>
        <time>2011-12-04T14:08:54Z</time>
      </trkpt>
      <trkpt lat="43.782" lon="2.32001">
        <ele>406.29</ele>
        <time>2011-12-04T14:09:07Z</time>
      </trkpt>
      <trkpt lat="43.78193" lon="2.31997">
        <ele>405.33</ele>
        <time>2011-12-04T14:09:13Z</time>
      </trkpt>
      <trkpt lat="43.78189" lon="2.31993">
        <ele>404.85</ele>
        <time>2011-12-04T14:09:17Z</time>
      </trkpt>
      <trkpt lat="43.78178" lon="2.31993">
        <ele>403.89</ele>
        <time>2011-12-04T14:09:23Z</time>
      </trkpt>
      <trkpt lat="43.78171" lon="2.31994">
        <ele>403.41</ele>
        <time>2011-12-04T14:09:27Z</time>
      </trkpt>
      <trkpt lat="43.78143" lon="2.3199">
        <ele>402.93</ele>
        <time>2011-12-04T14:09:43Z</time>
      </trkpt>
      <trkpt lat="43.78126" lon="2.31984">
        <ele>401.01</ele>
        <time>2011-12-04T14:09:55Z</time>
      </trkpt>
      <trkpt lat="43.78107" lon="2.3197">
        <ele>399.57</ele>
        <time>2011-12-04T14:10:08Z</time>
      </trkpt>
      <trkpt lat="43.78092" lon="2.31959">
        <ele>398.6</ele>
        <time>2011-12-04T14:10:22Z</time>
      </trkpt>
      <trkpt lat="43.78075" lon="2.31949">
        <ele>397.64</ele>
        <time>2011-12-04T14:10:35Z</time>
      </trkpt>
      <trkpt lat="43.78057" lon="2.31944">
        <ele>396.68</ele>
        <time>2011-12-04T14:10:49Z</time>
      </trkpt>
      <trkpt lat="43.78053" lon="2.31947">
        <ele>396.68</ele>
        <time>2011-12-04T14:11:01Z</time>
      </trkpt>
      <trkpt lat="43.78051" lon="2.31945">
        <ele>397.16</ele>
        <time>2011-12-04T14:11:11Z</time>
      </trkpt>
      <trkpt lat="43.78029" lon="2.31937">
        <ele>397.16</ele>
        <time>2011-12-04T14:11:27Z</time>
      </trkpt>
      <trkpt lat="43.7801" lon="2.31939">
        <ele>397.16</ele>
        <time>2011-12-04T14:11:40Z</time>
      </trkpt>
      <trkpt lat="43.77995" lon="2.31936">
        <ele>395.72</ele>
        <time>2011-12-04T14:11:52Z</time>
      </trkpt>
      <trkpt lat="43.77977" lon="2.31923">
        <ele>394.28</ele>
        <time>2011-12-04T14:12:07Z</time>
      </trkpt>
      <trkpt lat="43.77972" lon="2.31922">
        <ele>394.28</ele>
        <time>2011-12-04T14:12:11Z</time>
      </trkpt>
      <trkpt lat="43.77955" lon="2.31912">
        <ele>392.84</ele>
        <time>2011-12-04T14:12:26Z</time>
      </trkpt>
      <trkpt lat="43.77941" lon="2.31902">
        <ele>389.95</ele>
        <time>2011-12-04T14:12:38Z</time>
      </trkpt>
      <trkpt lat="43.7794" lon="2.31914">
        <ele>381.78</ele>
        <time>2011-12-04T14:12:48Z</time>
      </trkpt>
      <trkpt lat="43.77959" lon="2.31927">
        <ele>372.17</ele>
        <time>2011-12-04T14:13:05Z</time>
      </trkpt>
      <trkpt lat="43.77975" lon="2.3194">
        <ele>371.21</ele>
        <time>2011-12-04T14:13:19Z</time>
      </trkpt>
      <trkpt lat="43.77978" lon="2.3194">
        <ele>371.69</ele>
        <time>2011-12-04T14:13:21Z</time>
      </trkpt>
      <trkpt lat="43.77987" lon="2.31945">
        <ele>371.69</ele>
        <time>2011-12-04T14:13:28Z</time>
      </trkpt>
      <trkpt lat="43.78006" lon="2.31958">
        <ele>374.09</ele>
        <time>2011-12-04T14:13:45Z</time>
      </trkpt>
      <trkpt lat="43.78015" lon="2.31961">
        <ele>373.13</ele>
        <time>2011-12-04T14:13:53Z</time>
      </trkpt>
      <trkpt lat="43.78032" lon="2.31967">
        <ele>371.69</ele>
        <time>2011-12-04T14:14:08Z</time>
      </trkpt>
      <trkpt lat="43.78032" lon="2.31967">
        <ele>371.69</ele>
        <time>2011-12-04T14:14:09Z</time>
      </trkpt>
      <trkpt lat="43.78049" lon="2.31982">
        <ele>371.21</ele>
        <time>2011-12-04T14:14:25Z</time>
      </trkpt>
      <trkpt lat="43.78053" lon="2.31988">
        <ele>370.73</ele>
        <time>2011-12-04T14:14:30Z</time>
      </trkpt>
      <trkpt lat="43.78055" lon="2.3199">
        <ele>371.21</ele>
        <time>2011-12-04T14:14:32Z</time>
      </trkpt>
      <trkpt lat="43.78072" lon="2.32003">
        <ele>369.28</ele>
        <time>2011-12-04T14:14:47Z</time>
      </trkpt>
      <trkpt lat="43.78088" lon="2.32014">
        <ele>367.84</ele>
        <time>2011-12-04T14:15:02Z</time>
      </trkpt>
      <trkpt lat="43.78093" lon="2.32022">
        <ele>366.88</ele>
        <time>2011-12-04T14:15:08Z</time>
      </trkpt>
      <trkpt lat="43.78106" lon="2.3204">
        <ele>365.44</ele>
        <time>2011-12-04T14:15:22Z</time>
      </trkpt>
      <trkpt lat="43.78122" lon="2.32051">
        <ele>364.48</ele>
        <time>2011-12-04T14:15:38Z</time>
      </trkpt>
      <trkpt lat="43.7814" lon="2.32056">
        <ele>362.07</ele>
        <time>2011-12-04T14:15:53Z</time>
      </trkpt>
      <trkpt lat="43.78141" lon="2.32056">
        <ele>362.07</ele>
        <time>2011-12-04T14:15:54Z</time>
      </trkpt>
      <trkpt lat="43.78145" lon="2.32057">
        <ele>361.11</ele>
        <time>2011-12-04T14:15:57Z</time>
      </trkpt>
      <trkpt lat="43.7815" lon="2.32059">
        <ele>360.15</ele>
        <time>2011-12-04T14:16:02Z</time>
      </trkpt>
      <trkpt lat="43.78155" lon="2.32062">
        <ele>359.19</ele>
        <time>2011-12-04T14:16:06Z</time>
      </trkpt>
      <trkpt lat="43.78158" lon="2.32066">
        <ele>358.71</ele>
        <time>2011-12-04T14:16:09Z</time>
      </trkpt>
      <trkpt lat="43.78161" lon="2.32078">
        <ele>357.75</ele>
        <time>2011-12-04T14:16:23Z</time>
      </trkpt>
      <trkpt lat="43.78162" lon="2.32079">
        <ele>357.75</ele>
        <time>2011-12-04T14:16:44Z</time>
      </trkpt>
      <trkpt lat="43.78175" lon="2.32087">
        <ele>360.15</ele>
        <time>2011-12-04T14:16:56Z</time>
      </trkpt>
      <trkpt lat="43.78194" lon="2.32095">
        <ele>359.19</ele>
        <time>2011-12-04T14:17:11Z</time>
      </trkpt>
      <trkpt lat="43.78211" lon="2.32097">
        <ele>358.23</ele>
        <time>2011-12-04T14:17:25Z</time>
      </trkpt>
      <trkpt lat="43.78213" lon="2.32098">
        <ele>358.23</ele>
        <time>2011-12-04T14:17:27Z</time>
      </trkpt>
      <trkpt lat="43.78225" lon="2.32105">
        <ele>356.31</ele>
        <time>2011-12-04T14:17:36Z</time>
      </trkpt>
      <trkpt lat="43.78245" lon="2.32113">
        <ele>352.94</ele>
        <time>2011-12-04T14:17:53Z</time>
      </trkpt>
      <trkpt lat="43.78259" lon="2.3212">
        <ele>350.06</ele>
        <time>2011-12-04T14:18:06Z</time>
      </trkpt>
      <trkpt lat="43.78274" lon="2.32128">
        <ele>346.69</ele>
        <time>2011-12-04T14:18:19Z</time>
      </trkpt>
      <trkpt lat="43.78279" lon="2.32131">
        <ele>345.25</ele>
        <time>2011-12-04T14:18:24Z</time>
      </trkpt>
      <trkpt lat="43.78286" lon="2.32138">
        <ele>344.77</ele>
        <time>2011-12-04T14:18:30Z</time>
      </trkpt>
      <trkpt lat="43.78301" lon="2.32145">
        <ele>341.89</ele>
        <time>2011-12-04T14:18:43Z</time>
      </trkpt>
      <trkpt lat="43.78313" lon="2.32154">
        <ele>339.48</ele>
        <time>2011-12-04T14:18:55Z</time>
      </trkpt>
      <trkpt lat="43.78319" lon="2.32159">
        <ele>338.04</ele>
        <time>2011-12-04T14:19:00Z</time>
      </trkpt>
      <trkpt lat="43.78325" lon="2.3216">
        <ele>336.12</ele>
        <time>2011-12-04T14:19:05Z</time>
      </trkpt>
      <trkpt lat="43.78344" lon="2.32166">
        <ele>332.27</ele>
        <time>2011-12-04T14:19:20Z</time>
      </trkpt>
      <trkpt lat="43.78352" lon="2.32167">
        <ele>328.91</ele>
        <time>2011-12-04T14:19:28Z</time>
      </trkpt>
      <trkpt lat="43.78364" lon="2.32174">
        <ele>326.02</ele>
        <time>2011-12-04T14:19:38Z</time>
      </trkpt>
      <trkpt lat="43.7838" lon="2.32181">
        <ele>323.14</ele>
        <time>2011-12-04T14:19:52Z</time>
      </trkpt>
      <trkpt lat="43.78388" lon="2.32185">
        <ele>321.7</ele>
        <time>2011-12-04T14:20:03Z</time>
      </trkpt>
      <trkpt lat="43.7839" lon="2.32185">
        <ele>320.74</ele>
        <time>2011-12-04T14:20:05Z</time>
      </trkpt>
      <trkpt lat="43.78409" lon="2.32177">
        <ele>320.74</ele>
        <time>2011-12-04T14:20:20Z</time>
      </trkpt>
      <trkpt lat="43.78425" lon="2.32174">
        <ele>322.18</ele>
        <time>2011-12-04T14:20:33Z</time>
      </trkpt>
      <trkpt lat="43.78438" lon="2.32172">
        <ele>321.7</ele>
        <time>2011-12-04T14:20:45Z</time>
      </trkpt>
      <trkpt lat="43.78445" lon="2.32171">
        <ele>321.22</ele>
        <time>2011-12-04T14:20:50Z</time>
      </trkpt>
      <trkpt lat="43.78463" lon="2.32168">
        <ele>319.78</ele>
        <time>2011-12-04T14:21:04Z</time>
      </trkpt>
      <trkpt lat="43.78482" lon="2.32155">
        <ele>314.97</ele>
        <time>2011-12-04T14:21:21Z</time>
      </trkpt>
      <trkpt lat="43.78491" lon="2.32147">
        <ele>314.01</ele>
        <time>2011-12-04T14:21:32Z</time>
      </trkpt>
      <trkpt lat="43.78496" lon="2.32141">
        <ele>314.01</ele>
        <time>2011-12-04T14:21:42Z</time>
      </trkpt>
      <trkpt lat="43.78496" lon="2.32153">
        <ele>314.49</ele>
        <time>2011-12-04T14:21:50Z</time>
      </trkpt>
      <trkpt lat="43.78484" lon="2.32178">
        <ele>314.01</ele>
        <time>2011-12-04T14:22:04Z</time>
      </trkpt>
      <trkpt lat="43.78468" lon="2.32195">
        <ele>313.05</ele>
        <time>2011-12-04T14:22:21Z</time>
      </trkpt>
      <trkpt lat="43.78462" lon="2.32201">
        <ele>313.05</ele>
        <time>2011-12-04T14:22:26Z</time>
      </trkpt>
      <trkpt lat="43.78451" lon="2.3221">
        <ele>314.01</ele>
        <time>2011-12-04T14:22:36Z</time>
      </trkpt>
      <trkpt lat="43.78449" lon="2.32221">
        <ele>312.57</ele>
        <time>2011-12-04T14:22:42Z</time>
      </trkpt>
      <trkpt lat="43.78453" lon="2.32242">
        <ele>307.28</ele>
        <time>2011-12-04T14:22:53Z</time>
      </trkpt>
      <trkpt lat="43.78462" lon="2.32246">
        <ele>303.43</ele>
        <time>2011-12-04T14:23:01Z</time>
      </trkpt>
      <trkpt lat="43.78472" lon="2.32248">
        <ele>299.59</ele>
        <time>2011-12-04T14:23:14Z</time>
      </trkpt>
      <trkpt lat="43.78478" lon="2.32252">
        <ele>299.59</ele>
        <time>2011-12-04T14:23:18Z</time>
      </trkpt>
      <trkpt lat="43.78484" lon="2.32257">
        <ele>299.11</ele>
        <time>2011-12-04T14:23:24Z</time>
      </trkpt>
      <trkpt lat="43.78496" lon="2.32261">
        <ele>296.22</ele>
        <time>2011-12-04T14:23:35Z</time>
      </trkpt>
      <trkpt lat="43.78513" lon="2.32268">
        <ele>292.86</ele>
        <time>2011-12-04T14:23:49Z</time>
      </trkpt>
      <trkpt lat="43.78523" lon="2.32269">
        <ele>289.49</ele>
        <time>2011-12-04T14:24:04Z</time>
      </trkpt>
      <trkpt lat="43.78533" lon="2.3227">
        <ele>289.01</ele>
        <time>2011-12-04T14:24:18Z</time>
      </trkpt>
      <trkpt lat="43.78538" lon="2.3227">
        <ele>289.01</ele>
        <time>2011-12-04T14:24:22Z</time>
      </trkpt>
      <trkpt lat="43.78552" lon="2.32275">
        <ele>288.05</ele>
        <time>2011-12-04T14:24:33Z</time>
      </trkpt>
      <trkpt lat="43.78569" lon="2.32287">
        <ele>288.53</ele>
        <time>2011-12-04T14:24:47Z</time>
      </trkpt>
      <trkpt lat="43.78588" lon="2.32295">
        <ele>285.65</ele>
        <time>2011-12-04T14:25:02Z</time>
      </trkpt>
      <trkpt lat="43.7859" lon="2.32295">
        <ele>285.17</ele>
        <time>2011-12-04T14:25:04Z</time>
      </trkpt>
      <trkpt lat="43.78606" lon="2.32304">
        <ele>282.28</ele>
        <time>2011-12-04T14:25:19Z</time>
      </trkpt>
      <trkpt lat="43.78625" lon="2.32313">
        <ele>279.88</ele>
        <time>2011-12-04T14:25:34Z</time>
      </trkpt>
      <trkpt lat="43.78629" lon="2.32316">
        <ele>279.4</ele>
        <time>2011-12-04T14:25:37Z</time>
      </trkpt>
      <trkpt lat="43.78636" lon="2.32324">
        <ele>278.44</ele>
        <time>2011-12-04T14:25:45Z</time>
      </trkpt>
      <trkpt lat="43.78654" lon="2.32336">
        <ele>277.48</ele>
        <time>2011-12-04T14:26:01Z</time>
      </trkpt>
      <trkpt lat="43.78657" lon="2.3234">
        <ele>276.52</ele>
        <time>2011-12-04T14:26:04Z</time>
      </trkpt>
      <trkpt lat="43.78674" lon="2.32356">
        <ele>272.67</ele>
        <time>2011-12-04T14:26:20Z</time>
      </trkpt>
      <trkpt lat="43.78675" lon="2.32357">
        <ele>272.67</ele>
        <time>2011-12-04T14:26:21Z</time>
      </trkpt>
      <trkpt lat="43.78683" lon="2.32362">
        <ele>271.23</ele>
        <time>2011-12-04T14:26:28Z</time>
      </trkpt>
      <trkpt lat="43.78689" lon="2.32369">
        <ele>270.75</ele>
        <time>2011-12-04T14:26:34Z</time>
      </trkpt>
      <trkpt lat="43.78698" lon="2.32385">
        <ele>270.75</ele>
        <time>2011-12-04T14:26:46Z</time>
      </trkpt>
      <trkpt lat="43.78701" lon="2.32399">
        <ele>271.23</ele>
        <time>2011-12-04T14:26:53Z</time>
      </trkpt>
      <trkpt lat="43.78713" lon="2.3242">
        <ele>272.67</ele>
        <time>2011-12-04T14:27:08Z</time>
      </trkpt>
      <trkpt lat="43.78715" lon="2.32429">
        <ele>274.11</ele>
        <time>2011-12-04T14:27:12Z</time>
      </trkpt>
      <trkpt lat="43.78721" lon="2.32459">
        <ele>278.92</ele>
        <time>2011-12-04T14:27:28Z</time>
      </trkpt>
      <trkpt lat="43.78728" lon="2.32477">
        <ele>279.4</ele>
        <time>2011-12-04T14:27:39Z</time>
      </trkpt>
      <trkpt lat="43.7873" lon="2.32486">
        <ele>280.36</ele>
        <time>2011-12-04T14:27:45Z</time>
      </trkpt>
      <trkpt lat="43.78731" lon="2.3249">
        <ele>280.84</ele>
        <time>2011-12-04T14:27:47Z</time>
      </trkpt>
      <trkpt lat="43.78733" lon="2.32515">
        <ele>285.17</ele>
        <time>2011-12-04T14:28:02Z</time>
      </trkpt>
      <trkpt lat="43.78734" lon="2.32533">
        <ele>286.13</ele>
        <time>2011-12-04T14:28:12Z</time>
      </trkpt>
      <trkpt lat="43.78729" lon="2.32535">
        <ele>287.09</ele>
        <time>2011-12-04T14:28:24Z</time>
      </trkpt>
      <trkpt lat="43.78726" lon="2.32535">
        <ele>287.57</ele>
        <time>2011-12-04T14:28:29Z</time>
      </trkpt>
      <trkpt lat="43.78722" lon="2.32542">
        <ele>287.57</ele>
        <time>2011-12-04T14:28:46Z</time>
      </trkpt>
      <trkpt lat="43.78727" lon="2.32538">
        <ele>287.57</ele>
        <time>2011-12-04T14:28:50Z</time>
      </trkpt>
      <trkpt lat="43.78731" lon="2.32537">
        <ele>288.05</ele>
        <time>2011-12-04T14:28:54Z</time>
      </trkpt>
      <trkpt lat="43.7873" lon="2.32545">
        <ele>286.13</ele>
        <time>2011-12-04T14:29:07Z</time>
      </trkpt>
      <trkpt lat="43.7873" lon="2.3255">
        <ele>285.65</ele>
        <time>2011-12-04T14:29:52Z</time>
      </trkpt>
      <trkpt lat="43.78729" lon="2.32553">
        <ele>285.17</ele>
        <time>2011-12-04T14:30:04Z</time>
      </trkpt>
      <trkpt lat="43.78727" lon="2.32565">
        <ele>284.21</ele>
        <time>2011-12-04T14:30:13Z</time>
      </trkpt>
      <trkpt lat="43.78726" lon="2.32571">
        <ele>284.21</ele>
        <time>2011-12-04T14:30:18Z</time>
      </trkpt>
      <trkpt lat="43.78724" lon="2.32581">
        <ele>284.69</ele>
        <time>2011-12-04T14:30:25Z</time>
      </trkpt>
      <trkpt lat="43.78722" lon="2.3259">
        <ele>284.69</ele>
        <time>2011-12-04T14:30:30Z</time>
      </trkpt>
      <trkpt lat="43.78719" lon="2.32619">
        <ele>287.57</ele>
        <time>2011-12-04T14:30:46Z</time>
      </trkpt>
      <trkpt lat="43.78713" lon="2.32635">
        <ele>288.05</ele>
        <time>2011-12-04T14:30:58Z</time>
      </trkpt>
      <trkpt lat="43.7871" lon="2.32651">
        <ele>289.49</ele>
        <time>2011-12-04T14:31:09Z</time>
      </trkpt>
      <trkpt lat="43.78707" lon="2.32659">
        <ele>291.42</ele>
        <time>2011-12-04T14:31:13Z</time>
      </trkpt>
      <trkpt lat="43.78701" lon="2.32673">
        <ele>293.82</ele>
        <time>2011-12-04T14:31:23Z</time>
      </trkpt>
      <trkpt lat="43.78699" lon="2.32677">
        <ele>294.3</ele>
        <time>2011-12-04T14:31:26Z</time>
      </trkpt>
      <trkpt lat="43.78698" lon="2.32689">
        <ele>295.26</ele>
        <time>2011-12-04T14:31:33Z</time>
      </trkpt>
      <trkpt lat="43.78696" lon="2.32712">
        <ele>294.3</ele>
        <time>2011-12-04T14:31:47Z</time>
      </trkpt>
      <trkpt lat="43.78694" lon="2.32728">
        <ele>293.82</ele>
        <time>2011-12-04T14:32:00Z</time>
      </trkpt>
      <trkpt lat="43.78691" lon="2.32753">
        <ele>292.38</ele>
        <time>2011-12-04T14:32:13Z</time>
      </trkpt>
      <trkpt lat="43.78691" lon="2.32754">
        <ele>292.38</ele>
        <time>2011-12-04T14:32:14Z</time>
      </trkpt>
      <trkpt lat="43.78688" lon="2.32772">
        <ele>291.9</ele>
        <time>2011-12-04T14:32:28Z</time>
      </trkpt>
      <trkpt lat="43.7868" lon="2.32776">
        <ele>294.78</ele>
        <time>2011-12-04T14:32:41Z</time>
      </trkpt>
      <trkpt lat="43.78673" lon="2.32785">
        <ele>294.3</ele>
        <time>2011-12-04T14:32:52Z</time>
      </trkpt>
      <trkpt lat="43.78668" lon="2.32798">
        <ele>295.26</ele>
        <time>2011-12-04T14:33:06Z</time>
      </trkpt>
      <trkpt lat="43.78664" lon="2.32821">
        <ele>295.74</ele>
        <time>2011-12-04T14:33:21Z</time>
      </trkpt>
      <trkpt lat="43.78661" lon="2.32841">
        <ele>296.7</ele>
        <time>2011-12-04T14:33:37Z</time>
      </trkpt>
      <trkpt lat="43.7867" lon="2.32854">
        <ele>296.22</ele>
        <time>2011-12-04T14:33:49Z</time>
      </trkpt>
      <trkpt lat="43.78679" lon="2.32855">
        <ele>297.18</ele>
        <time>2011-12-04T14:34:00Z</time>
      </trkpt>
      <trkpt lat="43.78683" lon="2.32844">
        <ele>298.15</ele>
        <time>2011-12-04T14:34:08Z</time>
      </trkpt>
      <trkpt lat="43.78683" lon="2.3283">
        <ele>298.15</ele>
        <time>2011-12-04T14:34:17Z</time>
      </trkpt>
      <trkpt lat="43.78698" lon="2.32816">
        <ele>300.55</ele>
        <time>2011-12-04T14:34:32Z</time>
      </trkpt>
      <trkpt lat="43.78705" lon="2.32821">
        <ele>301.99</ele>
        <time>2011-12-04T14:34:42Z</time>
      </trkpt>
      <trkpt lat="43.78715" lon="2.32843">
        <ele>304.88</ele>
        <time>2011-12-04T14:34:58Z</time>
      </trkpt>
      <trkpt lat="43.78717" lon="2.32847">
        <ele>305.36</ele>
        <time>2011-12-04T14:35:07Z</time>
      </trkpt>
      <trkpt lat="43.78718" lon="2.32849">
        <ele>306.32</ele>
        <time>2011-12-04T14:35:12Z</time>
      </trkpt>
      <trkpt lat="43.78721" lon="2.32854">
        <ele>306.8</ele>
        <time>2011-12-04T14:35:30Z</time>
      </trkpt>
      <trkpt lat="43.78727" lon="2.32868">
        <ele>306.8</ele>
        <time>2011-12-04T14:35:43Z</time>
      </trkpt>
      <trkpt lat="43.78735" lon="2.32883">
        <ele>306.32</ele>
        <time>2011-12-04T14:35:58Z</time>
      </trkpt>
      <trkpt lat="43.78736" lon="2.32885">
        <ele>306.32</ele>
        <time>2011-12-04T14:36:00Z</time>
      </trkpt>
      <trkpt lat="43.78749" lon="2.32906">
        <ele>303.43</ele>
        <time>2011-12-04T14:36:15Z</time>
      </trkpt>
      <trkpt lat="43.7876" lon="2.32921">
        <ele>299.11</ele>
        <time>2011-12-04T14:36:29Z</time>
      </trkpt>
      <trkpt lat="43.78774" lon="2.32931">
        <ele>294.78</ele>
        <time>2011-12-04T14:36:42Z</time>
      </trkpt>
      <trkpt lat="43.78782" lon="2.32937">
        <ele>290.94</ele>
        <time>2011-12-04T14:36:51Z</time>
      </trkpt>
      <trkpt lat="43.78787" lon="2.32942">
        <ele>290.46</ele>
        <time>2011-12-04T14:36:55Z</time>
      </trkpt>
      <trkpt lat="43.78795" lon="2.32951">
        <ele>288.05</ele>
        <time>2011-12-04T14:37:03Z</time>
      </trkpt>
      <trkpt lat="43.7881" lon="2.32972">
        <ele>287.57</ele>
        <time>2011-12-04T14:37:19Z</time>
      </trkpt>
      <trkpt lat="43.78828" lon="2.32982">
        <ele>286.13</ele>
        <time>2011-12-04T14:37:34Z</time>
      </trkpt>
      <trkpt lat="43.78845" lon="2.32981">
        <ele>287.09</ele>
        <time>2011-12-04T14:37:48Z</time>
      </trkpt>
      <trkpt lat="43.78847" lon="2.3298">
        <ele>287.57</ele>
        <time>2011-12-04T14:37:49Z</time>
      </trkpt>
      <trkpt lat="43.78859" lon="2.32973">
        <ele>289.97</ele>
        <time>2011-12-04T14:38:05Z</time>
      </trkpt>
      <trkpt lat="43.7886" lon="2.32973">
        <ele>289.97</ele>
        <time>2011-12-04T14:38:22Z</time>
      </trkpt>
      <trkpt lat="43.7886" lon="2.32975">
        <ele>289.97</ele>
        <time>2011-12-04T14:39:26Z</time>
      </trkpt>
      <trkpt lat="43.7886" lon="2.32975">
        <ele>289.97</ele>
        <time>2011-12-04T14:39:44Z</time>
      </trkpt>
      <trkpt lat="43.78866" lon="2.32984">
        <ele>288.53</ele>
        <time>2011-12-04T14:40:40Z</time>
      </trkpt>
      <trkpt lat="43.78868" lon="2.32989">
        <ele>288.53</ele>
        <time>2011-12-04T14:40:42Z</time>
      </trkpt>
      <trkpt lat="43.78881" lon="2.33005">
        <ele>285.17</ele>
        <time>2011-12-04T14:40:58Z</time>
      </trkpt>
      <trkpt lat="43.78884" lon="2.33008">
        <ele>284.21</ele>
        <time>2011-12-04T14:41:01Z</time>
      </trkpt>
      <trkpt lat="43.78898" lon="2.33034">
        <ele>283.73</ele>
        <time>2011-12-04T14:41:20Z</time>
      </trkpt>
      <trkpt lat="43.78903" lon="2.3304">
        <ele>283.25</ele>
        <time>2011-12-04T14:41:26Z</time>
      </trkpt>
      <trkpt lat="43.78907" lon="2.33048">
        <ele>283.25</ele>
        <time>2011-12-04T14:41:32Z</time>
      </trkpt>
      <trkpt lat="43.78912" lon="2.33059">
        <ele>282.77</ele>
        <time>2011-12-04T14:41:41Z</time>
      </trkpt>
      <trkpt lat="43.78919" lon="2.33073">
        <ele>282.77</ele>
        <time>2011-12-04T14:41:53Z</time>
      </trkpt>
      <trkpt lat="43.78925" lon="2.33086">
        <ele>283.73</ele>
        <time>2011-12-04T14:42:04Z</time>
      </trkpt>
      <trkpt lat="43.78936" lon="2.33105">
        <ele>283.73</ele>
        <time>2011-12-04T14:42:19Z</time>
      </trkpt>
      <trkpt lat="43.78948" lon="2.33124">
        <ele>281.8</ele>
        <time>2011-12-04T14:42:34Z</time>
      </trkpt>
      <trkpt lat="43.78958" lon="2.33144">
        <ele>282.77</ele>
        <time>2011-12-04T14:42:49Z</time>
      </trkpt>
      <trkpt lat="43.78975" lon="2.3316">
        <ele>280.84</ele>
        <time>2011-12-04T14:43:06Z</time>
      </trkpt>
      <trkpt lat="43.78985" lon="2.3317">
        <ele>280.36</ele>
        <time>2011-12-04T14:43:21Z</time>
      </trkpt>
      <trkpt lat="43.78991" lon="2.33177">
        <ele>281.32</ele>
        <time>2011-12-04T14:43:29Z</time>
      </trkpt>
      <trkpt lat="43.78999" lon="2.33186">
        <ele>282.77</ele>
        <time>2011-12-04T14:43:45Z</time>
      </trkpt>
      <trkpt lat="43.78999" lon="2.33187">
        <ele>282.77</ele>
        <time>2011-12-04T14:43:49Z</time>
      </trkpt>
      <trkpt lat="43.79001" lon="2.33191">
        <ele>282.77</ele>
        <time>2011-12-04T14:43:51Z</time>
      </trkpt>
      <trkpt lat="43.79013" lon="2.33206">
        <ele>284.21</ele>
        <time>2011-12-04T14:44:06Z</time>
      </trkpt>
      <trkpt lat="43.79016" lon="2.3321">
        <ele>284.21</ele>
        <time>2011-12-04T14:44:14Z</time>
      </trkpt>
      <trkpt lat="43.79018" lon="2.33216">
        <ele>284.69</ele>
        <time>2011-12-04T14:44:18Z</time>
      </trkpt>
      <trkpt lat="43.79025" lon="2.33232">
        <ele>284.21</ele>
        <time>2011-12-04T14:44:31Z</time>
      </trkpt>
      <trkpt lat="43.79035" lon="2.33259">
        <ele>284.69</ele>
        <time>2011-12-04T14:44:48Z</time>
      </trkpt>
      <trkpt lat="43.79039" lon="2.33273">
        <ele>285.65</ele>
        <time>2011-12-04T14:45:01Z</time>
      </trkpt>
      <trkpt lat="43.79041" lon="2.3329">
        <ele>289.97</ele>
        <time>2011-12-04T14:45:15Z</time>
      </trkpt>
      <trkpt lat="43.79038" lon="2.33312">
        <ele>293.82</ele>
        <time>2011-12-04T14:45:31Z</time>
      </trkpt>
      <trkpt lat="43.79037" lon="2.33313">
        <ele>294.3</ele>
        <time>2011-12-04T14:45:32Z</time>
      </trkpt>
      <trkpt lat="43.79037" lon="2.33318">
        <ele>295.74</ele>
        <time>2011-12-04T14:45:35Z</time>
      </trkpt>
      <trkpt lat="43.7904" lon="2.33321">
        <ele>296.22</ele>
        <time>2011-12-04T14:45:39Z</time>
      </trkpt>
      <trkpt lat="43.79042" lon="2.33331">
        <ele>298.63</ele>
        <time>2011-12-04T14:45:45Z</time>
      </trkpt>
      <trkpt lat="43.7904" lon="2.3334">
        <ele>300.55</ele>
        <time>2011-12-04T14:45:51Z</time>
      </trkpt>
      <trkpt lat="43.79035" lon="2.33361">
        <ele>305.36</ele>
        <time>2011-12-04T14:46:06Z</time>
      </trkpt>
      <trkpt lat="43.79036" lon="2.33371">
        <ele>307.76</ele>
        <time>2011-12-04T14:46:14Z</time>
      </trkpt>
      <trkpt lat="43.79039" lon="2.33379">
        <ele>305.84</ele>
        <time>2011-12-04T14:46:32Z</time>
      </trkpt>
      <trkpt lat="43.7905" lon="2.33391">
        <ele>304.88</ele>
        <time>2011-12-04T14:46:42Z</time>
      </trkpt>
      <trkpt lat="43.79051" lon="2.33394">
        <ele>304.88</ele>
        <time>2011-12-04T14:46:45Z</time>
      </trkpt>
      <trkpt lat="43.79064" lon="2.33403">
        <ele>308.24</ele>
        <time>2011-12-04T14:47:02Z</time>
      </trkpt>
      <trkpt lat="43.79068" lon="2.33412">
        <ele>308.72</ele>
        <time>2011-12-04T14:47:15Z</time>
      </trkpt>
      <trkpt lat="43.79069" lon="2.33415">
        <ele>308.72</ele>
        <time>2011-12-04T14:47:18Z</time>
      </trkpt>
      <trkpt lat="43.79073" lon="2.33417">
        <ele>309.68</ele>
        <time>2011-12-04T14:47:22Z</time>
      </trkpt>
      <trkpt lat="43.79082" lon="2.33418">
        <ele>312.09</ele>
        <time>2011-12-04T14:47:35Z</time>
      </trkpt>
      <trkpt lat="43.79087" lon="2.33414">
        <ele>312.57</ele>
        <time>2011-12-04T14:47:39Z</time>
      </trkpt>
      <trkpt lat="43.79091" lon="2.33411">
        <ele>313.05</ele>
        <time>2011-12-04T14:47:43Z</time>
      </trkpt>
      <trkpt lat="43.79094" lon="2.33409">
        <ele>313.05</ele>
        <time>2011-12-04T14:47:54Z</time>
      </trkpt>
      <trkpt lat="43.79096" lon="2.3341">
        <ele>312.57</ele>
        <time>2011-12-04T14:48:48Z</time>
      </trkpt>
      <trkpt lat="43.79102" lon="2.33406">
        <ele>313.53</ele>
        <time>2011-12-04T14:48:54Z</time>
      </trkpt>
      <trkpt lat="43.79104" lon="2.33405">
        <ele>314.01</ele>
        <time>2011-12-04T14:48:57Z</time>
      </trkpt>
      <trkpt lat="43.79114" lon="2.33394">
        <ele>314.97</ele>
        <time>2011-12-04T14:49:14Z</time>
      </trkpt>
      <trkpt lat="43.79123" lon="2.3338">
        <ele>316.89</ele>
        <time>2011-12-04T14:49:27Z</time>
      </trkpt>
      <trkpt lat="43.79125" lon="2.33379">
        <ele>317.37</ele>
        <time>2011-12-04T14:49:35Z</time>
      </trkpt>
      <trkpt lat="43.79129" lon="2.33377">
        <ele>317.85</ele>
        <time>2011-12-04T14:49:39Z</time>
      </trkpt>
      <trkpt lat="43.79145" lon="2.33371">
        <ele>319.3</ele>
        <time>2011-12-04T14:49:54Z</time>
      </trkpt>
      <trkpt lat="43.79155" lon="2.33372">
        <ele>319.78</ele>
        <time>2011-12-04T14:50:11Z</time>
      </trkpt>
      <trkpt lat="43.79155" lon="2.33371">
        <ele>319.3</ele>
        <time>2011-12-04T14:52:30Z</time>
      </trkpt>
      <trkpt lat="43.79152" lon="2.33373">
        <ele>319.78</ele>
        <time>2011-12-04T14:54:17Z</time>
      </trkpt>
      <trkpt lat="43.79148" lon="2.33373">
        <ele>320.74</ele>
        <time>2011-12-04T14:54:20Z</time>
      </trkpt>
      <trkpt lat="43.79135" lon="2.33374">
        <ele>321.7</ele>
        <time>2011-12-04T14:54:35Z</time>
      </trkpt>
      <trkpt lat="43.79122" lon="2.33378">
        <ele>321.7</ele>
        <time>2011-12-04T14:54:51Z</time>
      </trkpt>
      <trkpt lat="43.79115" lon="2.33384">
        <ele>320.26</ele>
        <time>2011-12-04T14:55:00Z</time>
      </trkpt>
      <trkpt lat="43.79104" lon="2.33401">
        <ele>318.81</ele>
        <time>2011-12-04T14:55:16Z</time>
      </trkpt>
      <trkpt lat="43.79096" lon="2.33405">
        <ele>316.89</ele>
        <time>2011-12-04T14:55:32Z</time>
      </trkpt>
      <trkpt lat="43.79084" lon="2.33412">
        <ele>315.45</ele>
        <time>2011-12-04T14:55:47Z</time>
      </trkpt>
      <trkpt lat="43.79079" lon="2.33418">
        <ele>313.53</ele>
        <time>2011-12-04T14:55:58Z</time>
      </trkpt>
      <trkpt lat="43.79073" lon="2.33417">
        <ele>312.09</ele>
        <time>2011-12-04T14:56:06Z</time>
      </trkpt>
      <trkpt lat="43.79065" lon="2.33402">
        <ele>306.8</ele>
        <time>2011-12-04T14:56:20Z</time>
      </trkpt>
      <trkpt lat="43.79054" lon="2.33394">
        <ele>303.43</ele>
        <time>2011-12-04T14:56:33Z</time>
      </trkpt>
      <trkpt lat="43.79044" lon="2.33377">
        <ele>303.91</ele>
        <time>2011-12-04T14:56:48Z</time>
      </trkpt>
      <trkpt lat="43.79043" lon="2.33377">
        <ele>304.88</ele>
        <time>2011-12-04T14:56:51Z</time>
      </trkpt>
      <trkpt lat="43.79034" lon="2.33384">
        <ele>303.43</ele>
        <time>2011-12-04T14:57:01Z</time>
      </trkpt>
      <trkpt lat="43.79032" lon="2.33389">
        <ele>302.47</ele>
        <time>2011-12-04T14:57:05Z</time>
      </trkpt>
      <trkpt lat="43.79036" lon="2.3342">
        <ele>293.34</ele>
        <time>2011-12-04T14:57:20Z</time>
      </trkpt>
      <trkpt lat="43.79036" lon="2.33421">
        <ele>293.34</ele>
        <time>2011-12-04T14:57:21Z</time>
      </trkpt>
      <trkpt lat="43.79035" lon="2.33431">
        <ele>292.38</ele>
        <time>2011-12-04T14:57:27Z</time>
      </trkpt>
      <trkpt lat="43.79033" lon="2.33463">
        <ele>293.82</ele>
        <time>2011-12-04T14:57:42Z</time>
      </trkpt>
      <trkpt lat="43.79034" lon="2.33477">
        <ele>293.82</ele>
        <time>2011-12-04T14:57:52Z</time>
      </trkpt>
      <trkpt lat="43.79037" lon="2.33493">
        <ele>292.86</ele>
        <time>2011-12-04T14:58:02Z</time>
      </trkpt>
      <trkpt lat="43.79043" lon="2.33519">
        <ele>291.42</ele>
        <time>2011-12-04T14:58:16Z</time>
      </trkpt>
      <trkpt lat="43.79051" lon="2.33534">
        <ele>289.49</ele>
        <time>2011-12-04T14:58:30Z</time>
      </trkpt>
      <trkpt lat="43.79054" lon="2.33539">
        <ele>288.53</ele>
        <time>2011-12-04T14:58:34Z</time>
      </trkpt>
      <trkpt lat="43.79054" lon="2.33545">
        <ele>287.57</ele>
        <time>2011-12-04T14:58:38Z</time>
      </trkpt>
      <trkpt lat="43.79055" lon="2.33551">
        <ele>285.17</ele>
        <time>2011-12-04T14:58:43Z</time>
      </trkpt>
      <trkpt lat="43.79068" lon="2.33566">
        <ele>282.28</ele>
        <time>2011-12-04T14:58:59Z</time>
      </trkpt>
      <trkpt lat="43.7907" lon="2.33568">
        <ele>282.28</ele>
        <time>2011-12-04T14:59:02Z</time>
      </trkpt>
      <trkpt lat="43.79088" lon="2.33581">
        <ele>284.21</ele>
        <time>2011-12-04T14:59:18Z</time>
      </trkpt>
      <trkpt lat="43.79103" lon="2.33593">
        <ele>284.21</ele>
        <time>2011-12-04T14:59:34Z</time>
      </trkpt>
      <trkpt lat="43.79113" lon="2.33598">
        <ele>285.65</ele>
        <time>2011-12-04T14:59:47Z</time>
      </trkpt>
      <trkpt lat="43.79125" lon="2.33612">
        <ele>287.57</ele>
        <time>2011-12-04T15:00:02Z</time>
      </trkpt>
      <trkpt lat="43.79136" lon="2.33619">
        <ele>289.49</ele>
        <time>2011-12-04T15:00:15Z</time>
      </trkpt>
      <trkpt lat="43.7915" lon="2.33629">
        <ele>289.97</ele>
        <time>2011-12-04T15:00:30Z</time>
      </trkpt>
      <trkpt lat="43.79156" lon="2.33639">
        <ele>289.49</ele>
        <time>2011-12-04T15:00:37Z</time>
      </trkpt>
      <trkpt lat="43.7917" lon="2.33651">
        <ele>287.09</ele>
        <time>2011-12-04T15:00:52Z</time>
      </trkpt>
      <trkpt lat="43.79178" lon="2.3366">
        <ele>285.17</ele>
        <time>2011-12-04T15:00:59Z</time>
      </trkpt>
      <trkpt lat="43.79183" lon="2.33669">
        <ele>284.69</ele>
        <time>2011-12-04T15:01:06Z</time>
      </trkpt>
      <trkpt lat="43.79195" lon="2.33685">
        <ele>283.73</ele>
        <time>2011-12-04T15:01:18Z</time>
      </trkpt>
      <trkpt lat="43.79198" lon="2.33688">
        <ele>283.73</ele>
        <time>2011-12-04T15:01:21Z</time>
      </trkpt>
      <trkpt lat="43.79207" lon="2.33701">
        <ele>283.73</ele>
        <time>2011-12-04T15:01:34Z</time>
      </trkpt>
      <trkpt lat="43.79211" lon="2.33705">
        <ele>283.73</ele>
        <time>2011-12-04T15:01:39Z</time>
      </trkpt>
      <trkpt lat="43.79222" lon="2.33711">
        <ele>283.73</ele>
        <time>2011-12-04T15:01:51Z</time>
      </trkpt>
      <trkpt lat="43.79239" lon="2.33713">
        <ele>284.69</ele>
        <time>2011-12-04T15:02:06Z</time>
      </trkpt>
      <trkpt lat="43.7925" lon="2.33718">
        <ele>284.69</ele>
        <time>2011-12-04T15:02:19Z</time>
      </trkpt>
      <trkpt lat="43.79259" lon="2.33726">
        <ele>286.61</ele>
        <time>2011-12-04T15:02:29Z</time>
      </trkpt>
      <trkpt lat="43.79265" lon="2.33726">
        <ele>288.05</ele>
        <time>2011-12-04T15:02:34Z</time>
      </trkpt>
      <trkpt lat="43.79275" lon="2.33739">
        <ele>289.97</ele>
        <time>2011-12-04T15:02:49Z</time>
      </trkpt>
      <trkpt lat="43.79276" lon="2.33741">
        <ele>290.94</ele>
        <time>2011-12-04T15:02:52Z</time>
      </trkpt>
      <trkpt lat="43.79278" lon="2.33748">
        <ele>291.42</ele>
        <time>2011-12-04T15:02:56Z</time>
      </trkpt>
      <trkpt lat="43.79287" lon="2.33763">
        <ele>290.94</ele>
        <time>2011-12-04T15:03:10Z</time>
      </trkpt>
      <trkpt lat="43.79287" lon="2.33761">
        <ele>290.46</ele>
        <time>2011-12-04T15:03:19Z</time>
      </trkpt>
      <trkpt lat="43.79289" lon="2.33756">
        <ele>288.53</ele>
        <time>2011-12-04T15:03:41Z</time>
      </trkpt>
      <trkpt lat="43.79288" lon="2.33759">
        <ele>288.53</ele>
        <time>2011-12-04T15:04:17Z</time>
      </trkpt>
      <trkpt lat="43.79296" lon="2.33767">
        <ele>290.94</ele>
        <time>2011-12-04T15:04:26Z</time>
      </trkpt>
      <trkpt lat="43.79307" lon="2.33777">
        <ele>294.78</ele>
        <time>2011-12-04T15:04:42Z</time>
      </trkpt>
      <trkpt lat="43.79317" lon="2.33783">
        <ele>298.63</ele>
        <time>2011-12-04T15:04:54Z</time>
      </trkpt>
      <trkpt lat="43.79325" lon="2.33788">
        <ele>301.03</ele>
        <time>2011-12-04T15:05:06Z</time>
      </trkpt>
      <trkpt lat="43.79333" lon="2.33795">
        <ele>303.91</ele>
        <time>2011-12-04T15:05:17Z</time>
      </trkpt>
      <trkpt lat="43.79347" lon="2.33805">
        <ele>307.28</ele>
        <time>2011-12-04T15:05:30Z</time>
      </trkpt>
      <trkpt lat="43.79358" lon="2.33814">
        <ele>304.88</ele>
        <time>2011-12-04T15:05:42Z</time>
      </trkpt>
      <trkpt lat="43.79359" lon="2.33817">
        <ele>305.36</ele>
        <time>2011-12-04T15:05:44Z</time>
      </trkpt>
      <trkpt lat="43.79369" lon="2.33828">
        <ele>308.24</ele>
        <time>2011-12-04T15:05:57Z</time>
      </trkpt>
      <trkpt lat="43.79376" lon="2.3384">
        <ele>311.12</ele>
        <time>2011-12-04T15:06:09Z</time>
      </trkpt>
      <trkpt lat="43.7938" lon="2.33843">
        <ele>312.09</ele>
        <time>2011-12-04T15:06:14Z</time>
      </trkpt>
      <trkpt lat="43.79379" lon="2.3384">
        <ele>312.57</ele>
        <time>2011-12-04T15:06:52Z</time>
      </trkpt>
      <trkpt lat="43.79381" lon="2.33838">
        <ele>313.53</ele>
        <time>2011-12-04T15:08:56Z</time>
      </trkpt>
      <trkpt lat="43.79384" lon="2.33827">
        <ele>314.49</ele>
        <time>2011-12-04T15:09:03Z</time>
      </trkpt>
      <trkpt lat="43.7938" lon="2.3381">
        <ele>314.97</ele>
        <time>2011-12-04T15:09:18Z</time>
      </trkpt>
      <trkpt lat="43.79378" lon="2.33795">
        <ele>314.01</ele>
        <time>2011-12-04T15:09:32Z</time>
      </trkpt>
      <trkpt lat="43.79373" lon="2.33782">
        <ele>313.53</ele>
        <time>2011-12-04T15:09:44Z</time>
      </trkpt>
      <trkpt lat="43.79366" lon="2.3377">
        <ele>313.05</ele>
        <time>2011-12-04T15:09:53Z</time>
      </trkpt>
      <trkpt lat="43.79367" lon="2.33767">
        <ele>313.05</ele>
        <time>2011-12-04T15:09:55Z</time>
      </trkpt>
      <trkpt lat="43.79357" lon="2.33744">
        <ele>316.89</ele>
        <time>2011-12-04T15:10:11Z</time>
      </trkpt>
      <trkpt lat="43.79349" lon="2.33735">
        <ele>317.85</ele>
        <time>2011-12-04T15:10:19Z</time>
      </trkpt>
      <trkpt lat="43.79337" lon="2.33721">
        <ele>317.85</ele>
        <time>2011-12-04T15:10:33Z</time>
      </trkpt>
      <trkpt lat="43.79329" lon="2.33711">
        <ele>318.81</ele>
        <time>2011-12-04T15:10:45Z</time>
      </trkpt>
      <trkpt lat="43.7931" lon="2.33697">
        <ele>324.58</ele>
        <time>2011-12-04T15:11:00Z</time>
      </trkpt>
      <trkpt lat="43.79306" lon="2.33692">
        <ele>325.54</ele>
        <time>2011-12-04T15:11:06Z</time>
      </trkpt>
      <trkpt lat="43.793" lon="2.33684">
        <ele>325.54</ele>
        <time>2011-12-04T15:11:16Z</time>
      </trkpt>
      <trkpt lat="43.79297" lon="2.33682">
        <ele>325.54</ele>
        <time>2011-12-04T15:11:19Z</time>
      </trkpt>
      <trkpt lat="43.79288" lon="2.33671">
        <ele>326.99</ele>
        <time>2011-12-04T15:11:31Z</time>
      </trkpt>
      <trkpt lat="43.79287" lon="2.3367">
        <ele>326.99</ele>
        <time>2011-12-04T15:11:32Z</time>
      </trkpt>
      <trkpt lat="43.79285" lon="2.33669">
        <ele>326.02</ele>
        <time>2011-12-04T15:11:34Z</time>
      </trkpt>
      <trkpt lat="43.79281" lon="2.33667">
        <ele>325.54</ele>
        <time>2011-12-04T15:11:48Z</time>
      </trkpt>
      <trkpt lat="43.79281" lon="2.33667">
        <ele>325.54</ele>
        <time>2011-12-04T15:12:30Z</time>
      </trkpt>
      <trkpt lat="43.79283" lon="2.33667">
        <ele>325.54</ele>
        <time>2011-12-04T15:12:40Z</time>
      </trkpt>
      <trkpt lat="43.79291" lon="2.33667">
        <ele>326.02</ele>
        <time>2011-12-04T15:12:54Z</time>
      </trkpt>
      <trkpt lat="43.79292" lon="2.33668">
        <ele>326.99</ele>
        <time>2011-12-04T15:13:17Z</time>
      </trkpt>
      <trkpt lat="43.79293" lon="2.33668">
        <ele>327.95</ele>
        <time>2011-12-04T15:14:37Z</time>
      </trkpt>
      <trkpt lat="43.79296" lon="2.3367">
        <ele>328.43</ele>
        <time>2011-12-04T15:15:01Z</time>
      </trkpt>
      <trkpt lat="43.79311" lon="2.33676">
        <ele>332.27</ele>
        <time>2011-12-04T15:15:17Z</time>
      </trkpt>
      <trkpt lat="43.79312" lon="2.33676">
        <ele>332.27</ele>
        <time>2011-12-04T15:15:18Z</time>
      </trkpt>
      <trkpt lat="43.79324" lon="2.33681">
        <ele>333.71</ele>
        <time>2011-12-04T15:15:32Z</time>
      </trkpt>
      <trkpt lat="43.7933" lon="2.33684">
        <ele>334.2</ele>
        <time>2011-12-04T15:15:38Z</time>
      </trkpt>
      <trkpt lat="43.79334" lon="2.33688">
        <ele>335.64</ele>
        <time>2011-12-04T15:15:45Z</time>
      </trkpt>
      <trkpt lat="43.79345" lon="2.33694">
        <ele>339</ele>
        <time>2011-12-04T15:15:58Z</time>
      </trkpt>
      <trkpt lat="43.79357" lon="2.33698">
        <ele>344.29</ele>
        <time>2011-12-04T15:16:11Z</time>
      </trkpt>
      <trkpt lat="43.79367" lon="2.33703">
        <ele>345.73</ele>
        <time>2011-12-04T15:16:25Z</time>
      </trkpt>
      <trkpt lat="43.79381" lon="2.33708">
        <ele>346.21</ele>
        <time>2011-12-04T15:16:40Z</time>
      </trkpt>
      <trkpt lat="43.79395" lon="2.33716">
        <ele>345.73</ele>
        <time>2011-12-04T15:16:56Z</time>
      </trkpt>
      <trkpt lat="43.79406" lon="2.33723">
        <ele>348.62</ele>
        <time>2011-12-04T15:17:09Z</time>
      </trkpt>
      <trkpt lat="43.79417" lon="2.33727">
        <ele>351.02</ele>
        <time>2011-12-04T15:17:23Z</time>
      </trkpt>
      <trkpt lat="43.79423" lon="2.33732">
        <ele>350.06</ele>
        <time>2011-12-04T15:17:40Z</time>
      </trkpt>
      <trkpt lat="43.79427" lon="2.33737">
        <ele>350.54</ele>
        <time>2011-12-04T15:17:56Z</time>
      </trkpt>
      <trkpt lat="43.79433" lon="2.33742">
        <ele>351.5</ele>
        <time>2011-12-04T15:18:00Z</time>
      </trkpt>
      <trkpt lat="43.79446" lon="2.33752">
        <ele>351.02</ele>
        <time>2011-12-04T15:18:16Z</time>
      </trkpt>
      <trkpt lat="43.79454" lon="2.33758">
        <ele>351.02</ele>
        <time>2011-12-04T15:18:26Z</time>
      </trkpt>
      <trkpt lat="43.79468" lon="2.33765">
        <ele>351.5</ele>
        <time>2011-12-04T15:18:42Z</time>
      </trkpt>
      <trkpt lat="43.79479" lon="2.33772">
        <ele>353.42</ele>
        <time>2011-12-04T15:18:55Z</time>
      </trkpt>
      <trkpt lat="43.79481" lon="2.33773">
        <ele>353.9</ele>
        <time>2011-12-04T15:18:59Z</time>
      </trkpt>
      <trkpt lat="43.79494" lon="2.33784">
        <ele>354.38</ele>
        <time>2011-12-04T15:19:14Z</time>
      </trkpt>
      <trkpt lat="43.79509" lon="2.33784">
        <ele>353.42</ele>
        <time>2011-12-04T15:19:29Z</time>
      </trkpt>
      <trkpt lat="43.79526" lon="2.33782">
        <ele>353.42</ele>
        <time>2011-12-04T15:19:42Z</time>
      </trkpt>
      <trkpt lat="43.79543" lon="2.33774">
        <ele>353.42</ele>
        <time>2011-12-04T15:19:58Z</time>
      </trkpt>
      <trkpt lat="43.79558" lon="2.33769">
        <ele>354.38</ele>
        <time>2011-12-04T15:20:12Z</time>
      </trkpt>
      <trkpt lat="43.79572" lon="2.3376">
        <ele>355.34</ele>
        <time>2011-12-04T15:20:27Z</time>
      </trkpt>
      <trkpt lat="43.79588" lon="2.33754">
        <ele>356.31</ele>
        <time>2011-12-04T15:20:41Z</time>
      </trkpt>
      <trkpt lat="43.79595" lon="2.33752">
        <ele>356.79</ele>
        <time>2011-12-04T15:20:48Z</time>
      </trkpt>
      <trkpt lat="43.79596" lon="2.33751">
        <ele>357.75</ele>
        <time>2011-12-04T15:20:51Z</time>
      </trkpt>
      <trkpt lat="43.79605" lon="2.33749">
        <ele>358.71</ele>
        <time>2011-12-04T15:20:59Z</time>
      </trkpt>
      <trkpt lat="43.79618" lon="2.33744">
        <ele>360.15</ele>
        <time>2011-12-04T15:21:11Z</time>
      </trkpt>
      <trkpt lat="43.79625" lon="2.3374">
        <ele>360.15</ele>
        <time>2011-12-04T15:21:20Z</time>
      </trkpt>
      <trkpt lat="43.79641" lon="2.33733">
        <ele>361.11</ele>
        <time>2011-12-04T15:21:34Z</time>
      </trkpt>
      <trkpt lat="43.79647" lon="2.33733">
        <ele>362.55</ele>
        <time>2011-12-04T15:21:38Z</time>
      </trkpt>
      <trkpt lat="43.79656" lon="2.33732">
        <ele>364.96</ele>
        <time>2011-12-04T15:21:52Z</time>
      </trkpt>
      <trkpt lat="43.79664" lon="2.33729">
        <ele>369.28</ele>
        <time>2011-12-04T15:22:05Z</time>
      </trkpt>
      <trkpt lat="43.79668" lon="2.3373">
        <ele>368.8</ele>
        <time>2011-12-04T15:22:08Z</time>
      </trkpt>
      <trkpt lat="43.79671" lon="2.33731">
        <ele>369.76</ele>
        <time>2011-12-04T15:22:13Z</time>
      </trkpt>
      <trkpt lat="43.79669" lon="2.33737">
        <ele>370.24</ele>
        <time>2011-12-04T15:22:20Z</time>
      </trkpt>
      <trkpt lat="43.79663" lon="2.33751">
        <ele>368.32</ele>
        <time>2011-12-04T15:22:35Z</time>
      </trkpt>
      <trkpt lat="43.79659" lon="2.33768">
        <ele>366.88</ele>
        <time>2011-12-04T15:22:49Z</time>
      </trkpt>
      <trkpt lat="43.79658" lon="2.3377">
        <ele>367.84</ele>
        <time>2011-12-04T15:22:51Z</time>
      </trkpt>
      <trkpt lat="43.79655" lon="2.33788">
        <ele>369.76</ele>
        <time>2011-12-04T15:23:05Z</time>
      </trkpt>
      <trkpt lat="43.79651" lon="2.33802">
        <ele>371.21</ele>
        <time>2011-12-04T15:23:19Z</time>
      </trkpt>
      <trkpt lat="43.7965" lon="2.33806">
        <ele>371.21</ele>
        <time>2011-12-04T15:23:22Z</time>
      </trkpt>
      <trkpt lat="43.79646" lon="2.33817">
        <ele>372.65</ele>
        <time>2011-12-04T15:23:31Z</time>
      </trkpt>
      <trkpt lat="43.79641" lon="2.33832">
        <ele>376.01</ele>
        <time>2011-12-04T15:23:43Z</time>
      </trkpt>
      <trkpt lat="43.79637" lon="2.33841">
        <ele>377.45</ele>
        <time>2011-12-04T15:23:52Z</time>
      </trkpt>
      <trkpt lat="43.79634" lon="2.33848">
        <ele>378.42</ele>
        <time>2011-12-04T15:23:58Z</time>
      </trkpt>
      <trkpt lat="43.79633" lon="2.33854">
        <ele>378.42</ele>
        <time>2011-12-04T15:24:02Z</time>
      </trkpt>
      <trkpt lat="43.79626" lon="2.33869">
        <ele>379.86</ele>
        <time>2011-12-04T15:24:16Z</time>
      </trkpt>
      <trkpt lat="43.79625" lon="2.33871">
        <ele>379.86</ele>
        <time>2011-12-04T15:24:18Z</time>
      </trkpt>
      <trkpt lat="43.79624" lon="2.33874">
        <ele>380.34</ele>
        <time>2011-12-04T15:24:20Z</time>
      </trkpt>
      <trkpt lat="43.79618" lon="2.33893">
        <ele>379.86</ele>
        <time>2011-12-04T15:24:34Z</time>
      </trkpt>
      <trkpt lat="43.79612" lon="2.33918">
        <ele>381.3</ele>
        <time>2011-12-04T15:24:49Z</time>
      </trkpt>
      <trkpt lat="43.79607" lon="2.33942">
        <ele>381.78</ele>
        <time>2011-12-04T15:25:04Z</time>
      </trkpt>
      <trkpt lat="43.79606" lon="2.33946">
        <ele>381.78</ele>
        <time>2011-12-04T15:25:06Z</time>
      </trkpt>
      <trkpt lat="43.79604" lon="2.33976">
        <ele>383.22</ele>
        <time>2011-12-04T15:25:21Z</time>
      </trkpt>
      <trkpt lat="43.79608" lon="2.33996">
        <ele>385.15</ele>
        <time>2011-12-04T15:25:35Z</time>
      </trkpt>
      <trkpt lat="43.7961" lon="2.34008">
        <ele>385.15</ele>
        <time>2011-12-04T15:25:40Z</time>
      </trkpt>
      <trkpt lat="43.79611" lon="2.34012">
        <ele>384.66</ele>
        <time>2011-12-04T15:25:43Z</time>
      </trkpt>
      <trkpt lat="43.7962" lon="2.3403">
        <ele>384.18</ele>
        <time>2011-12-04T15:25:57Z</time>
      </trkpt>
      <trkpt lat="43.79627" lon="2.34045">
        <ele>382.74</ele>
        <time>2011-12-04T15:26:09Z</time>
      </trkpt>
      <trkpt lat="43.79636" lon="2.34059">
        <ele>381.78</ele>
        <time>2011-12-04T15:26:22Z</time>
      </trkpt>
      <trkpt lat="43.79648" lon="2.34073">
        <ele>381.78</ele>
        <time>2011-12-04T15:26:36Z</time>
      </trkpt>
      <trkpt lat="43.79658" lon="2.3408">
        <ele>381.78</ele>
        <time>2011-12-04T15:26:50Z</time>
      </trkpt>
      <trkpt lat="43.79655" lon="2.34078">
        <ele>380.82</ele>
        <time>2011-12-04T15:27:40Z</time>
      </trkpt>
      <trkpt lat="43.79655" lon="2.34081">
        <ele>380.82</ele>
        <time>2011-12-04T15:28:39Z</time>
      </trkpt>
      <trkpt lat="43.79657" lon="2.34083">
        <ele>381.78</ele>
        <time>2011-12-04T15:28:55Z</time>
      </trkpt>
      <trkpt lat="43.79667" lon="2.34092">
        <ele>383.7</ele>
        <time>2011-12-04T15:29:04Z</time>
      </trkpt>
      <trkpt lat="43.79677" lon="2.34105">
        <ele>385.63</ele>
        <time>2011-12-04T15:29:18Z</time>
      </trkpt>
      <trkpt lat="43.7968" lon="2.3411">
        <ele>385.63</ele>
        <time>2011-12-04T15:29:23Z</time>
      </trkpt>
      <trkpt lat="43.79686" lon="2.34113">
        <ele>387.55</ele>
        <time>2011-12-04T15:29:40Z</time>
      </trkpt>
      <trkpt lat="43.79686" lon="2.34114">
        <ele>387.55</ele>
        <time>2011-12-04T15:30:16Z</time>
      </trkpt>
      <trkpt lat="43.7969" lon="2.34114">
        <ele>388.51</ele>
        <time>2011-12-04T15:31:19Z</time>
      </trkpt>
      <trkpt lat="43.79708" lon="2.34117">
        <ele>388.51</ele>
        <time>2011-12-04T15:31:36Z</time>
      </trkpt>
      <trkpt lat="43.79724" lon="2.34121">
        <ele>387.07</ele>
        <time>2011-12-04T15:31:50Z</time>
      </trkpt>
      <trkpt lat="43.79738" lon="2.34133">
        <ele>387.55</ele>
        <time>2011-12-04T15:32:04Z</time>
      </trkpt>
      <trkpt lat="43.79752" lon="2.34144">
        <ele>390.91</ele>
        <time>2011-12-04T15:32:21Z</time>
      </trkpt>
      <trkpt lat="43.79763" lon="2.34149">
        <ele>394.28</ele>
        <time>2011-12-04T15:32:33Z</time>
      </trkpt>
      <trkpt lat="43.79776" lon="2.34152">
        <ele>397.16</ele>
        <time>2011-12-04T15:32:47Z</time>
      </trkpt>
      <trkpt lat="43.79783" lon="2.3415">
        <ele>400.05</ele>
        <time>2011-12-04T15:33:01Z</time>
      </trkpt>
      <trkpt lat="43.79783" lon="2.34151">
        <ele>400.53</ele>
        <time>2011-12-04T15:33:02Z</time>
      </trkpt>
      <trkpt lat="43.79788" lon="2.34147">
        <ele>402.45</ele>
        <time>2011-12-04T15:33:08Z</time>
      </trkpt>
      <trkpt lat="43.79799" lon="2.34148">
        <ele>404.85</ele>
        <time>2011-12-04T15:33:22Z</time>
      </trkpt>
      <trkpt lat="43.798" lon="2.34148">
        <ele>404.85</ele>
        <time>2011-12-04T15:33:54Z</time>
      </trkpt>
      <trkpt lat="43.79797" lon="2.34145">
        <ele>405.81</ele>
        <time>2011-12-04T15:34:18Z</time>
      </trkpt>
      <trkpt lat="43.79787" lon="2.34143">
        <ele>406.29</ele>
        <time>2011-12-04T15:36:12Z</time>
      </trkpt>
      <trkpt lat="43.79784" lon="2.34145">
        <ele>406.77</ele>
        <time>2011-12-04T15:36:15Z</time>
      </trkpt>
      <trkpt lat="43.79781" lon="2.34151">
        <ele>404.85</ele>
        <time>2011-12-04T15:36:19Z</time>
      </trkpt>
      <trkpt lat="43.79778" lon="2.34171">
        <ele>405.33</ele>
        <time>2011-12-04T15:36:32Z</time>
      </trkpt>
      <trkpt lat="43.79775" lon="2.34183">
        <ele>405.33</ele>
        <time>2011-12-04T15:36:40Z</time>
      </trkpt>
      <trkpt lat="43.79773" lon="2.34186">
        <ele>405.33</ele>
        <time>2011-12-04T15:36:43Z</time>
      </trkpt>
      <trkpt lat="43.79766" lon="2.34202">
        <ele>407.26</ele>
        <time>2011-12-04T15:36:54Z</time>
      </trkpt>
      <trkpt lat="43.79757" lon="2.34224">
        <ele>406.77</ele>
        <time>2011-12-04T15:37:09Z</time>
      </trkpt>
      <trkpt lat="43.7975" lon="2.34237">
        <ele>407.74</ele>
        <time>2011-12-04T15:37:18Z</time>
      </trkpt>
      <trkpt lat="43.79745" lon="2.3425">
        <ele>408.22</ele>
        <time>2011-12-04T15:37:27Z</time>
      </trkpt>
      <trkpt lat="43.79744" lon="2.34256">
        <ele>408.22</ele>
        <time>2011-12-04T15:37:32Z</time>
      </trkpt>
      <trkpt lat="43.79742" lon="2.34261">
        <ele>408.7</ele>
        <time>2011-12-04T15:37:35Z</time>
      </trkpt>
      <trkpt lat="43.7974" lon="2.34263">
        <ele>409.18</ele>
        <time>2011-12-04T15:37:37Z</time>
      </trkpt>
      <trkpt lat="43.7974" lon="2.34277">
        <ele>408.22</ele>
        <time>2011-12-04T15:37:53Z</time>
      </trkpt>
      <trkpt lat="43.79745" lon="2.3428">
        <ele>409.18</ele>
        <time>2011-12-04T15:38:09Z</time>
      </trkpt>
      <trkpt lat="43.79745" lon="2.3428">
        <ele>409.18</ele>
        <time>2011-12-04T15:38:15Z</time>
      </trkpt>
      <trkpt lat="43.79746" lon="2.34295">
        <ele>410.14</ele>
        <time>2011-12-04T15:38:26Z</time>
      </trkpt>
      <trkpt lat="43.79745" lon="2.34298">
        <ele>411.1</ele>
        <time>2011-12-04T15:38:48Z</time>
      </trkpt>
      <trkpt lat="43.79738" lon="2.34305">
        <ele>412.54</ele>
        <time>2011-12-04T15:39:20Z</time>
      </trkpt>
      <trkpt lat="43.79736" lon="2.34304">
        <ele>412.54</ele>
        <time>2011-12-04T15:40:04Z</time>
      </trkpt>
      <trkpt lat="43.79731" lon="2.34309">
        <ele>412.06</ele>
        <time>2011-12-04T15:40:18Z</time>
      </trkpt>
      <trkpt lat="43.79731" lon="2.3431">
        <ele>411.1</ele>
        <time>2011-12-04T15:40:20Z</time>
      </trkpt>
      <trkpt lat="43.79713" lon="2.34323">
        <ele>406.77</ele>
        <time>2011-12-04T15:40:37Z</time>
      </trkpt>
      <trkpt lat="43.79703" lon="2.34331">
        <ele>404.85</ele>
        <time>2011-12-04T15:40:47Z</time>
      </trkpt>
      <trkpt lat="43.79693" lon="2.34348">
        <ele>402.93</ele>
        <time>2011-12-04T15:41:00Z</time>
      </trkpt>
      <trkpt lat="43.79685" lon="2.34356">
        <ele>400.53</ele>
        <time>2011-12-04T15:41:08Z</time>
      </trkpt>
      <trkpt lat="43.79667" lon="2.34369">
        <ele>401.01</ele>
        <time>2011-12-04T15:41:24Z</time>
      </trkpt>
      <trkpt lat="43.79664" lon="2.34373">
        <ele>400.53</ele>
        <time>2011-12-04T15:41:35Z</time>
      </trkpt>
      <trkpt lat="43.79663" lon="2.34374">
        <ele>400.53</ele>
        <time>2011-12-04T15:41:37Z</time>
      </trkpt>
      <trkpt lat="43.79658" lon="2.34381">
        <ele>400.53</ele>
        <time>2011-12-04T15:41:43Z</time>
      </trkpt>
      <trkpt lat="43.79654" lon="2.34395">
        <ele>400.53</ele>
        <time>2011-12-04T15:41:56Z</time>
      </trkpt>
      <trkpt lat="43.7965" lon="2.34412">
        <ele>402.93</ele>
        <time>2011-12-04T15:42:11Z</time>
      </trkpt>
      <trkpt lat="43.79648" lon="2.34425">
        <ele>405.33</ele>
        <time>2011-12-04T15:42:24Z</time>
      </trkpt>
      <trkpt lat="43.79647" lon="2.34434">
        <ele>407.74</ele>
        <time>2011-12-04T15:42:36Z</time>
      </trkpt>
      <trkpt lat="43.79646" lon="2.34436">
        <ele>408.22</ele>
        <time>2011-12-04T15:42:39Z</time>
      </trkpt>
      <trkpt lat="43.79646" lon="2.3444">
        <ele>409.18</ele>
        <time>2011-12-04T15:42:43Z</time>
      </trkpt>
      <trkpt lat="43.79642" lon="2.34447">
        <ele>409.66</ele>
        <time>2011-12-04T15:42:49Z</time>
      </trkpt>
      <trkpt lat="43.79632" lon="2.34459">
        <ele>409.66</ele>
        <time>2011-12-04T15:43:01Z</time>
      </trkpt>
      <trkpt lat="43.79625" lon="2.34468">
        <ele>410.14</ele>
        <time>2011-12-04T15:43:15Z</time>
      </trkpt>
      <trkpt lat="43.79625" lon="2.34468">
        <ele>410.14</ele>
        <time>2011-12-04T15:43:26Z</time>
      </trkpt>
      <trkpt lat="43.79619" lon="2.34485">
        <ele>410.14</ele>
        <time>2011-12-04T15:43:40Z</time>
      </trkpt>
      <trkpt lat="43.79616" lon="2.34484">
        <ele>410.62</ele>
        <time>2011-12-04T15:43:54Z</time>
      </trkpt>
      <trkpt lat="43.79616" lon="2.34484">
        <ele>410.14</ele>
        <time>2011-12-04T15:44:17Z</time>
      </trkpt>
      <trkpt lat="43.79606" lon="2.34487">
        <ele>407.74</ele>
        <time>2011-12-04T15:44:31Z</time>
      </trkpt>
      <trkpt lat="43.79604" lon="2.34488">
        <ele>407.26</ele>
        <time>2011-12-04T15:44:54Z</time>
      </trkpt>
      <trkpt lat="43.79602" lon="2.34495">
        <ele>406.77</ele>
        <time>2011-12-04T15:45:05Z</time>
      </trkpt>
      <trkpt lat="43.796" lon="2.34499">
        <ele>406.29</ele>
        <time>2011-12-04T15:45:19Z</time>
      </trkpt>
      <trkpt lat="43.796" lon="2.34499">
        <ele>406.29</ele>
        <time>2011-12-04T15:45:27Z</time>
      </trkpt>
      <trkpt lat="43.79594" lon="2.34508">
        <ele>404.85</ele>
        <time>2011-12-04T15:45:39Z</time>
      </trkpt>
      <trkpt lat="43.79595" lon="2.34509">
        <ele>405.33</ele>
        <time>2011-12-04T15:45:50Z</time>
      </trkpt>
      <trkpt lat="43.79602" lon="2.34512">
        <ele>407.26</ele>
        <time>2011-12-04T15:46:01Z</time>
      </trkpt>
      <trkpt lat="43.79605" lon="2.34511">
        <ele>407.74</ele>
        <time>2011-12-04T15:46:16Z</time>
      </trkpt>
      <trkpt lat="43.79611" lon="2.34502">
        <ele>408.7</ele>
        <time>2011-12-04T15:46:28Z</time>
      </trkpt>
      <trkpt lat="43.79617" lon="2.34492">
        <ele>408.7</ele>
        <time>2011-12-04T15:46:41Z</time>
      </trkpt>
      <trkpt lat="43.79623" lon="2.34484">
        <ele>409.18</ele>
        <time>2011-12-04T15:46:52Z</time>
      </trkpt>
      <trkpt lat="43.79625" lon="2.34483">
        <ele>409.18</ele>
        <time>2011-12-04T15:46:54Z</time>
      </trkpt>
      <trkpt lat="43.79626" lon="2.34481">
        <ele>409.18</ele>
        <time>2011-12-04T15:46:56Z</time>
      </trkpt>
      <trkpt lat="43.79637" lon="2.34471">
        <ele>411.1</ele>
        <time>2011-12-04T15:47:12Z</time>
      </trkpt>
      <trkpt lat="43.79646" lon="2.34464">
        <ele>413.02</ele>
        <time>2011-12-04T15:47:26Z</time>
      </trkpt>
      <trkpt lat="43.79656" lon="2.34455">
        <ele>413.5</ele>
        <time>2011-12-04T15:47:39Z</time>
      </trkpt>
      <trkpt lat="43.79668" lon="2.34445">
        <ele>414.95</ele>
        <time>2011-12-04T15:47:53Z</time>
      </trkpt>
      <trkpt lat="43.79676" lon="2.34436">
        <ele>415.91</ele>
        <time>2011-12-04T15:48:07Z</time>
      </trkpt>
      <trkpt lat="43.79678" lon="2.34436">
        <ele>415.91</ele>
        <time>2011-12-04T15:48:10Z</time>
      </trkpt>
      <trkpt lat="43.79684" lon="2.34434">
        <ele>415.91</ele>
        <time>2011-12-04T15:48:25Z</time>
      </trkpt>
      <trkpt lat="43.79697" lon="2.34429">
        <ele>415.91</ele>
        <time>2011-12-04T15:48:39Z</time>
      </trkpt>
      <trkpt lat="43.79716" lon="2.34419">
        <ele>416.39</ele>
        <time>2011-12-04T15:48:57Z</time>
      </trkpt>
      <trkpt lat="43.79733" lon="2.34406">
        <ele>416.87</ele>
        <time>2011-12-04T15:49:15Z</time>
      </trkpt>
      <trkpt lat="43.79735" lon="2.34403">
        <ele>416.39</ele>
        <time>2011-12-04T15:49:18Z</time>
      </trkpt>
      <trkpt lat="43.79741" lon="2.34396">
        <ele>416.39</ele>
        <time>2011-12-04T15:49:25Z</time>
      </trkpt>
      <trkpt lat="43.79746" lon="2.34389">
        <ele>416.87</ele>
        <time>2011-12-04T15:49:31Z</time>
      </trkpt>
      <trkpt lat="43.79755" lon="2.34379">
        <ele>417.83</ele>
        <time>2011-12-04T15:49:41Z</time>
      </trkpt>
      <trkpt lat="43.79756" lon="2.34376">
        <ele>417.83</ele>
        <time>2011-12-04T15:49:43Z</time>
      </trkpt>
      <trkpt lat="43.79768" lon="2.34362">
        <ele>418.31</ele>
        <time>2011-12-04T15:49:58Z</time>
      </trkpt>
      <trkpt lat="43.79774" lon="2.34352">
        <ele>419.75</ele>
        <time>2011-12-04T15:50:06Z</time>
      </trkpt>
      <trkpt lat="43.79775" lon="2.3435">
        <ele>420.23</ele>
        <time>2011-12-04T15:50:08Z</time>
      </trkpt>
      <trkpt lat="43.79785" lon="2.34334">
        <ele>419.27</ele>
        <time>2011-12-04T15:50:23Z</time>
      </trkpt>
      <trkpt lat="43.79798" lon="2.34323">
        <ele>420.71</ele>
        <time>2011-12-04T15:50:38Z</time>
      </trkpt>
      <trkpt lat="43.79805" lon="2.3432">
        <ele>422.64</ele>
        <time>2011-12-04T15:50:45Z</time>
      </trkpt>
      <trkpt lat="43.79821" lon="2.34316">
        <ele>426</ele>
        <time>2011-12-04T15:51:00Z</time>
      </trkpt>
      <trkpt lat="43.79841" lon="2.34307">
        <ele>427.44</ele>
        <time>2011-12-04T15:51:17Z</time>
      </trkpt>
      <trkpt lat="43.79844" lon="2.34305">
        <ele>427.92</ele>
        <time>2011-12-04T15:51:20Z</time>
      </trkpt>
      <trkpt lat="43.79859" lon="2.343">
        <ele>429.37</ele>
        <time>2011-12-04T15:51:34Z</time>
      </trkpt>
      <trkpt lat="43.79861" lon="2.34298">
        <ele>429.37</ele>
        <time>2011-12-04T15:51:37Z</time>
      </trkpt>
      <trkpt lat="43.79863" lon="2.34298">
        <ele>428.89</ele>
        <time>2011-12-04T15:51:40Z</time>
      </trkpt>
      <trkpt lat="43.79865" lon="2.34303">
        <ele>428.4</ele>
        <time>2011-12-04T15:51:46Z</time>
      </trkpt>
      <trkpt lat="43.79867" lon="2.34323">
        <ele>429.85</ele>
        <time>2011-12-04T15:52:01Z</time>
      </trkpt>
      <trkpt lat="43.79875" lon="2.34341">
        <ele>429.37</ele>
        <time>2011-12-04T15:52:15Z</time>
      </trkpt>
      <trkpt lat="43.79875" lon="2.34343">
        <ele>429.37</ele>
        <time>2011-12-04T15:52:17Z</time>
      </trkpt>
      <trkpt lat="43.79875" lon="2.34351">
        <ele>429.85</ele>
        <time>2011-12-04T15:52:23Z</time>
      </trkpt>
      <trkpt lat="43.79882" lon="2.34354">
        <ele>431.29</ele>
        <time>2011-12-04T15:52:36Z</time>
      </trkpt>
      <trkpt lat="43.79881" lon="2.34353">
        <ele>431.29</ele>
        <time>2011-12-04T15:53:02Z</time>
      </trkpt>
      <trkpt lat="43.79878" lon="2.34352">
        <ele>431.29</ele>
        <time>2011-12-04T15:53:20Z</time>
      </trkpt>
      <trkpt lat="43.79876" lon="2.34356">
        <ele>431.77</ele>
        <time>2011-12-04T15:54:00Z</time>
      </trkpt>
      <trkpt lat="43.79876" lon="2.34358">
        <ele>431.77</ele>
        <time>2011-12-04T15:54:25Z</time>
      </trkpt>
      <trkpt lat="43.79879" lon="2.34355">
        <ele>432.73</ele>
        <time>2011-12-04T15:54:37Z</time>
      </trkpt>
      <trkpt lat="43.7988" lon="2.34351">
        <ele>432.73</ele>
        <time>2011-12-04T15:54:40Z</time>
      </trkpt>
      <trkpt lat="43.79893" lon="2.34353">
        <ele>431.77</ele>
        <time>2011-12-04T15:54:55Z</time>
      </trkpt>
      <trkpt lat="43.79908" lon="2.34345">
        <ele>429.85</ele>
        <time>2011-12-04T15:55:09Z</time>
      </trkpt>
      <trkpt lat="43.79919" lon="2.34329">
        <ele>427.44</ele>
        <time>2011-12-04T15:55:23Z</time>
      </trkpt>
      <trkpt lat="43.79919" lon="2.34327">
        <ele>427.44</ele>
        <time>2011-12-04T15:55:44Z</time>
      </trkpt>
      <trkpt lat="43.79919" lon="2.34327">
        <ele>427.44</ele>
        <time>2011-12-04T15:56:29Z</time>
      </trkpt>
      <trkpt lat="43.79919" lon="2.34325">
        <ele>427.44</ele>
        <time>2011-12-04T15:56:38Z</time>
      </trkpt>
      <trkpt lat="43.79925" lon="2.34299">
        <ele>427.92</ele>
        <time>2011-12-04T15:56:54Z</time>
      </trkpt>
      <trkpt lat="43.79928" lon="2.34276">
        <ele>428.4</ele>
        <time>2011-12-04T15:57:09Z</time>
      </trkpt>
      <trkpt lat="43.7994" lon="2.34245">
        <ele>429.37</ele>
        <time>2011-12-04T15:57:27Z</time>
      </trkpt>
      <trkpt lat="43.7995" lon="2.34222">
        <ele>429.37</ele>
        <time>2011-12-04T15:57:43Z</time>
      </trkpt>
      <trkpt lat="43.7996" lon="2.342">
        <ele>428.4</ele>
        <time>2011-12-04T15:57:58Z</time>
      </trkpt>
      <trkpt lat="43.79967" lon="2.34188">
        <ele>428.89</ele>
        <time>2011-12-04T15:58:12Z</time>
      </trkpt>
      <trkpt lat="43.79969" lon="2.34187">
        <ele>428.4</ele>
        <time>2011-12-04T15:58:14Z</time>
      </trkpt>
      <trkpt lat="43.79987" lon="2.34178">
        <ele>426.96</ele>
        <time>2011-12-04T15:58:31Z</time>
      </trkpt>
      <trkpt lat="43.80006" lon="2.34165">
        <ele>425.04</ele>
        <time>2011-12-04T15:58:47Z</time>
      </trkpt>
      <trkpt lat="43.80016" lon="2.34158">
        <ele>424.08</ele>
        <time>2011-12-04T15:58:55Z</time>
      </trkpt>
      <trkpt lat="43.80024" lon="2.34151">
        <ele>423.12</ele>
        <time>2011-12-04T15:59:03Z</time>
      </trkpt>
      <trkpt lat="43.80042" lon="2.34146">
        <ele>422.64</ele>
        <time>2011-12-04T15:59:17Z</time>
      </trkpt>
      <trkpt lat="43.80063" lon="2.34148">
        <ele>420.71</ele>
        <time>2011-12-04T15:59:32Z</time>
      </trkpt>
      <trkpt lat="43.80073" lon="2.34151">
        <ele>420.23</ele>
        <time>2011-12-04T15:59:47Z</time>
      </trkpt>
      <trkpt lat="43.80074" lon="2.34153">
        <ele>420.23</ele>
        <time>2011-12-04T16:00:17Z</time>
      </trkpt>
      <trkpt lat="43.80075" lon="2.34157">
        <ele>424.56</ele>
        <time>2011-12-04T16:00:33Z</time>
      </trkpt>
      <trkpt lat="43.80077" lon="2.34158">
        <ele>425.04</ele>
        <time>2011-12-04T16:00:52Z</time>
      </trkpt>
      <trkpt lat="43.80077" lon="2.34158">
        <ele>425.04</ele>
        <time>2011-12-04T16:00:56Z</time>
      </trkpt>
      <trkpt lat="43.80078" lon="2.34163">
        <ele>424.08</ele>
        <time>2011-12-04T16:01:04Z</time>
      </trkpt>
      <trkpt lat="43.80093" lon="2.34171">
        <ele>423.6</ele>
        <time>2011-12-04T16:01:12Z</time>
      </trkpt>
      <trkpt lat="43.80104" lon="2.34171">
        <ele>420.23</ele>
        <time>2011-12-04T16:01:25Z</time>
      </trkpt>
      <trkpt lat="43.80118" lon="2.34163">
        <ele>418.79</ele>
        <time>2011-12-04T16:01:38Z</time>
      </trkpt>
      <trkpt lat="43.80139" lon="2.34151">
        <ele>418.31</ele>
        <time>2011-12-04T16:01:53Z</time>
      </trkpt>
      <trkpt lat="43.80159" lon="2.34143">
        <ele>419.27</ele>
        <time>2011-12-04T16:02:09Z</time>
      </trkpt>
      <trkpt lat="43.80182" lon="2.34134">
        <ele>419.27</ele>
        <time>2011-12-04T16:02:25Z</time>
      </trkpt>
      <trkpt lat="43.80203" lon="2.34127">
        <ele>419.75</ele>
        <time>2011-12-04T16:02:41Z</time>
      </trkpt>
      <trkpt lat="43.80221" lon="2.34123">
        <ele>418.31</ele>
        <time>2011-12-04T16:02:56Z</time>
      </trkpt>
      <trkpt lat="43.80238" lon="2.34119">
        <ele>418.31</ele>
        <time>2011-12-04T16:03:10Z</time>
      </trkpt>
      <trkpt lat="43.80243" lon="2.3412">
        <ele>418.31</ele>
        <time>2011-12-04T16:03:14Z</time>
      </trkpt>
      <trkpt lat="43.80247" lon="2.34119">
        <ele>418.31</ele>
        <time>2011-12-04T16:03:18Z</time>
      </trkpt>
      <trkpt lat="43.80252" lon="2.34119">
        <ele>418.31</ele>
        <time>2011-12-04T16:03:22Z</time>
      </trkpt>
      <trkpt lat="43.80261" lon="2.34121">
        <ele>418.31</ele>
        <time>2011-12-04T16:03:30Z</time>
      </trkpt>
      <trkpt lat="43.80281" lon="2.34121">
        <ele>416.87</ele>
        <time>2011-12-04T16:03:46Z</time>
      </trkpt>
      <trkpt lat="43.80301" lon="2.3412">
        <ele>413.5</ele>
        <time>2011-12-04T16:04:02Z</time>
      </trkpt>
      <trkpt lat="43.8032" lon="2.34121">
        <ele>410.62</ele>
        <time>2011-12-04T16:04:19Z</time>
      </trkpt>
      <trkpt lat="43.80346" lon="2.34121">
        <ele>408.7</ele>
        <time>2011-12-04T16:04:39Z</time>
      </trkpt>
      <trkpt lat="43.80355" lon="2.34117">
        <ele>407.74</ele>
        <time>2011-12-04T16:04:46Z</time>
      </trkpt>
      <trkpt lat="43.80365" lon="2.34126">
        <ele>405.81</ele>
        <time>2011-12-04T16:04:57Z</time>
      </trkpt>
      <trkpt lat="43.80376" lon="2.34138">
        <ele>407.26</ele>
        <time>2011-12-04T16:05:12Z</time>
      </trkpt>
      <trkpt lat="43.8038" lon="2.34142">
        <ele>408.22</ele>
        <time>2011-12-04T16:05:22Z</time>
      </trkpt>
      <trkpt lat="43.80392" lon="2.34147">
        <ele>409.18</ele>
        <time>2011-12-04T16:05:36Z</time>
      </trkpt>
      <trkpt lat="43.80394" lon="2.34145">
        <ele>409.18</ele>
        <time>2011-12-04T16:05:38Z</time>
      </trkpt>
      <trkpt lat="43.80408" lon="2.3413">
        <ele>410.14</ele>
        <time>2011-12-04T16:05:53Z</time>
      </trkpt>
      <trkpt lat="43.80408" lon="2.34129">
        <ele>410.14</ele>
        <time>2011-12-04T16:05:54Z</time>
      </trkpt>
      <trkpt lat="43.80416" lon="2.34124">
        <ele>410.14</ele>
        <time>2011-12-04T16:06:09Z</time>
      </trkpt>
      <trkpt lat="43.80416" lon="2.34125">
        <ele>409.66</ele>
        <time>2011-12-04T16:06:22Z</time>
      </trkpt>
      <trkpt lat="43.80417" lon="2.34125">
        <ele>410.14</ele>
        <time>2011-12-04T16:06:47Z</time>
      </trkpt>
      <trkpt lat="43.80416" lon="2.34127">
        <ele>410.14</ele>
        <time>2011-12-04T16:07:05Z</time>
      </trkpt>
      <trkpt lat="43.80404" lon="2.34152">
        <ele>409.18</ele>
        <time>2011-12-04T16:07:19Z</time>
      </trkpt>
      <trkpt lat="43.80391" lon="2.34171">
        <ele>409.66</ele>
        <time>2011-12-04T16:07:34Z</time>
      </trkpt>
      <trkpt lat="43.80374" lon="2.34196">
        <ele>408.7</ele>
        <time>2011-12-04T16:07:52Z</time>
      </trkpt>
      <trkpt lat="43.80357" lon="2.34212">
        <ele>405.33</ele>
        <time>2011-12-04T16:08:08Z</time>
      </trkpt>
      <trkpt lat="43.8034" lon="2.34225">
        <ele>403.89</ele>
        <time>2011-12-04T16:08:22Z</time>
      </trkpt>
      <trkpt lat="43.80325" lon="2.34244">
        <ele>404.37</ele>
        <time>2011-12-04T16:08:37Z</time>
      </trkpt>
      <trkpt lat="43.80314" lon="2.34259">
        <ele>404.85</ele>
        <time>2011-12-04T16:08:50Z</time>
      </trkpt>
      <trkpt lat="43.80302" lon="2.34281">
        <ele>406.29</ele>
        <time>2011-12-04T16:09:04Z</time>
      </trkpt>
      <trkpt lat="43.80293" lon="2.34304">
        <ele>405.33</ele>
        <time>2011-12-04T16:09:17Z</time>
      </trkpt>
      <trkpt lat="43.80286" lon="2.34323">
        <ele>405.33</ele>
        <time>2011-12-04T16:09:28Z</time>
      </trkpt>
      <trkpt lat="43.80282" lon="2.34347">
        <ele>403.41</ele>
        <time>2011-12-04T16:09:42Z</time>
      </trkpt>
      <trkpt lat="43.80282" lon="2.3436">
        <ele>401.01</ele>
        <time>2011-12-04T16:09:48Z</time>
      </trkpt>
      <trkpt lat="43.80291" lon="2.34387">
        <ele>395.24</ele>
        <time>2011-12-04T16:10:03Z</time>
      </trkpt>
      <trkpt lat="43.80294" lon="2.34392">
        <ele>394.28</ele>
        <time>2011-12-04T16:10:06Z</time>
      </trkpt>
      <trkpt lat="43.80304" lon="2.344">
        <ele>392.36</ele>
        <time>2011-12-04T16:10:14Z</time>
      </trkpt>
      <trkpt lat="43.80308" lon="2.34401">
        <ele>391.39</ele>
        <time>2011-12-04T16:10:17Z</time>
      </trkpt>
      <trkpt lat="43.80315" lon="2.3441">
        <ele>390.43</ele>
        <time>2011-12-04T16:10:24Z</time>
      </trkpt>
      <trkpt lat="43.80336" lon="2.34424">
        <ele>390.91</ele>
        <time>2011-12-04T16:10:41Z</time>
      </trkpt>
      <trkpt lat="43.8035" lon="2.3443">
        <ele>389.47</ele>
        <time>2011-12-04T16:10:52Z</time>
      </trkpt>
      <trkpt lat="43.80367" lon="2.34454">
        <ele>387.07</ele>
        <time>2011-12-04T16:11:11Z</time>
      </trkpt>
      <trkpt lat="43.80376" lon="2.34474">
        <ele>386.11</ele>
        <time>2011-12-04T16:11:23Z</time>
      </trkpt>
      <trkpt lat="43.80382" lon="2.34487">
        <ele>385.63</ele>
        <time>2011-12-04T16:11:31Z</time>
      </trkpt>
      <trkpt lat="43.80395" lon="2.34513">
        <ele>384.18</ele>
        <time>2011-12-04T16:11:49Z</time>
      </trkpt>
      <trkpt lat="43.80403" lon="2.34536">
        <ele>383.7</ele>
        <time>2011-12-04T16:12:03Z</time>
      </trkpt>
      <trkpt lat="43.8041" lon="2.34561">
        <ele>382.74</ele>
        <time>2011-12-04T16:12:18Z</time>
      </trkpt>
      <trkpt lat="43.8041" lon="2.34563">
        <ele>382.74</ele>
        <time>2011-12-04T16:12:19Z</time>
      </trkpt>
      <trkpt lat="43.80418" lon="2.34575">
        <ele>381.78</ele>
        <time>2011-12-04T16:12:29Z</time>
      </trkpt>
      <trkpt lat="43.80422" lon="2.34575">
        <ele>381.78</ele>
        <time>2011-12-04T16:12:32Z</time>
      </trkpt>
      <trkpt lat="43.80428" lon="2.34567">
        <ele>380.34</ele>
        <time>2011-12-04T16:12:37Z</time>
      </trkpt>
      <trkpt lat="43.80437" lon="2.34542">
        <ele>377.45</ele>
        <time>2011-12-04T16:12:52Z</time>
      </trkpt>
      <trkpt lat="43.8044" lon="2.34517">
        <ele>374.57</ele>
        <time>2011-12-04T16:13:06Z</time>
      </trkpt>
      <trkpt lat="43.80442" lon="2.34509">
        <ele>373.13</ele>
        <time>2011-12-04T16:13:11Z</time>
      </trkpt>
      <trkpt lat="43.80451" lon="2.34506">
        <ele>371.21</ele>
        <time>2011-12-04T16:13:21Z</time>
      </trkpt>
      <trkpt lat="43.80451" lon="2.34533">
        <ele>371.69</ele>
        <time>2011-12-04T16:13:36Z</time>
      </trkpt>
      <trkpt lat="43.80448" lon="2.34559">
        <ele>374.57</ele>
        <time>2011-12-04T16:13:49Z</time>
      </trkpt>
      <trkpt lat="43.80448" lon="2.34589">
        <ele>373.61</ele>
        <time>2011-12-04T16:14:05Z</time>
      </trkpt>
      <trkpt lat="43.80448" lon="2.3462">
        <ele>372.17</ele>
        <time>2011-12-04T16:14:22Z</time>
      </trkpt>
      <trkpt lat="43.80451" lon="2.34653">
        <ele>366.88</ele>
        <time>2011-12-04T16:14:39Z</time>
      </trkpt>
      <trkpt lat="43.80453" lon="2.34684">
        <ele>364</ele>
        <time>2011-12-04T16:14:56Z</time>
      </trkpt>
      <trkpt lat="43.80452" lon="2.34713">
        <ele>361.59</ele>
        <time>2011-12-04T16:15:13Z</time>
      </trkpt>
      <trkpt lat="43.80451" lon="2.34724">
        <ele>360.63</ele>
        <time>2011-12-04T16:15:19Z</time>
      </trkpt>
      <trkpt lat="43.80456" lon="2.34755">
        <ele>355.83</ele>
        <time>2011-12-04T16:15:36Z</time>
      </trkpt>
      <trkpt lat="43.8046" lon="2.34786">
        <ele>353.42</ele>
        <time>2011-12-04T16:15:55Z</time>
      </trkpt>
      <trkpt lat="43.80462" lon="2.34798">
        <ele>352.46</ele>
        <time>2011-12-04T16:16:11Z</time>
      </trkpt>
      <trkpt lat="43.80464" lon="2.34803">
        <ele>352.94</ele>
        <time>2011-12-04T16:16:22Z</time>
      </trkpt>
      <trkpt lat="43.80469" lon="2.34816">
        <ele>353.42</ele>
        <time>2011-12-04T16:16:31Z</time>
      </trkpt>
      <trkpt lat="43.80476" lon="2.34845">
        <ele>352.46</ele>
        <time>2011-12-04T16:16:48Z</time>
      </trkpt>
      <trkpt lat="43.80483" lon="2.34869">
        <ele>351.02</ele>
        <time>2011-12-04T16:17:03Z</time>
      </trkpt>
      <trkpt lat="43.80486" lon="2.34881">
        <ele>350.54</ele>
        <time>2011-12-04T16:17:11Z</time>
      </trkpt>
      <trkpt lat="43.80489" lon="2.34888">
        <ele>350.06</ele>
        <time>2011-12-04T16:17:15Z</time>
      </trkpt>
      <trkpt lat="43.80497" lon="2.34915">
        <ele>349.58</ele>
        <time>2011-12-04T16:17:31Z</time>
      </trkpt>
      <trkpt lat="43.80508" lon="2.34939">
        <ele>348.62</ele>
        <time>2011-12-04T16:17:48Z</time>
      </trkpt>
      <trkpt lat="43.80518" lon="2.34968">
        <ele>349.58</ele>
        <time>2011-12-04T16:18:06Z</time>
      </trkpt>
      <trkpt lat="43.8053" lon="2.34996">
        <ele>350.06</ele>
        <time>2011-12-04T16:18:24Z</time>
      </trkpt>
      <trkpt lat="43.80539" lon="2.3502">
        <ele>348.62</ele>
        <time>2011-12-04T16:18:43Z</time>
      </trkpt>
      <trkpt lat="43.80541" lon="2.35021">
        <ele>349.1</ele>
        <time>2011-12-04T16:18:46Z</time>
      </trkpt>
      <trkpt lat="43.80548" lon="2.35025">
        <ele>349.58</ele>
        <time>2011-12-04T16:18:52Z</time>
      </trkpt>
      <trkpt lat="43.80565" lon="2.35046">
        <ele>351.5</ele>
        <time>2011-12-04T16:19:11Z</time>
      </trkpt>
      <trkpt lat="43.8057" lon="2.35073">
        <ele>351.5</ele>
        <time>2011-12-04T16:19:28Z</time>
      </trkpt>
      <trkpt lat="43.80567" lon="2.35082">
        <ele>351.98</ele>
        <time>2011-12-04T16:19:41Z</time>
      </trkpt>
      <trkpt lat="43.80563" lon="2.351">
        <ele>351.5</ele>
        <time>2011-12-04T16:19:52Z</time>
      </trkpt>
      <trkpt lat="43.80564" lon="2.35103">
        <ele>352.46</ele>
        <time>2011-12-04T16:19:56Z</time>
      </trkpt>
      <trkpt lat="43.80557" lon="2.35114">
        <ele>352.94</ele>
        <time>2011-12-04T16:20:05Z</time>
      </trkpt>
      <trkpt lat="43.8056" lon="2.3513">
        <ele>354.38</ele>
        <time>2011-12-04T16:20:18Z</time>
      </trkpt>
      <trkpt lat="43.80577" lon="2.35124">
        <ele>355.83</ele>
        <time>2011-12-04T16:20:32Z</time>
      </trkpt>
      <trkpt lat="43.80582" lon="2.35123">
        <ele>356.79</ele>
        <time>2011-12-04T16:20:47Z</time>
      </trkpt>
    </trkseg>
  </trk>
</gpx>